[[{"header":{"parameterUnit":"m.s-1","parameterCategory":1,"la1":30.6,"la2":29.2853,"lo1":-89.7004,"lo2":-87.6739,"dy":0.0162,"dx":0.0183,"nx":112,"ny":82,"refTime":"2023-04-21T06:00:00:Z","depth":0,"parameterNumber":2,"parameterNumberName":"U-component_of_WINDS"},"data":[0.0,0.0,0.0,0.0,0.0,0.0,0.0,0.0,0.0,0.0,0.0,0.0,0.0,0.0,0.0,0.0,0.0,0.0,0.0,0.0,0.0,0.0,0.0,0.0,0.0,0.0,0.0,0.0,0.0,0.0,0.0,0.0,0.0,0.0,0.0,0.0,0.0,0.0,0.0,0.0,0.0,0.0,0.0,0.0,0.0,0.0,0.0,0.0,0.0,0.0,0.0,0.0,0.0,0.0,0.0,0.0,0.0,0.0,0.0,0.0,0.0,0.0,0.0,0.0,0.0,0.0,0.0,0.0,0.0,0.0,0.0,0.0,0.0,0.0,0.0,0.0,0.0,0.0,0.0,0.0,0.0,0.0,0.0,0.0,0.0,0.0,0.0,0.0,0.0,0.0,1.7621,1.8593,1.8227,1.778,1.7371,1.6485,1.6458,1.7608,0.0,0.0,0.0,0.0,0.0,0.0,0.0,0.0,0.0,0.0,0.0,0.0,0.0,0.0,0.0,0.0,0.0,0.0,0.0,0.0,0.0,0.0,0.0,0.0,0.0,0.0,0.0,0.0,0.0,0.0,0.0,0.0,0.0,0.0,0.0,0.0,0.0,0.0,0.0,0.0,0.0,0.0,0.0,0.0,0.0,0.0,0.0,0.0,0.0,0.0,0.0,0.0,0.0,0.0,0.0,0.0,0.0,0.0,0.0,0.0,0.0,0.0,0.0,0.0,0.0,0.0,0.0,0.0,0.0,0.0,0.0,0.0,0.0,0.0,0.0,0.0,0.0,0.0,0.0,0.0,0.0,0.0,0.0,0.0,0.0,0.0,0.0,0.0,0.0,0.0,0.0,0.0,0.0,0.0,0.0,0.0,0.0,0.0,0.0,0.0,0.0,0.0,0.0,0.0,1.7859,1.7793,1.7714,1.7252,1.6234,1.5102,1.4942,1.6127,0.0,0.0,0.0,0.0,0.0,0.0,0.0,0.0,0.0,0.0,0.0,0.0,0.0,0.0,0.0,0.0,0.0,0.0,0.0,0.0,0.0,0.0,0.0,0.0,0.0,0.0,0.0,0.0,0.0,0.0,0.0,0.0,0.0,0.0,0.0,0.0,0.0,0.0,0.0,0.0,0.0,0.0,0.0,0.0,0.0,0.0,0.0,0.0,0.0,0.0,0.0,0.0,0.0,0.0,0.0,0.0,0.0,0.0,0.0,0.0,0.0,0.0,0.0,0.0,0.0,0.0,0.0,0.0,0.0,0.0,0.0,0.0,0.0,0.0,0.0,0.0,0.0,0.0,0.0,0.0,0.0,0.0,0.0,0.0,0.0,0.0,0.0,0.0,0.0,0.0,0.0,0.0,0.0,0.0,0.0,0.0,0.0,0.0,0.0,0.0,0.0,0.0,0.0,1.7239,1.7424,1.5861,1.6287,1.6207,1.5022,1.3841,1.3949,1.5781,1.4942,0.0,0.0,0.0,0.0,0.0,0.0,0.0,0.0,0.0,0.0,0.0,0.0,0.0,0.0,0.0,0.0,0.0,0.0,0.0,0.0,0.0,0.0,0.0,0.0,0.0,0.0,0.0,0.0,0.0,0.0,0.0,0.0,0.0,0.0,0.0,0.0,0.0,0.0,0.0,0.0,0.0,0.0,0.0,0.0,0.0,0.0,0.0,0.0,0.0,0.0,0.0,0.0,0.0,0.0,0.0,0.0,0.0,0.0,0.0,0.0,0.0,0.0,0.0,0.0,0.0,0.0,0.0,0.0,0.0,0.0,0.0,0.0,0.0,0.0,0.0,0.0,0.0,0.0,0.0,0.0,0.0,0.0,0.0,0.0,0.0,0.0,0.0,0.0,0.0,0.0,0.0,0.0,0.0,0.0,0.0,0.0,0.0,0.0,0.0,0.0,0.0,0.0,1.6432,1.6644,1.4352,1.5183,1.5289,1.3814,1.2896,1.3166,1.4969,1.3383,0.0,0.0,0.0,0.0,0.0,0.0,0.0,0.0,0.0,0.0,0.0,0.0,0.0,0.0,0.0,0.0,0.0,0.0,0.0,0.0,0.0,0.0,0.0,0.0,0.0,0.0,0.0,0.0,0.0,0.0,0.0,0.0,0.0,0.0,0.0,0.0,0.0,0.0,0.0,0.0,0.0,0.0,0.0,0.0,0.0,0.0,0.0,0.0,0.0,0.0,0.0,0.0,0.0,0.0,0.0,0.0,0.0,0.0,0.0,0.0,0.0,0.0,0.0,0.0,0.0,0.0,0.0,0.0,0.0,0.0,0.0,0.0,0.0,0.0,0.0,0.0,0.0,0.0,0.0,0.0,0.0,0.0,0.0,0.0,0.0,0.0,0.0,0.0,0.0,0.0,0.0,0.0,0.0,0.0,0.0,0.0,0.0,0.0,0.0,0.0,0.0,0.0,1.5941,1.5541,1.4245,1.5183,1.4969,1.2716,1.2445,1.2472,1.2635,1.2499,0.0,0.0,0.0,0.0,0.0,0.0,0.0,0.0,0.0,0.0,0.0,0.0,0.0,0.0,0.0,0.0,0.0,0.0,0.0,0.0,0.0,0.0,0.0,0.0,0.0,0.0,0.0,0.0,0.0,0.0,0.0,0.0,0.0,0.0,0.0,0.0,0.0,0.0,0.0,0.0,0.0,0.0,0.0,0.0,0.0,0.0,0.0,0.0,0.0,0.0,0.0,0.0,0.0,0.0,0.0,0.0,0.0,0.0,0.0,0.0,0.0,0.0,0.0,0.0,0.0,0.0,0.0,0.0,0.0,0.0,0.0,0.0,0.0,0.0,0.0,0.0,0.0,0.0,0.0,0.0,0.0,0.0,0.0,0.0,0.0,0.0,0.0,0.0,0.0,0.0,0.0,0.0,0.0,0.0,0.0,0.0,0.0,0.0,0.0,0.0,0.0,0.0,1.4352,1.4056,1.2173,1.3004,1.3058,1.1473,1.1337,1.1637,1.2363,0.0,0.0,0.0,0.0,0.0,0.0,0.0,0.0,0.0,0.0,0.0,0.0,0.0,0.0,0.0,0.0,0.0,0.0,0.0,0.0,0.0,0.0,0.0,0.0,0.0,0.0,0.0,0.0,0.0,0.0,0.0,0.0,0.0,0.0,0.0,0.0,0.0,0.0,0.0,0.0,0.0,0.0,0.0,0.0,0.0,0.0,0.0,0.0,0.0,0.0,0.0,0.0,0.0,0.0,0.0,0.0,0.0,0.0,0.0,0.0,0.0,0.0,0.0,0.0,0.0,0.0,0.0,0.0,0.0,0.0,0.0,0.0,0.0,0.0,0.0,0.0,0.0,0.0,0.0,0.0,0.0,0.0,0.0,0.0,0.0,0.0,0.0,0.0,0.0,0.0,0.0,0.0,0.0,0.0,0.0,0.0,0.0,0.0,0.0,0.0,0.0,0.0,1.2499,1.3085,1.2815,1.0907,1.1719,1.1928,1.0798,1.0688,1.1044,1.1819,0.0,0.0,0.0,0.0,0.0,0.0,0.0,0.0,0.0,0.0,0.0,0.0,0.0,0.0,0.0,0.0,0.0,0.0,0.0,0.0,0.0,0.0,0.0,0.0,0.0,0.0,0.0,0.0,0.0,0.0,0.0,0.0,0.0,0.0,0.0,0.0,0.0,0.0,0.0,0.0,0.0,0.0,0.0,0.0,0.0,0.0,0.0,0.0,0.0,0.0,0.0,0.0,0.0,0.0,0.0,0.0,0.0,0.0,0.0,0.0,0.0,0.0,0.0,0.0,0.0,0.0,0.0,0.0,0.0,0.0,0.0,0.0,0.0,0.0,0.0,0.0,0.0,0.0,0.0,0.0,0.0,0.0,0.0,0.0,0.0,0.0,0.0,0.0,0.0,0.0,0.0,0.0,0.0,0.0,0.0,0.0,0.0,0.0,0.0,0.0,0.0,0.0,1.239,1.239,1.1955,1.0825,1.1719,1.1928,1.0798,1.0688,1.0688,0.0,0.0,0.0,0.0,0.0,0.0,0.0,0.0,0.0,0.0,0.0,0.0,0.0,0.0,0.0,0.0,0.0,0.0,0.0,0.0,0.0,0.0,0.0,0.0,0.0,0.0,0.0,0.0,0.0,0.0,0.0,0.0,0.0,0.0,0.0,0.0,0.0,0.0,0.0,0.0,0.0,0.0,0.0,0.0,0.0,0.0,0.0,0.0,0.0,0.0,0.0,0.0,0.0,0.0,0.0,0.0,0.0,0.0,0.0,0.0,0.0,0.0,0.0,0.0,0.0,0.0,0.0,0.0,0.0,0.0,0.0,0.0,0.0,0.0,0.0,0.0,0.0,0.0,0.0,0.0,0.0,0.0,0.0,0.0,0.0,0.0,0.0,0.0,0.0,0.0,0.0,0.0,0.0,0.0,0.0,0.0,0.0,0.0,0.0,0.0,0.0,0.0,0.0,1.12,1.12,1.1072,1.0743,1.0989,1.1072,1.0715,1.0688,1.0688,1.0688,0.0,0.0,0.0,0.0,0.0,0.0,0.0,0.0,0.0,0.0,0.0,0.0,0.0,0.0,0.0,0.0,0.0,0.0,0.0,0.0,0.0,0.0,0.0,0.0,0.0,0.0,0.0,0.0,0.0,0.0,0.0,0.0,0.0,0.0,0.0,0.0,0.0,0.0,0.0,0.0,0.0,0.0,0.0,0.0,0.0,0.0,0.0,0.0,0.0,0.0,0.0,0.0,0.0,0.0,0.0,0.0,0.0,0.0,0.0,0.0,0.0,0.0,0.0,0.0,0.0,0.0,0.0,0.0,0.0,0.0,0.0,0.0,0.0,0.0,0.0,0.0,0.0,0.0,0.0,0.0,0.0,0.0,0.0,0.0,0.0,0.0,0.0,0.0,0.0,0.0,0.0,0.0,0.0,0.0,0.0,0.0,0.0,0.0,0.0,0.0,0.0,0.0,1.0688,1.0688,1.0688,1.0688,1.0688,1.0688,1.0688,1.0688,1.0688,1.0688,0.0,0.0,0.0,0.0,0.0,0.0,0.0,0.0,0.0,0.0,0.0,0.0,0.0,0.0,0.0,0.0,0.0,0.0,0.0,0.0,0.0,0.0,0.0,0.0,0.0,0.0,0.0,0.0,0.0,0.0,0.0,0.0,0.0,0.0,0.0,0.0,0.0,0.0,0.0,0.0,0.0,0.0,0.0,0.0,0.0,0.0,0.0,0.0,0.0,0.0,0.0,0.0,0.0,0.0,0.0,0.0,0.0,0.0,0.0,0.0,0.0,0.0,0.0,0.0,0.0,0.0,0.0,0.0,0.0,0.0,0.0,0.0,0.0,0.0,0.0,0.0,0.0,0.0,0.0,0.0,0.0,0.0,0.0,0.0,0.0,0.0,0.0,0.0,0.0,0.0,0.0,0.0,0.0,0.0,0.0,0.0,0.0,0.0,0.0,0.0,0.0,0.0,1.0745,1.0745,1.0745,1.0745,1.0745,1.0745,1.0745,1.0745,1.0745,1.0745,0.0,0.0,0.0,0.0,0.0,0.0,0.0,0.0,0.0,0.0,0.0,0.0,0.0,0.0,0.0,0.0,0.0,0.0,0.0,0.0,0.0,0.0,0.0,0.0,0.0,0.0,0.0,0.0,0.0,0.0,0.0,0.0,0.0,0.0,0.0,0.0,0.0,0.0,0.0,0.0,0.0,0.0,0.0,0.0,0.0,0.0,0.0,0.0,0.0,0.0,0.0,0.0,0.0,0.0,0.0,0.0,0.0,0.0,0.0,0.0,0.8668,0.8994,0.0,0.0,0.0,0.0,0.0,0.0,0.0,0.0,0.0,0.0,0.0,0.0,0.0,0.0,0.0,0.0,0.0,0.0,0.0,0.0,0.0,0.0,0.0,0.0,0.0,0.0,0.0,0.0,0.0,0.0,0.0,0.0,0.0,0.0,0.0,0.0,0.0,0.0,0.0,0.0,1.1082,1.1082,1.1082,1.1082,1.1082,1.1082,1.1082,1.1082,1.1082,1.1082,1.1082,0.0,0.0,0.0,0.0,0.0,0.0,0.0,0.0,0.0,0.0,0.0,0.0,0.0,0.0,0.0,0.0,0.0,0.0,0.0,0.0,0.0,0.0,0.0,0.0,0.0,0.0,0.0,0.0,0.0,0.0,0.0,0.0,0.0,0.0,0.0,0.0,0.0,0.0,0.0,0.0,0.0,0.0,0.0,0.0,0.0,0.0,0.0,0.0,0.0,0.0,0.0,0.0,0.0,0.0,0.0,0.0,0.0,0.0,0.0,0.7841,0.8174,0.0,0.0,0.0,0.0,0.0,0.0,0.0,0.0,0.0,0.0,0.0,0.0,0.0,0.0,0.0,0.0,0.0,0.0,0.0,0.0,0.0,0.0,0.0,0.0,0.0,0.0,0.0,0.0,0.0,0.0,0.0,0.0,0.0,0.0,0.0,0.0,0.0,0.0,0.0,0.0,1.1195,1.1195,1.1195,1.1195,1.1195,1.1195,1.1195,1.1195,1.0928,1.0322,1.0293,0.0,0.0,0.0,0.0,0.0,0.0,0.0,0.0,0.0,0.0,0.0,0.0,0.0,0.0,0.0,0.0,0.0,0.0,0.0,0.0,0.0,0.0,0.0,0.0,0.0,0.0,0.0,0.0,0.0,0.0,0.0,0.0,0.0,0.0,0.0,0.0,0.0,0.0,0.0,0.0,0.0,0.0,0.0,0.0,0.0,0.0,0.0,0.0,0.0,0.0,0.0,0.0,0.0,0.6719,0.6786,0.6786,0.6786,0.7121,0.7684,0.7684,0.7951,0.8384,0.7884,0.0,0.0,0.0,0.0,0.0,0.0,0.0,0.0,0.0,0.0,0.0,0.0,0.0,0.0,0.0,0.0,0.0,0.0,0.0,0.0,0.0,0.0,1.3528,1.3461,1.3681,1.3808,1.3469,0.0,0.0,0.0,0.0,0.0,0.0,0.0,0.0,0.0,0.0,0.0,1.1292,1.1292,1.1292,1.1292,1.1292,1.1292,1.1292,1.1081,1.0521,0.9471,0.9173,0.8546,0.0,0.0,0.0,0.0,0.0,0.0,0.0,0.0,0.0,0.0,0.0,0.0,0.0,0.0,0.0,0.0,0.0,0.0,0.0,0.0,0.0,0.0,0.0,0.0,0.0,0.0,0.0,0.0,0.0,0.0,0.0,0.0,0.4308,0.4308,0.0,0.0,0.0,0.0,0.0,0.0,0.0,0.0,0.0,0.0,0.0,0.0,0.0,0.6317,0.6384,0.7049,0.735,0.735,0.8017,0.8323,0.8323,0.8323,0.8356,0.8451,0.8451,0.0,0.7684,0.8218,0.0,0.0,0.0,0.0,0.0,0.0,0.0,0.0,0.0,0.0,0.0,0.0,0.0,0.0,0.0,0.0,0.0,0.0,0.0,0.0,0.0,0.0,1.4385,1.4198,1.4182,1.4235,1.4179,1.3535,1.2895,1.269,1.2625,1.2543,0.0,0.0,0.0,0.0,0.0,0.0,1.1733,1.1733,1.1733,1.1733,1.1733,1.1733,1.1733,1.0658,0.9928,0.9747,0.8684,0.7944,0.7565,0.756,0.0,0.0,0.0,0.0,0.0,0.0,0.0,0.0,0.0,0.0,0.0,0.0,0.0,0.0,0.0,0.0,0.0,0.0,0.0,0.0,0.0,0.0,0.0,0.0,0.0,0.0,0.0,0.0,0.0,0.4644,0.4778,0.4342,0.4678,0.4745,0.0,0.0,0.0,0.0,0.0,0.0,0.0,0.0,0.0,0.6982,0.7016,0.7216,0.7622,0.7951,0.8117,0.8117,0.8451,0.859,0.859,0.859,0.859,0.859,0.859,0.8418,0.8117,0.8017,0.8051,0.8117,0.0,0.0,0.0,0.0,0.8884,0.9316,0.9316,0.9616,1.0008,1.0008,0.0,0.0,0.0,0.0,0.0,0.0,0.0,1.3604,1.4298,1.4475,1.4512,1.4621,1.4625,1.4597,1.4484,1.4168,1.3788,1.3393,1.3172,1.2921,1.2512,1.2433,0.0,0.0,0.0,1.1806,1.1806,1.1806,1.1806,1.1806,1.1806,1.1496,1.0725,1.0142,0.9164,0.7703,0.7098,0.6407,0.5544,0.5513,0.5468,0.0,0.0,0.0,0.0,0.0,0.0,0.0,0.0,0.0,0.0,0.0,0.0,0.0,0.0,0.0,0.0,0.0,0.0,0.0,0.0,0.0,0.0,0.0,0.0,0.0,0.0,0.0,0.0,0.5044,0.5111,0.4375,0.5114,0.5379,0.0,0.0,0.0,0.0,0.0,0.0,0.6719,0.6779,0.713,0.7834,0.7868,0.8137,0.8682,0.8682,0.8682,0.8682,0.8682,0.8682,0.8682,0.8682,0.8682,0.8682,0.8682,0.8682,0.8643,0.8043,0.8117,0.8551,0.7984,0.8117,0.859,0.859,0.859,0.859,0.859,0.859,0.859,0.859,0.9316,1.0207,1.0207,0.0,0.0,0.0,0.0,1.3194,1.4277,1.4539,1.4604,1.4833,1.4898,1.4861,1.471,1.4617,1.4437,1.4018,1.3743,1.3416,1.2995,1.2845,0.0,1.2145,1.1975,1.1945,1.1945,1.16,1.1386,1.1386,1.1042,1.0422,0.9426,0.9057,0.8035,0.6067,0.5633,0.4984,0.3995,0.4119,0.4244,0.4244,0.0,0.0,0.0,0.0,0.0,0.0,0.0,0.0,0.0,0.0,0.0,0.0,0.0,0.0,0.0,0.0,0.0,0.0,0.0,0.0,0.0,0.0,0.0,0.0,0.0,0.0,0.0,0.0,0.0,0.4375,0.5513,0.0,0.0,0.0,0.0,0.6351,0.6495,0.6881,0.7601,0.7764,0.8134,0.8793,0.8828,0.8863,0.8897,0.8897,0.8897,0.8897,0.8897,0.8897,0.8897,0.8897,0.8897,0.8897,0.8897,0.8897,0.8881,0.8648,0.8551,0.859,0.8551,0.8551,0.859,0.859,0.859,0.859,0.859,0.859,0.859,0.859,0.9316,1.0207,1.0207,1.1597,0.0,0.0,1.4006,1.48,1.4866,1.4866,1.4866,1.4898,1.4898,1.4898,1.4889,1.4618,1.4368,1.4289,1.4245,1.4151,1.3797,0.0,1.3152,1.2798,1.2492,1.228,1.228,1.1097,1.0267,1.0267,0.9025,0.8166,0.8103,0.6983,0.6217,0.6089,0.4881,0.4149,0.4085,0.4756,0.5141,0.5141,0.5845,0.0,0.0,0.0,0.0,0.0,0.0,0.0,0.0,0.0,0.0,0.0,0.0,0.0,0.0,0.0,0.0,0.0,0.0,0.0,0.0,0.0,0.0,0.0,0.0,0.0,0.0,0.0,0.0,0.6004,0.676,0.0,0.6382,0.6932,0.7378,0.7378,0.7824,0.8193,0.8469,0.8511,0.8636,0.8884,0.8919,0.8919,0.8919,0.8919,0.8919,0.8919,0.8919,0.8919,0.8919,0.8919,0.8919,0.8919,0.8919,0.8919,0.8908,0.8822,0.8789,0.8789,0.8789,0.8774,0.8738,0.8738,0.8688,0.859,0.859,0.859,0.859,0.859,0.8851,0.9183,0.9183,0.9676,1.0406,1.1101,1.2091,1.3046,1.3711,1.4366,1.4898,1.4898,1.4898,1.4898,1.4898,1.48,1.4721,1.4678,1.4511,1.4281,1.4025,1.3879,1.3667,1.3258,1.2517,1.198,1.198,1.0929,1.0199,1.0199,0.9303,0.8539,0.8156,0.7321,0.6654,0.6242,0.5793,0.5508,0.5508,0.5765,0.5893,0.5893,0.6599,0.6951,0.0,0.0,0.0,0.0,0.0,0.0,0.0,0.0,0.0,0.0,0.0,0.0,0.0,0.0,0.0,0.0,0.0,0.0,0.0,0.0,0.0,0.0,0.0,0.0,0.0,0.7592,0.7622,0.6891,0.7657,0.7975,0.7239,0.7836,0.8253,0.8253,0.8672,0.8979,0.8979,0.9017,0.9033,0.9033,0.9033,0.9033,0.9033,0.9033,0.9033,0.9033,0.9033,0.9033,0.9033,0.9033,0.9033,0.9033,0.9033,0.9033,0.9033,0.9033,0.9033,0.9027,0.8946,0.887,0.8834,0.8834,0.878,0.8709,0.8709,0.8709,0.8709,0.8709,0.8709,0.8709,0.8709,0.9181,0.985,1.0578,1.1773,1.3013,1.3678,1.4366,1.4898,1.4898,1.4898,1.4898,1.4898,1.4898,1.4898,1.4898,1.4735,1.4525,1.4396,1.4281,1.4097,1.377,1.2731,1.1962,1.1962,1.0605,0.9671,0.9671,0.8766,0.8021,0.7632,0.7178,0.6755,0.6369,0.6337,0.6337,0.6337,0.6565,0.6695,0.6695,0.7377,0.7734,0.7734,0.0,0.0,0.0,0.0,0.0,0.0,0.0,0.0,0.0,0.0,0.0,0.0,0.0,0.0,0.0,0.0,0.0,0.0,0.0,0.0,0.0,0.0,0.0,0.8069,0.795,0.7671,0.6969,0.8089,0.8646,0.802,0.8542,0.893,0.893,0.9038,0.9103,0.9103,0.9242,0.9302,0.9302,0.9302,0.9302,0.9302,0.9302,0.9302,0.9302,0.9302,0.9302,0.9302,0.9302,0.9302,0.9302,0.9302,0.9302,0.9302,0.9302,0.9302,0.928,0.9017,0.8924,0.8924,0.8924,0.8919,0.8919,0.8919,0.8919,0.8919,0.8919,0.8919,0.8919,0.8919,1.0269,1.1813,1.1846,1.3303,1.4819,1.4852,1.4885,1.4917,1.4917,1.4917,1.4917,1.4917,1.4917,1.4917,1.4908,1.4908,1.4908,1.4898,1.4604,1.4375,1.4375,1.3161,0.0,1.2239,1.0114,0.8584,0.8584,0.7283,0.6447,0.6443,0.6443,0.6443,0.6443,0.6443,0.6443,0.6443,0.714,0.7541,0.7545,0.8251,0.859,0.859,0.0,0.0,0.0,0.0,0.0,0.0,0.0,0.0,0.0,0.0,0.0,0.0,0.0,0.0,0.0,0.0,0.0,0.0,0.0,0.0,0.0,0.9258,0.917,0.8959,0.8918,0.8847,0.8632,0.8954,0.9132,0.8918,0.9097,0.9204,0.9204,0.9237,0.9258,0.9258,0.9285,0.9302,0.9302,0.9302,0.9302,0.9302,0.9302,0.9302,0.9302,0.9302,0.9302,0.9302,0.9302,0.9302,0.9302,0.9302,0.9302,0.9302,0.9302,0.9302,0.9296,0.9231,0.9119,0.9049,0.9049,0.8995,0.8919,0.8919,0.8919,0.8919,0.8919,0.8919,0.8919,0.8919,0.9273,0.9894,1.0782,1.1979,1.3206,1.4026,1.4803,1.5418,1.5418,1.5418,1.5418,1.5418,1.5418,1.5337,1.5144,1.5115,1.5068,1.4927,1.417,1.3613,1.3613,1.1992,1.0777,1.0777,0.9516,0.8557,0.8475,0.7605,0.7215,0.7659,0.7261,0.7196,0.7687,0.7719,0.7719,0.7719,0.7908,0.8047,0.8164,0.8447,0.859,0.0,0.0,0.0,0.0,0.0,0.0,0.0,0.0,0.0,0.0,0.0,0.0,0.0,0.0,0.0,0.0,0.0,0.0,0.0,0.0,0.0,0.0,0.9302,0.9302,0.9302,0.9302,0.9302,0.9302,0.9302,0.9302,0.9302,0.9264,0.9231,0.9231,0.9275,0.9302,0.9302,0.94,0.9459,0.9459,0.9405,0.9378,0.9378,0.9329,0.9302,0.9302,0.9302,0.9302,0.9302,0.9302,0.9302,0.9302,0.9302,0.9302,0.9302,0.9302,0.9275,0.9237,0.0,0.0,0.0,0.0,0.9125,0.9065,0.9065,0.9065,0.9065,0.9065,0.9377,0.9765,0.9765,1.0312,1.1117,1.1799,1.266,1.3528,1.4209,1.4855,1.53,1.53,1.53,1.53,1.53,1.53,1.5128,1.4524,1.4406,0.0,1.3695,1.3448,1.3309,1.3309,1.153,1.0207,1.0207,0.925,0.8562,0.8497,0.8091,0.7999,0.8323,0.8025,0.0,0.0,0.0,0.8383,0.8383,0.8383,0.0,0.0,0.0,0.8519,0.8519,0.8465,0.0,0.0,0.8562,0.859,0.0,0.0,0.0,0.0,0.0,0.0,0.0,0.0,0.0,0.0,0.0,0.0,0.0,0.0,0.0,0.0,0.9334,0.9345,0.9345,0.9345,0.934,0.9329,0.9334,0.9345,0.9345,0.9253,0.9157,0.9157,0.9285,0.9345,0.9345,0.9589,0.0,0.0,0.0,0.9508,0.9508,0.94,0.9345,0.9345,0.9345,0.9345,0.9345,0.9345,0.9345,0.9345,0.9345,0.9345,0.9345,0.9345,0.9285,0.9163,0.9247,0.9264,0.9264,0.9264,0.9264,0.9264,0.9264,0.0,0.0,0.9264,0.9946,1.0801,1.0908,1.2099,1.3489,1.372,1.4267,1.48,1.4941,1.4974,1.4974,1.4974,1.4974,1.4974,1.4974,1.4974,1.4702,1.3713,1.3507,1.3202,1.2157,1.252,1.2947,1.2947,1.1266,1.0014,1.0033,0.9207,0.8606,0.8606,0.8606,0.0,0.859,0.859,0.859,0.859,0.859,0.859,0.859,0.86,0.8606,0.8606,0.8524,0.8448,0.8448,0.8334,0.834,0.8448,0.8541,0.8573,0.0,0.0,0.0,0.0,0.0,0.0,0.0,0.0,0.0,0.0,0.0,0.0,0.0,0.0,0.0,0.9454,0.9536,0.9638,0.9638,0.9638,0.96,0.9465,0.9541,0.9638,0.9638,0.9616,0.9568,0.9568,0.9622,0.9638,0.9638,0.9682,0.9709,0.9709,0.9687,0.9671,0.9671,0.9649,0.9638,0.9638,0.9638,0.0,0.9638,0.9638,0.9638,0.9638,0.9638,0.9638,0.9638,0.9638,0.9622,0.953,0.9125,0.8984,0.8984,0.8984,0.8984,0.8984,0.8984,0.8984,0.8984,0.8984,0.9124,0.9474,1.0341,1.0852,0.0,1.3318,1.3917,1.4239,1.5196,1.5475,1.5475,1.5475,1.5475,1.5475,1.5475,1.5475,1.5351,1.4906,1.4835,1.4449,1.3202,1.1795,1.0803,1.0803,0.9715,0.8957,0.9058,0.89,0.877,0.877,0.877,0.8727,0.8595,0.859,0.859,0.859,0.859,0.859,0.859,0.8716,0.877,0.877,0.8778,0.8816,0.8811,0.8789,0.8789,0.8805,0.854,0.8497,0.0,0.0,0.0,0.0,0.0,0.0,0.0,0.0,0.0,0.0,0.0,0.9394,0.9394,0.0,0.9616,0.9616,0.9665,0.9709,0.9709,0.972,0.9709,0.9627,0.9671,0.9709,0.9709,0.9654,0.9616,0.9616,0.9671,0.9709,0.9709,0.978,0.9845,0.9845,0.9786,0.9753,0.9753,0.9736,0.9709,0.9709,0.9709,0.9709,0.9709,0.9709,0.9709,0.9709,0.9709,0.9709,0.9703,0.9643,0.9616,0.9546,0.9247,0.913,0.9174,0.9114,0.9092,0.9092,0.9092,0.9092,0.9199,0.9759,1.0324,1.0995,1.2149,1.2824,1.3413,1.4526,1.4765,1.483,1.5453,1.5598,1.5598,1.5598,1.5513,1.5394,1.5394,1.4907,1.4272,1.3635,1.3079,1.2316,1.1141,1.0074,0.9582,1.0107,0.9283,0.8611,0.8705,0.871,0.871,0.871,0.871,0.8688,0.8595,0.8677,0.871,0.871,0.8736,0.8735,0.8735,0.8829,0.8861,0.8861,0.8861,0.8861,0.8861,0.8802,0.8802,0.8856,0.8677,0.8655,0.0,0.0,0.0,0.0,0.0,0.0,0.0,0.934,0.9345,0.9372,0.9454,0.9525,0.9525,0.9622,0.9709,0.9774,0.9796,0.9818,0.9845,0.9889,0.9911,0.9856,0.9807,0.9774,0.9774,0.965,0.959,0.959,0.9682,0.9774,0.9774,0.9916,0.998,0.998,0.9888,0.9834,0.9834,0.9786,0.9774,0.9774,0.9774,0.9774,0.9774,0.9774,0.9774,0.9774,0.9774,0.9774,0.9769,0.9633,0.959,0.9579,0.9454,0.947,0.9536,0.9367,0.9302,0.9302,0.9302,0.9302,0.9446,1.0383,1.1276,1.2244,1.3452,1.4312,1.4972,1.5182,1.5282,1.5334,1.5334,1.554,1.5721,1.5721,1.5545,1.5379,1.5379,1.4578,1.3628,1.2826,1.1754,1.0644,0.9571,0.9199,0.9232,0.9794,0.915,0.8595,0.8622,0.8622,0.8633,0.8655,0.866,0.866,0.866,0.8747,0.8812,0.8874,0.8897,0.8962,0.8984,0.8984,0.8984,0.8984,0.8927,0.8907,0.8907,0.8774,0.8774,0.8907,0.8907,0.8899,0.9049,0.9085,0.9193,0.9266,0.9302,0.9334,0.0,0.9465,0.9497,0.9643,0.9676,0.9687,0.9687,0.9742,0.9818,0.9965,1.0074,1.0182,1.0291,1.0318,1.0318,1.0307,1.0112,0.9981,0.9981,0.997,0.996,0.996,0.9976,0.9981,0.9981,1.0008,0.998,0.998,0.997,0.9959,0.9959,0.9987,0.9981,0.9981,0.9981,0.9981,0.9981,0.9981,0.9981,0.9981,0.9981,0.9981,0.9981,0.9965,0.996,0.9949,0.9786,0.9748,0.9721,0.9427,0.9302,0.9302,0.9302,0.9302,0.9302,0.9446,0.959,0.9879,1.0989,1.137,1.1644,1.2609,1.3634,1.4442,1.4442,1.5291,1.6112,1.6112,1.6093,1.6075,1.6075,1.5985,1.5826,1.5721,1.47,1.3491,1.2428,1.1355,1.0234,0.8951,0.869,0.8628,0.877,0.8781,0.8791,0.8865,0.8876,0.8876,0.8876,0.8887,0.8941,0.9049,0.9071,0.9125,0.9258,0.9264,0.9264,0.9264,0.9253,0.9242,0.9242,0.9231,0.9231,0.9242,0.9242,0.9103,0.941,0.9465,0.9497,0.9427,0.9465,0.953,0.9616,0.9633,0.9643,0.9698,0.978,0.9873,0.9873,1.003,1.0172,1.0226,1.0275,1.0329,1.0378,1.0384,1.0384,1.0384,1.0297,1.0231,1.0231,1.0231,1.0231,1.0231,1.0231,1.0231,1.0231,1.0231,1.0231,1.0231,1.0231,1.0231,1.0231,1.0231,1.0231,1.0231,1.0231,1.0231,1.0231,1.0231,1.0231,1.0231,1.0231,1.0231,1.0231,1.0231,1.0231,1.0226,1.0177,1.0155,1.0106,0.9677,0.9514,0.9514,0.9514,0.9993,1.0688,1.1343,1.2077,1.2882,1.4014,1.4342,1.4423,1.4896,1.5377,1.5741,1.5741,1.6139,1.6357,1.5659,1.5389,1.5094,1.4375,1.3638,1.3139,1.3139,1.2173,1.124,1.0809,1.0311,0.9732,0.9105,0.9003,0.9024,0.9073,0.9079,0.9101,0.9114,0.9119,0.9119,0.9119,0.9184,0.9285,0.9334,0.934,0.9362,0.941,0.934,0.9302,0.9302,0.9302,0.9302,0.9302,0.9302,0.9302,0.9302,0.9302,0.9253,0.9536,0.9638,0.9687,0.9594,0.9643,0.9714,0.9709,0.9742,0.9775,0.9851,0.9976,1.0123,1.0123,1.0264,1.0394,1.0468,1.0473,1.0443,1.0476,1.0481,1.0481,1.0481,1.0481,1.0481,1.0481,1.0422,1.0384,1.0384,1.0384,1.0384,1.0384,1.0384,1.0384,1.0384,1.0384,1.0384,1.0384,1.0384,1.0384,1.0384,1.0384,1.0384,1.0384,1.0384,1.0384,1.0384,1.0384,1.0384,1.0384,1.0384,1.0384,1.0384,1.0384,1.0384,1.0346,1.0036,1.0135,1.0435,1.0435,1.1231,1.2405,1.324,1.4149,1.5018,1.5856,1.6119,1.6119,1.6119,1.6345,1.6608,1.6608,1.688,1.6917,1.6044,1.5667,1.52,1.397,1.2977,1.2224,1.1854,1.0854,1.0116,1.0116,0.9796,0.9552,0.9552,0.9525,0.9454,0.9318,0.9302,0.9302,0.9302,0.9302,0.9302,0.9302,0.9383,0.9449,0.9487,0.9487,0.9503,0.9536,0.9454,0.9405,0.9405,0.9405,0.9405,0.9405,0.9405,0.9405,0.9405,0.9515,0.9801,0.9703,0.9703,0.9703,0.9703,0.9703,0.9736,0.9769,0.9888,1.0041,1.0161,1.0286,1.0373,1.0373,1.0378,1.0422,1.0571,1.0593,1.0631,1.0668,1.0684,1.0684,1.0684,1.0684,1.0684,1.0684,1.052,1.0384,1.0384,1.0384,1.0384,1.0384,1.0384,1.0384,1.0384,1.0384,1.0384,1.0384,1.0384,1.0384,1.0384,1.0384,1.0384,1.0384,1.0384,1.0384,1.0384,1.0384,1.0384,1.0384,1.0384,1.0384,1.0384,1.0384,1.0384,1.0384,1.0367,1.12,1.2315,1.2315,1.3148,1.4224,1.4264,1.4303,1.4343,1.4383,1.4383,1.4383,1.4383,1.5257,1.6208,1.6208,1.7086,1.7933,1.7933,1.7884,1.756,1.6256,1.597,1.5566,1.4241,1.2974,1.2096,1.2096,1.1042,1.0177,1.0177,1.0074,0.9829,0.9362,0.9302,0.9302,0.9302,0.9302,0.9302,0.9302,0.9307,0.9362,0.9481,0.9487,0.9541,0.9698,0.9698,0.9698,0.9698,0.9698,0.9698,0.9698,0.9698,0.9698,0.9698,1.0105,1.1102,0.9802,0.984,0.99,0.99,0.9965,1.0052,1.0172,1.0231,1.0275,1.0318,1.0457,1.0538,1.0538,1.0563,1.0661,1.078,1.0797,1.084,1.096,1.0982,1.0982,1.0982,1.0982,1.0982,1.0982,1.0759,1.0617,1.0617,1.0617,1.0617,1.0617,1.0617,1.0617,1.0617,1.0617,1.0617,1.0617,1.0617,1.0617,1.0617,1.0617,1.0617,1.0617,1.0617,1.0617,1.0617,1.0617,1.0617,1.0617,1.0617,1.1106,1.1922,1.1922,1.2455,1.3227,1.3227,1.4093,1.496,1.305,1.3215,1.4366,1.5281,1.5528,1.5496,1.5496,1.6092,1.6568,1.5734,1.6409,1.721,1.633,1.6418,1.629,1.4573,1.4134,1.3815,1.2582,1.2308,1.2187,1.174,1.1304,1.1022,1.1022,1.0632,1.0324,1.0324,1.015,0.996,0.9802,0.978,0.978,0.978,0.978,0.978,0.978,0.978,0.9796,0.984,0.9764,0.9737,0.978,0.9709,0.9709,0.9709,0.9709,0.9709,0.9709,0.9709,0.9709,0.9709,1.0116,1.1151,0.9948,1.0057,1.015,1.015,1.021,1.0291,1.0367,1.0457,1.0489,1.0489,1.0541,1.0634,1.0719,1.0748,1.0798,1.0965,1.0987,1.1014,1.109,1.1101,1.1101,1.1101,1.1101,1.1101,1.1101,1.096,1.0825,1.0825,1.0825,1.0825,1.0825,1.0825,1.0825,1.0825,1.0825,1.0825,1.0825,1.0825,1.0825,1.0825,1.0825,1.0825,1.0825,1.0825,1.0825,1.0825,1.0825,1.0825,1.0825,1.0825,1.1368,1.2119,1.2119,1.2665,1.3413,1.3413,1.4585,1.5962,1.4471,1.4756,1.5964,1.6808,1.7057,1.7026,1.7026,1.7587,1.8067,1.7266,1.7627,1.8067,1.7226,1.7026,1.6495,1.4312,1.3827,1.3341,1.1603,1.1242,1.1079,1.059,1.0509,1.0509,1.0509,1.0476,1.0473,1.0394,1.0253,1.015,1.015,1.015,1.015,1.015,1.015,1.015,1.015,1.015,1.015,1.015,1.0036,0.9932,0.9932,0.9856,0.9872,1.0025,1.0025,1.0101,1.029,1.029,1.0588,1.1151,1.1529,1.2905,1.0215,1.0297,1.0389,1.0394,1.0394,1.0394,1.0405,1.0528,1.0604,1.0604,1.0655,1.0733,1.0895,1.0922,1.096,1.109,1.1112,1.1112,1.1118,1.1123,1.1123,1.1123,1.1123,1.1123,1.1123,1.1123,1.1123,1.1123,1.1112,1.1101,1.1101,1.1101,1.1101,1.1101,1.1101,1.1101,1.1101,1.1101,1.1101,1.1101,1.1101,1.1101,1.1101,1.1101,1.1101,1.1101,1.1101,1.1144,1.123,1.123,1.123,1.1317,1.1403,1.1403,1.1403,1.1489,1.3152,1.5543,1.651,1.7636,1.8629,1.8711,1.867,1.8629,1.8629,1.867,1.8711,1.8661,1.867,1.8711,1.8661,1.8629,1.8292,1.697,1.6633,1.5917,1.3348,1.2762,1.2305,1.1065,1.0737,1.0695,1.0695,1.0639,1.0571,1.0462,1.0446,1.04,1.0389,1.0384,1.0384,1.0384,1.0384,1.0384,1.0384,1.0384,1.0429,1.0429,1.0315,1.0255,1.0294,1.014,1.0269,1.0658,1.0658,1.0892,1.1319,1.1397,1.2237,1.3714,1.4214,1.616,1.034,1.0362,1.0405,1.0533,1.0555,1.0577,1.0628,1.0672,1.0688,1.0688,1.0674,1.0733,1.0895,1.0922,1.0987,1.1194,1.1226,1.1259,1.1395,1.1406,1.1406,1.1406,1.1406,1.1406,1.1406,1.1406,1.1406,1.1406,1.1204,1.1101,1.1101,1.1101,1.1101,1.1101,1.1101,1.1101,1.1101,1.1101,1.1101,1.1101,1.1101,1.1101,1.1101,1.1101,1.1101,1.1101,1.1101,1.1704,1.2644,1.2644,1.3238,1.4258,1.5326,1.5674,1.5752,1.6823,1.7629,1.8298,1.8544,1.8205,1.7827,1.8801,1.8466,1.7659,1.7659,1.8331,1.8927,1.7953,1.8382,1.8927,1.7911,1.7659,1.7314,1.5992,1.552,1.526,1.455,1.3499,1.2596,1.2264,1.1397,1.0695,1.0695,1.0668,1.0766,1.1104,1.0851,1.0585,1.0411,1.0384,1.0384,1.0384,1.0384,1.0384,1.0384,1.0384,1.0545,1.0827,1.0798,1.0942,1.1302,1.1267,1.1329,1.1408,1.1408,1.1488,1.1607,1.2899,1.3658,1.3893,1.5626,1.7434,1.05,1.0498,1.0558,1.0617,1.0634,1.0655,1.0679,1.0695,1.0695,1.0695,1.0739,1.0814,1.0976,1.1041,1.1134,1.1368,1.1395,1.1423,1.1488,1.1499,1.1499,1.1499,1.1499,1.1499,1.1499,1.1499,1.1499,1.1499,1.1379,1.1303,1.1303,1.1303,1.1303,1.1303,1.1303,1.1303,1.1303,1.1477,1.1565,1.1608,1.1783,1.187,1.1914,1.273,1.2687,1.2001,1.3587,1.4317,1.4368,1.514,1.5909,1.6685,1.7467,1.7768,1.7811,1.8635,1.9329,1.9894,1.9894,1.9756,1.9652,1.9396,1.8781,1.8189,1.8189,1.8696,1.9128,1.84,1.8705,1.9001,1.7587,1.7247,1.678,1.4806,1.4231,1.4048,1.3666,1.2929,1.2366,1.2571,1.1987,1.148,1.148,1.148,1.1565,1.1818,1.1655,1.1435,1.1333,1.1059,1.0909,1.1114,1.1155,1.1155,1.1155,1.1155,1.1236,1.1481,1.1422,1.1514,1.1797,1.1742,1.2147,1.3095,1.3095,1.3575,1.4573,1.5511,1.6284,1.6886,1.8096,1.9509,1.062,1.0655,1.0701,1.0717,1.0706,1.0701,1.0733,1.0733,1.0722,1.0739,1.0873,1.0982,1.1101,1.1204,1.1357,1.1477,1.1499,1.1499,1.1499,1.1543,1.1588,1.1588,1.1632,1.1677,1.1677,1.1677,1.1677,1.1677,1.1677,1.1677,1.1588,1.1632,1.1677,1.1677,1.1677,1.1677,1.1677,1.2077,1.2299,1.2299,1.2698,1.292,1.2964,1.4581,1.4448,1.3097,1.6274,1.6888,1.5719,1.7318,1.7973,1.7973,1.8453,1.8497,1.8366,1.8802,1.9768,2.0872,2.0872,2.1661,2.2353,2.039,1.9763,1.9763,1.9763,1.9763,1.9763,1.9763,1.9763,1.9457,1.8251,1.7911,1.7315,1.4957,1.4172,1.3779,1.3013,1.2484,1.222,1.2466,1.2509,1.2509,1.2509,1.2509,1.2509,1.2595,1.2552,1.2552,1.268,1.2011,1.1706,1.2124,1.2165,1.2159,1.2141,1.2141,1.2129,1.2193,1.2082,1.2014,1.2096,1.199,1.2802,1.4666,1.4946,1.5983,1.7899,1.8374,1.9301,2.0615,2.0861,2.1747,1.0663,1.0679,1.0717,1.082,1.0771,1.0749,1.0992,1.096,1.0916,1.102,1.1058,1.1107,1.1221,1.1259,1.1357,1.1477,1.1499,1.1499,1.1499,1.181,1.2077,1.2077,1.2432,1.2654,1.2654,1.2654,1.2654,1.2654,1.2654,1.2476,1.2121,1.2432,1.2654,1.2654,1.2654,1.2654,1.2654,1.2742,1.2787,1.2787,1.2875,1.292,1.292,1.323,1.323,1.292,1.3578,1.4323,1.5168,1.5469,1.5601,1.5866,1.8575,1.8916,1.8209,2.0968,2.2104,2.233,2.233,2.2503,2.2622,2.2245,2.2085,2.2085,2.2085,2.2085,2.2085,2.2085,2.2085,2.2042,2.1827,2.173,2.1644,2.116,1.9723,1.8445,1.8274,1.6023,1.3716,1.268,1.2509,1.2509,1.2509,1.2509,1.2638,1.3024,1.2766,1.2766,1.3495,1.2808,1.2356,1.2441,1.2441,1.2398,1.2288,1.2282,1.2359,1.2573,1.2589,1.2736,1.3115,1.3129,1.3281,1.3645,1.5059,1.5992,1.64,1.9281,2.0716,2.0813,2.2257,2.2987,1.0771,1.0793,1.082,1.0987,1.0971,1.096,1.1074,1.1058,1.1031,1.109,1.115,1.1204,1.1308,1.1368,1.1428,1.1488,1.1721,1.1855,1.1855,1.2254,1.2565,1.2565,1.2742,1.295,1.3024,1.2985,1.301,1.3077,1.3308,1.3201,1.2615,1.2787,1.292,1.292,1.292,1.292,1.292,1.3147,1.328,1.328,1.3502,1.3635,1.3679,1.4639,1.455,1.3723,1.5682,1.6386,1.6174,1.7132,1.813,1.9134,2.0752,2.1531,2.1953,2.3525,2.4106,2.4106,2.4106,2.4106,2.4106,2.4106,2.3462,2.2686,2.2686,2.2686,2.2686,2.2686,2.2686,2.2546,2.1801,2.1618,2.1402,2.0645,1.9918,1.9118,1.8165,1.7629,1.6533,1.3944,1.4242,1.4583,1.3596,1.3421,1.3509,1.3733,1.3602,1.3602,1.3995,1.369,1.3363,1.3214,1.3195,1.3169,1.3105,1.3098,1.3157,1.3254,1.4203,1.4833,1.5043,1.587,1.6725,1.7634,1.8346,1.9146,2.0038,2.1757,2.2465,2.239,2.321,2.3547,1.0852,1.0938,1.0987,1.1107,1.1123,1.1118,1.1166,1.1156,1.1145,1.1172,1.1248,1.1357,1.1357,1.1434,1.1499,1.1499,1.1899,1.221,1.221,1.2698,1.3065,1.3096,1.3185,1.3286,1.343,1.3442,1.3486,1.3586,1.3958,1.3913,1.333,1.3273,1.3273,1.3273,1.3273,1.3273,1.3273,1.3636,1.3859,1.3859,1.4216,1.4394,1.4438,1.5934,1.5801,1.4572,1.751,1.7943,1.6716,1.8164,1.9799,2.1496,2.1931,2.3213,2.4866,2.5263,2.5391,2.5391,2.5391,2.5391,2.5391,2.5391,2.445,2.329,2.329,2.329,2.329,2.329,2.329,2.302,2.191,2.1651,2.1208,1.9671,1.9628,1.9429,1.7553,1.861,1.9046,1.6086,1.6701,1.7219,1.5741,1.5477,1.5477,1.5477,1.5477,1.5477,1.5477,1.5477,1.5381,1.516,1.4406,1.3883,1.3849,1.4228,1.4472,1.4394,1.6161,1.7214,1.7214,1.8411,1.9742,2.1086,2.1306,2.2033,2.3432,2.3707,2.3884,2.3884,2.3836,2.38,1.0916,1.1003,1.1112,1.1226,1.1177,1.1161,1.1417,1.1379,1.133,1.1444,1.1477,1.1483,1.1483,1.1494,1.1499,1.1499,1.1899,1.221,1.221,1.2964,1.3591,1.3713,1.4085,1.4415,1.4524,1.4537,1.4544,1.4557,1.4603,1.4589,1.4517,1.4517,1.4517,1.4517,1.4517,1.4517,1.4517,1.4563,1.4608,1.4608,1.4654,1.4654,1.4654,1.4835,1.4835,1.4699,1.501,1.5056,1.4913,1.4993,1.6084,1.7964,1.9547,2.1262,2.3041,2.478,2.5391,2.5391,2.5391,2.5391,2.5391,2.5391,2.5305,2.5134,2.5134,2.5134,2.5134,2.5134,2.5134,2.5134,2.5006,2.4963,2.4481,2.2643,2.2255,2.178,1.996,1.9743,1.9786,1.9438,1.9525,1.9569,1.9395,1.9395,1.9395,1.9395,1.9395,1.9395,1.9395,1.9395,1.9376,1.934,1.6303,1.4204,1.4061,1.5638,1.6551,1.6339,1.8093,1.9147,1.9147,1.9296,1.9454,1.959,2.1129,2.2003,2.217,2.3523,2.4162,2.415,2.3909,2.38,1.1094,1.1118,1.1232,1.1395,1.1566,1.178,1.1921,1.1859,1.1925,1.2287,1.2121,1.1988,1.2299,1.2343,1.2343,1.2343,1.2742,1.3053,1.3053,1.3662,1.418,1.4188,1.4455,1.4706,1.4862,1.4875,1.4916,1.4997,1.5004,1.5004,1.5004,1.4789,1.4694,1.4694,1.4694,1.4694,1.4694,1.4694,1.4694,1.4694,1.4694,1.4694,1.4694,1.4694,1.4694,1.4694,1.4694,1.4694,1.4778,1.5933,1.751,1.9419,2.1289,2.3162,2.4847,2.56,2.5861,2.5861,2.5861,2.5764,2.5632,2.5632,2.5523,2.5391,2.5391,2.5391,2.5391,2.5391,2.4609,2.3955,2.5092,2.4609,2.3311,2.1435,2.0958,2.0482,1.861,1.909,1.9221,1.6956,1.7438,1.7876,1.6745,1.6525,1.6525,1.6525,1.6525,1.6525,1.6525,1.6525,1.6525,1.6525,1.7219,1.7667,1.7592,1.8278,1.8676,1.8596,2.0347,2.1373,2.1373,2.2276,2.279,2.279,2.3272,2.3578,2.3578,2.4145,2.4427,2.4427,2.4318,2.427,1.138,1.1427,1.161,1.1699,1.2077,1.2387,1.2387,1.2387,1.252,1.2831,1.2654,1.252,1.2831,1.292,1.292,1.292,1.3274,1.3604,1.3642,1.4135,1.4543,1.4638,1.474,1.4869,1.5018,1.5078,1.5119,1.5174,1.5181,1.5181,1.5181,1.4984,1.4869,1.4869,1.4869,1.4869,1.4869,1.4869,1.4869,1.4869,1.4869,1.4869,1.4869,1.4869,1.4869,1.4869,1.4869,1.4869,1.4961,1.6324,1.8015,1.9816,2.1134,2.281,2.4518,2.5104,2.496,2.4606,2.5766,2.5703,2.5155,2.5723,2.5776,2.562,2.562,2.5523,2.5391,2.5391,2.4438,2.3611,2.4352,2.4041,2.2869,2.0482,2.0308,2.0221,1.8348,1.8959,1.9134,1.6481,1.7,1.7526,1.6174,1.5961,1.5961,1.5961,1.5961,1.5961,1.5961,1.5961,1.6174,1.6693,1.9134,2.0047,1.8392,1.8741,1.9308,1.9873,2.1651,2.2955,2.3483,2.4531,2.5114,2.5114,2.4921,2.4824,2.4824,2.4752,2.4704,2.4704,2.462,2.4583,1.179,1.1975,1.221,1.221,1.2565,1.2875,1.2875,1.2875,1.2875,1.292,1.292,1.2875,1.292,1.292,1.292,1.292,1.3274,1.3636,1.3771,1.4195,1.4624,1.4976,1.5017,1.5071,1.5167,1.5181,1.5181,1.5181,1.5181,1.5181,1.5181,1.5181,1.5174,1.5174,1.5174,1.5174,1.5174,1.5174,1.5174,1.5174,1.5174,1.5174,1.5174,1.5174,1.5174,1.5174,1.5174,1.5174,1.5167,1.5071,1.6112,1.773,1.7598,1.869,2.0622,2.2598,2.2063,2.0926,2.4827,2.4927,2.3631,2.5589,2.6174,2.6174,2.6174,2.5801,2.5391,2.5391,2.5391,2.4952,2.3127,2.3998,2.4438,2.0785,2.1305,2.2179,2.0264,1.9873,1.9873,1.983,1.9873,1.9873,1.983,1.983,1.983,1.983,1.983,1.983,1.983,1.983,2.0525,2.2298,2.2557,2.0342,1.4822,1.6042,1.7911,1.9786,2.1651,2.3483,2.5305,2.5391,2.5391,2.5391,2.5391,2.5379,2.5379,2.5126,2.5005,2.4993,2.4716,2.4583,1.2343,1.2449,1.2698,1.2698,1.3008,1.3369,1.3369,1.3369,1.3458,1.3812,1.3591,1.3502,1.3812,1.3856,1.3856,1.3856,1.3989,1.4124,1.4265,1.4514,1.474,1.4989,1.5059,1.5133,1.5181,1.5181,1.5181,1.5181,1.5181,1.5181,1.5181,1.5181,1.5181,1.5181,1.5181,1.5181,1.5181,1.5181,1.5181,1.5181,1.5181,1.5181,1.5181,1.5181,1.5181,1.5181,1.5181,1.5181,1.5321,1.6567,1.7467,1.8109,1.9426,2.0318,2.0913,2.1563,2.138,2.1004,2.2283,2.2182,2.16,2.2231,2.2309,2.2186,2.2186,2.3964,2.5624,2.4164,2.4693,2.4918,2.1605,2.2126,2.2869,2.0482,2.0351,2.0612,2.0047,1.8872,1.8348,1.9656,1.8872,1.8392,1.97,1.9917,1.9917,1.9917,1.9917,1.9917,1.9917,1.9917,2.0134,2.0698,2.0742,2.1045,2.1824,2.2438,2.3041,2.3611,2.4224,2.478,2.5391,2.5391,2.5391,2.5391,2.5391,2.5391,2.5391,2.5306,2.527,2.527,2.5186,2.5041,1.2852,1.2929,1.3141,1.3141,1.3502,1.3856,1.3856,1.3856,1.3945,1.4255,1.4078,1.3945,1.4255,1.4299,1.4299,1.4299,1.4346,1.4428,1.4577,1.4733,1.4882,1.5031,1.5126,1.5181,1.5181,1.5181,1.5181,1.5181,1.5181,1.5181,1.5181,1.5181,1.5181,1.5181,1.5181,1.5181,1.5181,1.5181,1.5181,1.5181,1.5181,1.5181,1.5181,1.5181,1.5181,1.5181,1.5181,1.5181,0.0,1.6526,1.6993,1.7133,1.8384,1.885,1.8943,1.9677,1.95,1.9082,2.0557,2.0474,1.9859,2.0593,2.0737,2.0588,2.0588,2.2185,2.372,2.2366,2.282,2.3183,2.0754,2.147,2.2389,2.0627,2.0715,2.1022,2.0364,1.9273,1.8761,1.9831,1.9111,1.8655,1.9709,1.9917,1.9917,1.9917,1.9917,1.9917,1.9917,1.9917,2.0178,2.0872,2.0915,2.2136,2.5134,2.4126,2.3611,2.4352,2.4352,2.4652,2.5348,2.5391,2.5391,2.5391,2.5391,2.5391,2.5391,2.5391,2.5391,2.5391,2.5391,2.5306,0.0,1.3415,1.3635,1.3635,1.3989,1.4299,1.4299,1.4299,0.0,1.4299,1.4299,1.4299,1.4299,1.4299,1.4306,1.4312,1.4428,1.457,1.4687,1.4889,1.5078,1.5167,1.5181,1.5181,1.5181,1.5181,1.5181,1.5181,1.5181,1.5181,1.5181,1.5181,1.5181,1.5181,1.5181,1.5181,1.5181,1.5181,1.5181,1.5181,1.5181,1.5181,1.5181,1.5181,1.5181,1.5181,1.5181,1.5181,1.5181,1.5181,1.5181,1.5181,1.5181,1.5181,1.5415,1.7227,1.6759,1.5744,1.9407,1.9454,1.8198,2.0048,2.0705,2.0705,2.0705,2.0518,2.0346,2.0327,2.0327,2.0372,2.0452,2.1795,2.2687,2.107,2.1953,2.2721,2.1015,2.0568,2.0431,2.0321,2.0204,2.005,1.9949,1.9921,1.9921,1.9921,1.9921,1.9964,2.0139,2.0119,2.0805,2.2632,2.2794,2.3514,2.5263,2.2266,2.1045,2.2783,2.2826,2.3557,2.5348,2.5391,2.5391,2.5391,2.5391,2.5391,2.5391,2.5391,2.5391,2.5391,2.5391,2.5391,1.3857,0.0,1.4122,1.4122,1.421,1.4299,0.0,1.4299,1.4299,1.4299,1.4299,1.4299,1.4299,1.4299,1.4333,1.4441,1.4489,1.4604,1.4882,1.5038,1.5147,1.5181,1.5181,1.5181,1.5181,1.5181,1.5181,1.5181,1.5181,1.5181,1.5181,1.5181,1.5181,1.5181,1.5181,1.5181,1.5181,1.5181,1.5181,1.5181,1.5181,1.5181,1.5181,1.5181,1.5181,1.5181,1.5181,1.5181,1.5181,1.5181,1.5181,1.5181,1.5181,1.5181,1.5275,1.5697,1.5603,1.5321,1.6252,1.6299,1.5971,1.6439,1.6572,1.6572,1.6572,1.8597,2.0886,2.0671,2.0624,2.0596,2.0391,2.0667,2.0891,2.0478,2.0702,2.0926,2.0478,1.9275,1.8682,2.0019,1.916,1.8613,1.9945,2.0203,2.0203,2.0203,2.0203,2.0746,2.2309,2.2319,2.2912,2.4858,2.4855,2.4909,2.5348,2.4609,2.4309,2.4738,2.4738,2.4963,2.5391,2.5391,2.5391,2.5391,2.5391,2.5391,2.5391,2.5391,2.5391,2.5391,2.5391,2.5391,1.4048,1.4183,1.4299,1.4299,1.4299,1.4299,1.4299,1.4299,1.4299,1.4299,1.4299,1.4319,1.4387,1.4394,1.4441,1.459,1.4679,1.4801,1.5085,1.5133,1.5181,1.5181,1.5181,1.5181,1.5181,1.5181,1.5181,1.5181,1.5181,1.5181,1.5181,1.5181,1.5181,1.5181,1.5181,1.5181,1.5181,1.5181,1.5181,1.5181,1.5181,1.5181,1.5181,1.5181,1.5181,1.5181,1.5181,1.5181,1.5181,1.5181,1.5181,1.5181,1.5181,1.5181,1.5181,1.5181,1.5181,1.5181,1.5181,1.5181,1.5181,1.5181,1.5181,1.5181,1.5181,1.6713,1.836,1.8215,1.8182,1.8342,1.9112,1.9268,1.9542,2.0453,2.068,2.068,2.068,1.987,1.9424,2.0332,1.968,1.9238,2.0138,2.0308,2.0308,2.0308,2.0308,2.0712,2.1785,2.1818,2.2444,2.4457,2.4518,2.4786,2.5709,2.5752,2.5656,2.5415,2.5391,2.5391,2.5391,2.5391,2.5391,2.5391,2.5391,2.5391,2.5391,2.5391,2.5391,2.5391,2.5391,2.5391,1.4102,1.4204,1.4299,1.4299,1.4299,1.4299,1.4299,1.4299,1.4299,1.4299,1.4319,1.4367,1.4489,1.4529,1.4597,1.4708,1.4903,1.5091,1.5167,1.5181,1.5181,1.5181,1.5181,1.5181,1.5181,1.5181,1.5181,1.5181,1.5181,1.5181,1.5181,1.5181,1.5181,1.5181,1.5181,1.5181,1.5181,1.5181,1.5181,1.5181,1.5181,1.5181,1.5181,1.5181,1.5181,1.5181,1.5181,1.5181,1.5181,1.5181,1.5181,1.5181,1.5181,1.5181,1.5181,1.5181,1.5181,1.5181,1.5181,1.5181,1.5181,1.5181,1.5181,1.5181,1.5181,1.5181,1.5181,1.5181,1.5181,1.5603,1.7227,1.7639,1.8105,1.977,2.0187,2.0187,2.0187,2.0187,2.0141,1.9915,1.9879,1.9779,1.9572,1.95,1.95,1.95,1.95,1.9635,1.9951,2.0194,2.1118,2.3151,2.3608,2.4385,2.6042,2.6218,2.6025,2.5535,2.5475,2.5439,2.5403,2.5391,2.5391,2.5391,2.5391,2.5391,2.5391,2.5391,2.5391,2.5391,2.5391,2.5391,1.4231,1.4285,1.4299,1.4299,1.4299,1.4299,1.4299,1.4299,1.4299,1.4299,1.4394,1.4482,1.4509,1.4572,1.4708,1.4909,1.5105,1.516,1.5181,1.5181,1.5181,1.5181,1.5181,1.5181,1.5181,1.5181,1.5181,1.5181,1.5181,1.5181,1.5181,1.5181,1.5181,1.5181,1.5181,1.5181,1.5181,1.5181,1.5181,1.5181,1.5181,1.5181,1.5181,1.5181,1.5181,1.5181,1.5181,1.5181,1.5181,1.5181,1.5181,1.5181,1.5181,1.5181,1.5181,1.5181,1.5181,1.5181,1.5181,1.5181,1.5181,1.5181,1.5181,1.5181,1.5181,1.5181,1.5181,1.5181,1.5181,1.5275,1.5556,1.565,1.5737,1.6018,1.6112,1.6112,1.6112,1.6112,1.6104,1.6029,1.6029,1.6022,1.5993,1.5993,1.5993,1.5993,1.5993,1.6591,1.8248,1.9714,2.1423,2.343,2.492,2.5866,2.6174,2.6218,2.6138,2.6066,2.5849,2.562,2.5403,2.5391,2.5391,2.5391,2.5391,2.5391,2.5391,2.5391,2.5391,2.5391,2.5391,2.5391,1.4278,1.4299,1.4299,1.4299,1.4299,1.4299,1.4299,1.436,1.4414,1.4414,1.4529,1.4658,1.4746,1.4814,1.4916,1.5059,1.514,1.5181,1.5181,1.5181,1.5181,1.5181,1.5181,1.5181,1.5181,1.5181,1.5181,1.5181,1.5181,1.5181,1.5181,1.5181,1.5181,1.5181,1.5181,1.5181,1.5181,1.5181,1.5181,1.5181,1.5181,1.5181,1.5181,1.5181,1.5181,1.5181,1.5181,1.5181,1.5181,1.5181,1.5181,1.5181,1.5181,1.5181,1.5181,1.5181,1.5181,1.5181,1.5181,1.5181,1.5181,1.5181,1.5181,1.5181,1.5181,1.5181,1.5181,1.5181,1.5181,1.5181,1.5181,1.5181,1.5181,1.5181,1.5181,1.5181,1.5181,1.5181,1.5181,1.5181,1.5181,1.5181,1.5181,1.5181,1.5181,1.5181,1.6112,1.7087,1.8012,1.9736,2.1703,2.3721,2.462,2.5464,2.6518,2.6608,2.6532,2.6242,2.6066,2.5945,2.5825,2.5813,2.5813,2.5813,2.5813,2.5813,2.5813,2.5813,2.574,2.5608,2.5608,2.5535,1.4299,1.4299,1.4299,1.4299,1.4299,1.4306,1.434,1.4434,1.4523,1.4557,1.4685,1.4828,1.495,1.5044,1.5105,1.5167,1.5181,1.5181,1.5181,1.5181,1.5181,1.5181,1.5181,1.5181,1.5181,1.5181,1.5181,1.5181,1.5181,1.5181,1.5181,1.5181,1.5181,1.5181,1.5181,1.5181,1.5181,1.5181,1.5181,1.5181,1.5181,1.5181,1.5181,1.5181,1.5181,1.5181,1.5181,1.5181,1.5181,1.5181,1.5181,1.5181,1.5181,1.5181,1.5181,1.5181,1.5181,1.5181,1.5181,1.5181,1.5181,1.5181,1.5181,1.5181,1.5181,1.5181,1.5181,1.5181,1.5181,1.5181,1.5181,1.5181,1.5181,1.5181,1.5181,1.5181,1.5181,1.5181,1.5181,1.5181,1.5181,1.5181,1.5181,1.5181,1.5368,1.583,1.7133,1.8291,1.8757,2.0557,2.2402,2.3927,2.4522,2.5354,2.6891,2.6981,2.6801,2.6391,2.6351,2.6291,2.6218,2.6218,2.6218,2.6218,2.6218,2.6218,2.6218,2.6218,2.6066,2.5873,2.5873,2.5764,1.4299,1.4299,1.4299,1.4299,1.4299,1.4333,1.4468,1.4502,1.455,1.4647,1.4848,1.4957,1.5017,1.5079,1.5167,1.5181,1.5181,1.5181,1.5181,1.5181,1.5181,1.5181,1.5181,1.5181,1.5181,1.5181,1.5181,1.5181,1.5181,1.5181,1.5181,1.5181,1.5181,1.5181,1.5181,1.5181,1.5181,1.5181,1.5181,1.5181,1.5181,1.5181,1.5181,1.5181,1.5181,1.5181,1.5181,1.5181,1.5181,1.5181,1.5181,1.5181,1.5181,1.5181,1.5181,1.5181,1.5181,1.5181,1.5181,1.5181,1.5181,1.5181,1.5181,1.5181,1.5181,1.5181,1.5181,1.5181,1.5181,1.5181,1.5181,1.5181,1.5181,1.5181,1.5181,1.5181,1.5181,1.5181,1.5181,1.5181,1.5181,1.5181,1.5181,1.5181,1.583,1.7639,1.8012,1.8748,2.0659,2.2632,2.3927,2.4064,2.573,2.6845,2.6981,2.6981,2.6969,2.6933,2.6704,2.6451,2.623,2.6218,2.6218,2.6218,2.6218,2.6218,2.6218,2.6218,2.6206,2.6194,2.6194,2.6182,1.4299,1.4299,1.4319,1.4407,1.4434,1.4448,1.4502,1.4658,1.4814,1.4869,1.4997,1.5106,1.5106,1.5194,1.5181,1.5181,1.5181,1.5181,1.5181,1.5181,1.5181,1.5181,1.5181,1.5181,1.5181,1.5181,1.5181,1.5181,1.5181,1.5181,1.5181,1.5269,1.5323,1.5323,1.5418,1.5466,1.5466,1.5466,1.5466,1.5466,1.5276,1.5181,1.5181,1.5181,1.5181,1.5181,1.5181,1.5181,1.5181,1.5181,1.5181,1.5181,1.5181,1.5181,1.5181,1.5181,1.5181,1.5181,1.5181,1.5181,1.5181,1.5181,1.5181,1.5181,1.5181,1.5181,1.5181,1.5181,1.5181,1.5181,1.5181,1.5181,1.5181,1.5181,1.5181,1.5181,1.5181,1.6158,1.6666,1.5415,1.6205,1.6619,1.5415,1.5181,1.5462,1.6205,1.8384,2.0233,2.0973,2.3927,2.5913,2.5913,2.6561,2.6981,2.6981,2.6981,2.6981,2.6981,2.6885,2.6789,2.668,2.6725,2.6725,2.6725,2.6725,2.6725,2.6725,2.6725,2.6596,2.6439,2.6439,2.6343,1.4299,1.4333,1.4387,1.4489,1.4584,1.4658,1.4658,1.4821,1.503,1.5031,1.516,1.5181,1.5181,1.5181,1.5181,1.5181,1.5181,1.5181,1.5181,1.5181,1.5181,1.5181,1.5181,1.5201,1.5248,1.5255,1.5276,1.5323,1.5323,1.5323,1.5323,1.5425,1.5486,1.5486,1.5539,1.5593,1.5593,1.5593,1.5593,1.5587,1.5425,1.5323,1.5323,1.5323,1.5323,1.5323,1.5276,1.5255,1.5248,1.5201,1.5181,1.5181,1.5181,1.5181,1.5181,1.5181,1.5181,1.5181,1.5181,1.5181,1.5181,1.5181,1.5181,1.5181,1.5181,1.5181,1.5181,1.5181,1.5181,1.5181,1.5181,1.5181,1.5181,1.5181,1.5181,1.5181,1.5181,1.6713,1.7732,1.6393,1.718,1.7872,1.718,1.6526,1.6526,1.7825,2.0325,2.2264,2.2872,2.532,2.6981,2.6981,2.6981,2.6981,2.6981,2.6981,2.6981,2.6981,2.6981,2.6981,2.6981,2.6981,2.6981,2.6981,2.6981,2.6981,2.6981,2.6981,2.6897,2.6716,2.6716,2.662,1.4299,1.4407,1.4509,1.4516,1.4746,1.5017,1.5017,1.5017,1.5057,1.5153,1.5181,1.5181,1.5181,1.5181,1.5181,1.5181,1.5181,1.5181,1.5181,1.5181,1.5181,1.5181,1.5187,1.5248,1.5398,1.5411,1.5479,1.558,1.5593,1.5593,1.5593,1.5593,1.5593,1.5593,1.5593,1.5593,1.5593,1.5593,1.5593,1.5593,1.5593,1.5593,1.5593,1.5593,1.5593,1.558,1.5479,1.5411,1.5404,1.5248,1.5187,1.5187,1.5187,1.5187,1.5181,1.5181,1.5181,1.5181,1.5181,1.5181,1.5181,1.5181,1.5181,1.5181,1.5181,1.5181,1.5181,1.5181,1.5181,1.5181,1.5181,1.5181,1.5181,1.5181,1.5181,1.5181,1.5181,1.6713,1.8105,1.8058,1.8105,1.8748,2.0751,1.9398,1.9445,2.3458,2.411,2.4807,2.6755,2.6981,2.6981,2.6981,2.6981,2.6981,2.6981,2.6981,2.6981,2.6981,2.6981,2.6981,2.6981,2.6981,2.6981,2.6981,2.6981,2.6981,2.6981,2.6981,2.6981,2.6981,2.6981,2.6981,1.4421,1.4482,1.4563,1.478,1.4949,1.4997,1.5099,1.512,1.5133,1.5174,1.5181,1.5181,1.5181,1.5181,1.5181,1.5181,1.5181,1.5181,1.5181,1.5276,1.5343,1.5343,1.5438,1.552,1.5519,1.5519,1.5539,1.5587,1.5593,1.5593,1.5593,1.5737,1.5791,1.5791,1.5893,1.5947,1.5947,1.5947,1.5947,1.5947,1.5947,1.5839,1.5593,1.5593,1.5593,1.5587,1.5546,1.5519,1.5519,1.552,1.5506,1.5506,1.5506,1.5438,1.5343,1.5343,1.5276,1.5181,1.5181,1.5181,1.5181,1.5181,1.5181,1.5181,1.5181,1.5181,1.5181,1.5181,1.5181,1.5181,1.5181,1.5181,1.5181,1.5181,1.5181,1.5181,1.5181,1.6713,1.7686,1.6346,1.718,1.8291,1.8896,1.8524,1.8981,2.1619,2.3183,2.4807,2.6755,2.6981,2.6981,2.6981,2.6981,2.6981,2.6981,2.6981,2.6981,2.6981,2.6981,2.6981,2.6981,2.6981,2.6981,2.6981,2.6981,2.6981,2.6981,2.6981,2.6981,2.6981,2.6981,2.6981,1.4475,1.4557,1.4658,1.4909,1.5057,1.5079,1.516,1.5181,1.5181,1.5181,1.5181,1.5181,1.5181,1.5181,1.5181,1.5181,1.5181,1.5201,1.5262,1.535,1.5432,1.5445,1.5533,1.5614,1.5716,1.5723,1.575,1.5811,1.5811,1.5811,1.5811,1.59,1.5996,1.5996,1.6085,1.6083,1.6083,1.6083,1.6083,1.6083,1.6083,1.5988,1.5811,1.5811,1.5811,1.5811,1.575,1.5689,1.5593,1.5593,1.5593,1.5593,1.5593,1.5533,1.5499,1.5499,1.5445,1.5364,1.5364,1.5364,1.5364,1.5364,1.5364,1.5364,1.5364,1.5364,1.535,1.5289,1.5276,1.5262,1.5201,1.5181,1.5181,1.5181,1.5181,1.5181,1.5181,1.6713,1.7732,1.6572,1.7312,1.8338,1.9166,1.8617,1.8795,2.0788,2.2126,2.3606,2.5594,2.5867,2.6152,2.6936,2.6981,2.6981,2.6981,2.6981,2.6981,2.6981,2.6981,2.6981,2.6981,2.6981,2.6981,2.6981,2.6981,2.6981,2.6981,2.6981,2.6981,2.6981,2.6981,2.6981,1.4496,1.4599,1.4755,1.495,1.5086,1.5181,1.5181,1.5181,1.5181,1.5181,1.5181,1.5181,1.5181,1.5181,1.5187,1.5201,1.5201,1.5255,1.5411,1.5445,1.5499,1.5593,1.5621,1.573,1.5908,1.5922,1.5983,1.6069,1.6083,1.6083,1.6083,1.6083,1.6083,1.6083,1.6083,1.6083,1.6083,1.6083,1.6083,1.6083,1.6083,1.6083,1.6083,1.6083,1.6083,1.6076,1.5983,1.5798,1.5634,1.5634,1.5634,1.5634,1.5634,1.5621,1.5607,1.5607,1.56,1.5593,1.5593,1.5593,1.5593,1.5593,1.5593,1.5593,1.5593,1.5593,1.556,1.5472,1.5432,1.5398,1.5262,1.5221,1.5221,1.5221,1.5201,1.5181,1.5181,1.6572,1.7825,1.7825,1.7825,1.8478,2.0464,1.9306,1.8795,2.0788,2.1121,2.1757,2.3606,2.3835,2.4476,2.6288,2.6618,2.6755,2.6755,2.6891,2.6981,2.6981,2.6981,2.6981,2.6981,2.6981,2.6981,2.6981,2.6981,2.6981,2.6981,2.68,2.6845,2.6981,2.6618,2.6561,1.4606,1.4801,1.4957,1.5099,1.516,1.5181,1.5181,1.5181,1.5181,1.5181,1.5181,1.5181,1.5181,1.5181,1.5221,1.5343,1.5364,1.5411,1.5519,1.5689,1.582,1.5854,1.5913,1.6001,1.6029,1.6085,1.6049,1.6083,1.6083,1.6083,1.6083,1.6083,1.6083,1.6083,1.6083,1.6083,1.6083,1.6083,1.6083,1.6083,1.6083,1.6083,1.6083,1.6083,1.6083,1.6083,1.6049,1.6015,1.5988,1.5988,1.5988,1.5988,1.5988,1.5913,1.5854,1.5854,1.5737,1.5593,1.5593,1.5593,1.5593,1.5593,1.5593,1.5593,1.5593,1.5593,1.5587,1.5553,1.5539,1.5533,1.5499,1.5492,1.5492,1.5492,1.5357,1.5181,1.5181,1.5509,1.583,1.583,1.583,1.6432,1.8431,1.8384,1.8795,2.0788,2.1121,2.1259,2.1665,2.1757,2.1896,2.232,2.379,2.4704,2.4704,2.6106,2.6981,2.6981,2.6981,2.6981,2.6981,2.6981,2.6981,2.6981,2.6981,2.6981,2.6981,2.5457,2.5503,2.6936,2.3835,2.3193,1.4654,1.4855,1.5051,1.5147,1.5181,1.5181,1.5181,1.5181,1.5181,1.5181,1.5181,1.5181,1.5181,1.5242,1.5316,1.5398,1.5472,1.5574,1.5723,1.5805,1.5928,1.6003,1.6085,1.6083,1.6083,1.6083,1.6083,1.6083,1.6083,1.6083,1.6083,1.6083,1.6083,1.6083,1.6083,1.6083,1.6083,1.6083,1.6083,1.6083,1.6083,1.6083,1.6083,1.6083,1.6083,1.6083,1.6083,1.6083,1.6083,1.6083,1.6083,1.6083,1.6083,1.6085,1.601,1.601,1.5913,1.5852,1.5852,1.5852,1.5852,1.5852,1.5852,1.5852,1.5852,1.5852,1.5839,1.5764,1.5744,1.5723,1.5607,1.5593,1.5593,1.5593,1.5459,1.5289,1.5289,1.5235,1.5181,1.5181,1.5181,1.5509,1.6526,1.6713,1.7087,1.8105,1.8291,1.8617,1.9538,1.9677,2.0048,2.0973,2.2034,2.2678,2.2678,2.3606,2.4167,2.4167,2.4167,2.4167,2.4167,2.4167,2.4624,2.5594,2.467,2.4167,2.4167,2.3148,2.3193,2.4121,2.2044,2.1665,1.4694,1.4889,1.5085,1.5153,1.5181,1.5181,1.5181,1.5181,1.5181,1.5181,1.5181,1.5194,1.5215,1.5323,1.5425,1.5479,1.5594,1.5723,1.5922,1.5942,1.599,1.6069,1.6083,1.6083,1.6083,1.6083,1.6083,1.6083,1.6083,1.6083,1.6083,1.6083,1.6083,1.6083,1.6083,1.6083,1.6083,1.6083,1.6083,1.6083,1.6083,1.6083,1.6083,1.6083,1.6083,1.6083,1.6083,1.6083,1.6083,1.6083,1.6083,1.6083,1.6083,1.6083,1.6083,1.6083,1.6083,1.6083,1.6083,1.6083,1.6083,1.6083,1.6083,1.6083,1.6083,1.6083,1.6056,1.5976,1.5942,1.5915,1.5744,1.5668,1.5668,1.5668,1.5601,1.5479,1.5452,1.533,1.5221,1.5221,1.5201,1.5181,1.5181,1.5181,1.5181,1.5181,1.5181,1.5784,1.7406,1.7592,1.8245,1.9909,2.0372,2.0557,2.0557,2.089,2.1121,2.1121,2.1121,2.1121,2.1121,2.0751,2.1342,2.3045,2.1757,2.1121,2.1121,2.0742,2.0742,2.1065,2.0427,2.0233,1.4896,1.5045,1.516,1.5174,1.5181,1.5181,1.5181,1.5181,1.5181,1.5181,1.5181,1.5221,1.5357,1.5398,1.5493,1.5799,1.586,1.5928,1.6029,1.6049,1.6056,1.6083,1.6083,1.6083,1.6083,1.6083,1.6083,1.6083,1.6083,1.6083,1.6083,1.6083,1.6083,1.6083,1.6083,1.6083,1.6083,1.6083,1.6083,1.6083,1.6083,1.6083,1.6083,1.6083,1.6083,1.6083,1.6083,1.6083,1.6083,1.6083,1.6083,1.6083,1.6083,1.6083,1.6083,1.6083,1.6083,1.6083,1.6083,1.6083,1.6083,1.6083,1.6083,1.6083,1.6083,1.6083,1.6076,1.6056,1.6049,1.6049,1.6029,1.6022,1.6022,1.6022,1.5906,1.5813,1.5587,1.5486,1.5377,1.5377,1.5276,1.5181,1.5181,1.5181,1.5181,1.5181,1.5181,1.5275,1.5556,1.5603,1.569,1.5971,1.7499,1.8524,1.8524,2.0094,2.1121,2.1121,2.1121,2.1121,2.1121,1.9445,1.8609,1.8888,2.0325,2.1121,2.1121,1.9352,1.9398,2.1028,1.7592,1.69,1.5052,1.518,1.5181,1.5181,1.5181,1.5181,1.5181,1.5181,1.5208,1.5296,1.5309,1.533,1.5398,1.5547,1.5751,1.5881,1.5976,1.6051,1.6076,1.6083,1.6083,1.6083,1.6083,1.6083,1.6083,1.6083,1.6083,1.6083,1.6083,1.6083,1.6083,1.6083,1.6083,1.6083,1.6083,1.6083,1.6083,1.6083,1.6083,1.6083,1.6083,1.6083,1.6083,1.6083,1.6083,1.6083,1.6083,1.6083,1.6083,1.6083,1.6083,1.6083,1.6083,1.6083,1.6083,1.6083,1.6083,1.6083,1.6083,1.6083,1.6083,1.6083,1.6083,1.6083,1.6083,1.6083,1.6083,1.6083,1.6083,1.6083,1.6083,1.6083,1.6083,1.6083,1.6029,1.601,1.59,1.5703,1.5492,1.5492,1.5411,1.5309,1.5309,1.5242,1.5181,1.5181,1.5181,1.5181,1.5181,1.5181,1.5181,1.5181,1.5971,1.6479,1.6479,1.7273,1.7779,1.7779,1.7779,1.7779,1.7779,1.6946,1.6479,1.6479,1.732,1.7779,1.7779,1.69,1.6946,1.7732,1.6018,1.565,1.5153,1.5181,1.5181,1.5181,1.5181,1.5181,1.5181,1.5215,1.5269,1.5391,1.5472,1.5527,1.5527,1.5751,1.5915,1.5956,1.6008,1.6083,1.6083,1.6083,1.6083,1.6083,1.6083,1.6083,1.6083,1.6083,1.6083,1.6083,1.6083,1.6083,1.6083,1.6083,1.6083,1.6083,1.6083,1.6083,1.6083,1.6083,1.6083,1.6083,1.6083,1.6083,1.6083,1.6083,1.6083,1.6083,1.6083,1.6083,1.6083,1.6083,1.6083,1.6083,1.6083,1.6083,1.6083,1.6083,1.6083,1.6083,1.6083,1.6083,1.6083,1.6083,1.6083,1.6083,1.6083,1.6083,1.6083,1.6083,1.6083,1.6083,1.6083,1.6083,1.6083,1.6083,1.6083,1.6069,1.6085,1.5852,1.5683,1.56,1.5499,1.5466,1.5466,1.5343,1.5242,1.5242,1.5208,1.5181,1.5181,1.5181,1.5181,1.5181,1.5181,1.5181,1.5181,1.5181,1.5181,1.5181,1.5181,1.5181,1.5181,1.5181,1.5181,1.5181,1.5181,1.5181,1.5181,1.5181,1.5181,1.5181,1.5181,1.5181,1.5181,1.5181,1.5181,1.5181,1.5181,1.5181,1.5181,1.5296,1.5404,1.5411,1.5635,1.5881,1.5881,1.5894,1.5949,1.6049,1.6076,1.6083,1.6083,1.6083,1.6083,1.6083,1.6083,1.6083,1.6083,1.6083,1.6083,1.6083,1.6083,1.6083,1.6083,1.6083,1.6083,1.6083,1.6083,1.6083,1.6083,1.6083,1.6083,1.6083,1.6083,1.6083,1.6083,1.6083,1.6083,1.6083,1.6083,1.6083,1.6083,1.6083,1.6083,1.6083,1.6083,1.6083,1.6083,1.6083,1.6083,1.6083,1.6083,1.6083,1.6083,1.6083,1.6083,1.6083,1.6083,1.6083,1.6083,1.6083,1.6083,1.6083,1.6083,1.6083,1.6083,1.6083,1.6083,1.6092,1.5949,1.5901,1.5854,1.5621,1.5587,1.558,1.558,1.5499,1.5398,1.5398,1.5276,1.5181,1.5181,1.5181,1.5181,1.5181,1.5181,1.5181,1.5181,1.5181,1.5181,1.5181,1.5181,1.5181,1.5181,1.5181,1.5181,1.5181,1.5181,1.5181,1.5181,1.5181,1.5181,1.5181,1.5181,1.5181,1.5181,1.5181,1.5181,1.5181,1.5181,1.5181,1.5181,1.5303,1.5438,1.5492,1.5716,1.5935,1.603,1.6051,1.6015,1.6076,1.6083,1.6083,1.6083,1.6083,1.6083,1.6083,1.6083,1.6083,1.6083,1.6083,1.6083,1.6083,1.6083,1.6083,1.6083,1.6083,1.6083,1.6083,1.6083,1.6083,1.6083,1.6083,1.6083,1.6083,1.6083,1.6083,1.6083,1.6083,1.6083,1.6083,1.6083,1.6083,1.6083,1.6083,1.6083,1.6083,1.6083,1.6083,1.6083,1.6083,1.6083,1.6083,1.6083,1.6083,1.6083,1.6083,1.6083,1.6083,1.6083,1.6083,1.6083,1.6083,1.6083,1.6083,1.6083,1.6083,1.6083,1.6083,1.6083,1.6069,1.6058,1.6051,1.6037,1.5934,1.5845,1.5778,1.5778,1.5655,1.552,1.5425,1.5364,1.5296,1.5194,1.5181,1.5181,1.5181,1.5181,1.5181,1.5181,1.5181,1.5181,1.5181,1.5181,1.5181,1.5181,1.5181,1.5181,1.5181,1.5181,1.5181,1.5181,1.5181,1.5181,1.5181,1.5181,1.5181,1.5181,1.5181,1.5181,1.5181,1.5181,1.5194,1.5248,1.5377,1.5533,1.5683,1.5825,1.601,1.6062,1.6083,1.6083,1.6083,1.6083,1.6083,1.6083,1.6083,1.6083,1.6083,1.6083,1.6083,1.6083,1.6083,1.6083,1.6083,1.6083,1.6083,1.6083,1.6083,1.6083,1.6083,1.6083,1.6083,1.6083,1.6083,1.6083,1.6083,1.6083,1.6083,1.6083,1.6083,1.6083,1.6083,1.6083,1.6083,1.6083,1.6083,1.6083,1.6083,1.6083,1.6083,1.6083,1.6083,1.6083,1.6083,1.6083,1.6083,1.6083,1.6083,1.6083,1.6083,1.6083,1.6083,1.6083,1.6083,1.6083,1.6083,1.6083,1.6083,1.6083,1.6083,1.6083,1.6083,1.6083,1.6083,1.6083,1.6083,1.6051,1.5983,1.5983,1.5805,1.5676,1.5574,1.552,1.5432,1.5276,1.5262,1.5242,1.5187,1.5181,1.5181,1.5181,1.5181,1.5181,1.5181,1.5181,1.5181,1.5181,1.5181,1.5181,1.5181,1.5181,1.5181,1.5181,1.5181,1.5181,1.5181,1.5181,1.5181,0.0,0.0,0.0,1.5181,1.5181,1.5221,1.5377,1.5479,1.5683,1.5874,1.6024,1.6083,1.6083,1.6083,1.6083,1.6083,1.6083,1.6083,1.6083,1.6083,1.6083,1.6083,1.6083,1.6083,1.6083,1.6083,1.6083,1.6083,1.6083,1.6083,1.6083,1.6083,1.6083,1.6083,1.6083,1.6083,1.6083,1.6083,1.6083,1.6083,1.6083,1.6083,1.6083,1.6083,1.6083,1.6083,1.6083,1.6083,1.6083,1.6083,1.6083,1.6083,1.6083,1.6083,1.6083,1.6083,1.6083,1.6083,1.6083,1.6083,1.6083,1.6083,1.6083,1.6083,1.6083,1.6083,1.6083,1.6083,1.6083,1.6083,1.6083,1.6083,1.6083,1.6083,1.6083,1.6083,1.6083,1.6083,1.6083,1.6083,1.6083,1.6083,1.6083,1.601,1.5908,1.5901,1.5737,1.5539,1.5438,1.5418,1.5357,1.5208,1.5187,1.5187,1.5181,1.5181,1.5181,1.5181,1.5181,1.5181,1.5181,1.5181,1.5181,1.5181,1.5181,1.5181,1.5181,1.5181,1.5181,1.5181,1.5181,1.5181,1.5153,0.0,0.0,0.0,0.0,0.0,1.5377,1.5479,1.5683,1.5874,1.6024,1.6083,1.6083,1.6083,1.6083,1.6083,1.6083,1.6083,1.6083,1.6083,1.6083,1.6083,1.6083,1.6083,1.6083,1.6083,1.6083,1.6083,1.6083,1.6083,1.6083,1.6083,1.6083,1.6083,1.6083,1.6083,1.6083,1.6083,1.6083,1.6083,1.6083,1.6083,1.6083,1.6083,1.6083,1.6083,1.6083,1.6083,1.6083,1.6083,1.6083,1.6083,1.6083,1.6083,1.6083,1.6083,1.6083,1.6083,1.6083,1.6083,1.6083,1.6083,1.6083,1.6083,1.6083,1.6083,1.6083,1.6083,1.6083,1.6083,1.6083,1.6083,1.6083,1.6083,1.6083,1.6083,1.6083,1.6083,1.6083,1.6083,1.6083,1.6083,1.6083,1.6049,1.603,1.5915,1.5867,1.5744,1.5546,1.5526,1.5472,1.5364,1.535,1.5303,1.5194,1.5181,1.5181,1.5181,1.5181,1.5181,1.5181,1.5181,1.5181,1.5181,1.5181,1.5181,1.5181,1.5181,1.5181,1.5181,1.5181,1.5181,0.0,0.0,1.5181,1.5181,0.0,0.0,1.5459,1.5526,1.5648,1.5906,1.6071,1.6083,1.6083,1.6083,1.6083,1.6083,1.6083,1.6083,1.6083,1.6083,1.6083,1.6083,1.6083,1.6083,1.6083,1.6083,1.6083,1.6083,1.6083,1.6083,1.6083,1.6083,1.6083,1.6083,1.6083,1.6083,1.6083,1.6083,1.6083,1.6083,1.6083,1.6083,1.6083,1.6083,1.6083,1.6083,1.6083,1.6083,1.6083,1.6083,1.6083,1.6083,1.6083,1.6083,1.6083,1.6083,1.6083,1.6083,1.6083,1.6083,1.6083,1.6083,1.6083,1.6083,1.6083,1.6083,1.6083,1.6083,1.6083,1.6083,1.6083,1.6083,1.6083,1.6083,1.6083,1.6083,1.6083,1.6083,1.6083,1.6083,1.6083,1.6083,1.6083,1.6083,1.6049,1.601,1.5996,1.5942,1.575,1.573,1.5669,1.552,1.5452,1.5371,1.5289,1.5221,1.5181,1.5181,1.5181,1.5181,1.5181,1.5181,1.5181,1.5181,1.5181,1.5181,1.5181,1.5181,1.5181,1.5181,1.5181,1.5181,0.0,0.0,0.0,1.5181,1.5181,0.0,1.5499,1.558,1.5668,1.6001,1.6069,1.6083,1.6083,1.6083,1.6083,1.6083,1.6083,1.6083,1.6083,1.6083,1.6083,1.6083,1.6083,1.6083,1.6083,1.6083,1.6083,1.6083,1.6083,1.6083,1.6083,1.6083,1.6083,1.6083,1.6083,1.6083,1.6083,1.6083,1.6083,1.6083,1.6083,1.6083,1.6083,1.6083,1.6083,1.6083,1.6083,1.6083,1.6083,1.6083,1.6083,1.6083,1.6083,1.6083,1.6083,1.6083,1.6083,1.6083,1.6083,1.6083,1.6083,1.6083,1.6083,1.6083,1.6083,1.6083,1.6083,1.6083,1.6083,1.6083,1.6083,1.6083,1.6083,1.6083,1.6083,1.6083,1.6083,1.6083,1.6083,1.6083,1.6083,1.6083,1.6083,1.6083,1.6083,1.6083,1.6083,1.6085,1.5942,1.5928,1.5874,1.5627,1.554,1.5452,1.5438,1.5296,1.5208,1.5208,1.5194,1.5181,1.5181,1.5181,1.5181,1.5181,1.5181,1.5181,1.5181,1.5181,1.5181,1.5181,1.5181,1.5181,1.5153,1.5181,1.5181,1.5181,1.5181,0.0,1.5411,1.5506,1.5641,1.5908,1.5995,1.6083,1.6083,1.6083,1.6083,1.6083,1.6083,1.6083,1.6083,1.6083,1.6083,1.6083,1.6083,1.6083,1.6083,1.6083,1.6083,1.6083,1.6083,1.6083,1.6083,1.6083,1.6083,1.6083,1.6083,1.6083,1.6083,1.6083,1.6083,1.6083,1.6083,1.6083,1.6083,1.6083,1.6083,1.6083,1.6083,1.6083,1.6083,1.6083,1.6083,1.6083,1.6083,1.6083,1.6083,1.6083,1.6083,1.6083,1.6083,1.6083,1.6083,1.6083,1.6083,1.6083,1.6083,1.6083,1.6083,1.6083,1.6083,1.6083,1.6083,1.6083,1.6083,1.6083,1.6083,1.6083,1.6083,1.6083,1.6083,1.6083,1.6083,1.6083,1.6083,1.6083,1.6083,1.6083,1.6083,1.6069,1.6042,1.6035,1.5981,1.5874,1.5833,1.5723,1.5553,1.5452,1.5364,1.5364,1.5248,1.5181,1.5181,1.5181,1.5181,1.5181,1.5181,1.5181,1.5181,1.5181,1.5181,1.5181,1.5181,1.5181,1.516,1.5181,1.5181,1.5181,1.5181,0.0,0.0,1.5539,1.5703,1.592,1.6029,1.6083,1.6083,1.6083,1.6083,1.6083,1.6083,1.6083,1.6083,1.6083,1.6083,1.6083,1.6083,1.6083,1.6083,1.6083,1.6083,1.6083,1.6083,1.6083,1.6083,1.6083,1.6083,1.6083,1.6083,1.6083,1.6083,1.6083,1.6083,1.6083,1.6083,1.6083,1.6083,1.6083,1.6083,1.6083,1.6083,1.6083,1.6083,1.6083,1.6083,1.6083,1.6083,1.6083,1.6083,1.6083,1.6083,1.6083,1.6083,1.6083,1.6083,1.6083,1.6083,1.6083,1.6083,1.6083,1.6083,1.6083,1.6083,1.6083,1.6083,1.6083,1.6083,1.6083,1.6083,1.6083,1.6083,1.6083,1.6083,1.6083,1.6083,1.6083,1.6083,1.6083,1.6083,1.6083,1.6083,1.6083,1.6083,1.6083,1.6049,1.6024,1.5949,1.5874,1.575,1.5608,1.5493,1.5418,1.5337,1.5262,1.5187,1.5181,1.5181,1.5181,1.5181,1.5181,1.5181,1.5181,1.5181,1.5181,1.5181,1.5181,1.5181,1.5181,1.5181,1.5181,1.5208,1.5289,0.0,0.0,0.0,1.5988,1.6062,1.6083,1.6083,1.6083,1.6076,1.6092,1.6062,1.6069,1.6092,1.6062,1.6083,1.6083,1.6083,1.6083,1.6083,1.6083,1.6083,1.6083,1.6083,1.6083,1.6083,1.6083,1.6083,1.6083,1.6083,1.6083,1.6083,1.6083,1.6083,1.6083,1.6083,1.6096,1.6123,1.6123,1.6137,1.6164,1.6164,1.6164,1.6164,1.6137,1.6123,1.6123,1.6096,1.6083,1.6083,1.6083,1.6083,1.6083,1.6083,1.6083,1.6083,1.6083,1.6083,1.6083,1.6083,1.6083,1.6083,1.6083,1.6083,1.6083,1.6083,1.6083,1.6083,1.6083,1.6083,1.6083,1.6083,1.6083,1.6083,1.6083,1.6083,1.6083,1.6083,1.6083,1.6083,1.6083,1.6083,1.6083,1.6083,1.6083,1.6083,1.6083,1.6017,1.5949,1.5949,1.5764,1.5628,1.5506,1.5445,1.5357,1.5228,1.5201,1.5181,1.5181,1.5181,1.5181,1.5181,1.5181,1.5181,1.5181,1.5181,1.5181,1.5181,1.5181,1.5181,1.5181,1.5282,1.5391,1.5432,0.0,1.5888,1.5922,0.0,1.6083,1.6083,0.0,0.0,1.5949,1.6044,1.6085,1.5949,1.6044,1.6083,1.6083,1.6083,1.6083,1.6083,1.6083,1.6083,1.6083,1.6083,1.6083,1.6083,1.6083,1.6083,1.6083,1.6083,1.6083,1.6083,1.6083,1.6083,1.6083,1.6083,1.6151,1.6286,1.6286,1.6354,1.6469,1.6469,1.6469,1.6463,1.6334,1.6286,1.6273,1.6137,1.6083,1.6083,1.6083,1.6083,1.6083,1.6083,1.6083,1.6083,1.6083,1.6083,1.6083,1.6083,1.6083,1.6083,1.6083,1.6083,1.6083,1.6083,1.6083,1.6083,1.6083,1.6083,1.6083,1.6083,1.6083,1.6083,1.6083,1.6083,1.6083,1.6083,1.6083,1.6083,1.6083,1.6083,1.6083,1.6083,1.6083,1.6083,1.6083,1.6069,1.6056,1.6056,1.5962,1.5867,1.5854,1.5554,1.5404,1.5384,1.5255,1.5181,1.5181,1.5181,1.5181,1.5181,1.5181,1.5181,1.5181,1.5181,1.5181,1.5445,1.5445,1.5445,1.5445,1.5445,1.5567,1.5649,1.5813,1.5928,1.6017,0.0,0.0,0.0,0.0,0.0,0.0,1.6042,1.6056,1.5995,1.6042,1.6083,1.6083,1.6083,1.6083,1.6083,1.6083,1.6083,1.6083,1.6083,1.6083,1.6083,1.6083,1.6083,1.6083,1.6083,1.6083,1.6083,1.6083,1.6083,1.6083,1.6171,1.6246,1.6313,1.6395,1.6463,1.6524,1.6524,1.6524,1.6517,1.6456,1.6435,1.6415,1.6273,1.6157,1.6083,1.6083,1.6083,1.6083,1.6083,1.6083,1.6083,1.6083,1.6083,1.6083,1.6083,1.6083,1.6083,1.6083,1.6083,1.6083,1.6083,1.6083,1.6083,1.6083,1.6083,1.6083,1.6083,1.6083,1.6083,1.6083,1.6083,1.6083,1.6083,1.6083,1.6083,1.6083,1.6083,1.6083,1.6083,1.6083,1.6083,1.6083,1.6083,1.6083,1.6083,1.6071,1.5996,1.5908,1.5574,1.5371,1.5282,1.5215,1.5181,1.5181,1.5181,1.5181,1.5181,1.5181,1.5181,1.5181,1.5181,1.5181,1.5593,1.5593,1.5593,1.5593,1.5621,1.5723,1.5881,1.5935,1.5996,1.6056,1.6083,0.0,0.0,0.0,1.6069,1.6029,0.0,1.6069,1.6029,1.6056,1.6083,1.6083,1.6083,1.6083,1.6083,1.6083,1.6083,1.6083,1.6083,1.6083,1.6083,1.6083,1.6083,1.6083,1.6083,1.6083,1.6083,1.6083,1.6103,1.6144,1.6259,1.6354,1.6435,1.6486,1.6554,1.6646,1.6646,1.6646,1.6646,1.6598,1.6533,1.652,1.6422,1.63,1.6191,1.611,1.6083,1.6083,1.6083,1.6083,1.6083,1.6083,1.6083,1.6083,1.6083,1.6083,1.6083,1.6083,1.6083,1.6083,1.6083,1.6083,1.6083,1.6083,1.6083,1.6083,1.6083,1.6083,1.6083,1.6083,1.6083,1.6083,1.6083,1.6083,1.6083,1.6083,1.6083,1.6083,1.6083,1.6083,1.6083,1.6083,1.6083,1.6083,1.6083,1.6083,1.6015,1.5915,1.5649,1.5445,1.5255,1.5248,1.5221,1.5181,1.5181,1.5181,1.5181,1.5181,1.5181,1.5181,1.5181,1.5181,1.5593,1.5593,1.5593,1.5593,1.5744,1.5894,1.5901,1.6017,1.6076,1.6083,1.6083,1.6083,1.6083,1.6083,0.0,0.0,1.6037,0.0,0.0,1.6037,1.6083,1.6083,1.6083,1.6083,1.6083,1.6083,1.6083,1.6083,1.6083,1.6083,1.6083,1.6083,1.6083,1.6083,1.6083,1.6083,1.6083,1.6083,1.6157,1.63,1.6307,1.6463,1.6682,1.6689,1.6822,1.6965,1.6965,1.6965,1.6951,1.675,1.6689,1.6675,1.6571,1.651,1.6469,1.6185,1.6083,1.6083,1.6083,1.6083,1.6083,1.6083,1.6083,1.6083,1.6083,1.6083,1.6083,1.6083,1.6083,1.6083,1.6083,1.6083,1.6083,1.6083,1.6083,1.6083,1.6083,1.6083,1.6083,1.6083,1.6083,1.6083,1.6083,1.6083,1.6083,1.6083,1.6083,1.6083,1.6083,1.6083,1.6083,1.6083,1.6083,1.6083,1.6083,1.6083,1.6015,1.5915,1.5894,1.5758,1.5418,1.5404,1.5337,1.5187,1.5181,1.5181,1.5181,1.5181,1.5181,1.5181,1.5181,1.5181,1.5934,1.5934,1.5934,1.5934,1.5967,1.6051,1.6051,1.6092,1.6083,1.6083,1.6083,1.6083,1.6083,1.6083,0.0,0.0,0.0,1.6062,0.0,1.6049,1.6083,1.6083,1.6083,1.6083,1.6083,1.6083,1.6083,1.6083,1.6083,1.6083,1.6083,1.6083,1.6083,1.6083,1.6083,1.6083,1.6083,1.6083,1.6157,1.6313,1.6402,1.6558,1.6702,1.6856,1.6931,1.6978,1.6978,1.6978,1.6978,1.6924,1.6904,1.689,1.6682,1.6621,1.6594,1.6449,1.6313,1.6218,1.6117,1.6083,1.6083,1.6083,1.6083,1.6083,1.6083,1.6083,1.6083,1.6083,1.6083,1.6083,1.6083,1.6083,1.6083,1.6083,1.6083,1.6083,1.6083,1.6083,1.6083,1.6083,1.6083,1.6083,1.6083,1.6083,1.6083,1.6083,1.6083,1.6083,1.6083,1.6083,1.6083,1.6083,1.6083,1.6083,1.6083,1.6083,1.6015,1.5915,1.5901,1.5772,1.5425,1.5411,1.5337,1.5187,1.5181,1.5181,1.5181,1.5181,1.5181,1.5181,1.5181,1.5181,1.6083,1.6083,1.6083,1.6083,1.6083,1.6083,1.6083,1.6083,1.6083,1.6083,1.6083,1.6083,1.6083,1.6083,1.6083,0.0,0.0,0.0,0.0,1.6083,1.6083,1.6083,1.6083,1.6083,1.6083,1.6083,1.6083,1.6083,1.6083,1.6083,1.6083,1.6083,1.6083,1.6083,1.6083,1.6083,1.6083,1.6083,1.6185,1.6388,1.6476,1.6632,1.6836,1.6937,1.6978,1.6978,1.6978,1.6978,1.6978,1.6978,1.6978,1.6971,1.687,1.6829,1.6757,1.6598,1.6429,1.6293,1.6198,1.613,1.6083,1.6083,1.6083,1.6083,1.6083,1.6083,1.6103,1.6212,1.6164,1.6103,1.6212,1.6157,1.6083,1.6083,1.6083,1.6083,1.6083,1.6083,1.6083,1.6083,1.6083,1.6083,1.6083,1.6083,1.6083,1.6083,1.6083,1.6083,1.6083,1.6083,1.6083,1.6083,1.6083,1.6083,1.6083,1.6083,1.6042,1.599,1.5983,1.5874,1.5581,1.552,1.5466,1.5473,1.5309,1.5235,1.5343,1.5235,1.5181,1.5181,1.5181,1.5181]},{"header":{"parameterUnit":"m.s-1","parameterCategory":1,"la1":30.6,"la2":29.2853,"lo1":-89.7004,"lo2":-87.6739,"dy":0.0162,"dx":0.0183,"nx":112,"ny":82,"refTime":"2023-04-21T06:00:00:Z","depth":0,"parameterNumber":3,"parameterNumberName":"V-component_of_WINDS"},"data":[0.0,0.0,0.0,0.0,0.0,0.0,0.0,0.0,0.0,0.0,0.0,0.0,0.0,0.0,0.0,0.0,0.0,0.0,0.0,0.0,0.0,0.0,0.0,0.0,0.0,0.0,0.0,0.0,0.0,0.0,0.0,0.0,0.0,0.0,0.0,0.0,0.0,0.0,0.0,0.0,0.0,0.0,0.0,0.0,0.0,0.0,0.0,0.0,0.0,0.0,0.0,0.0,0.0,0.0,0.0,0.0,0.0,0.0,0.0,0.0,0.0,0.0,0.0,0.0,0.0,0.0,0.0,0.0,0.0,0.0,0.0,0.0,0.0,0.0,0.0,0.0,0.0,0.0,0.0,0.0,0.0,0.0,0.0,0.0,0.0,0.0,0.0,0.0,0.0,0.0,4.825,4.7968,4.8108,4.8275,4.8382,4.865,4.8659,4.8296,0.0,0.0,0.0,0.0,0.0,0.0,0.0,0.0,0.0,0.0,0.0,0.0,0.0,0.0,0.0,0.0,0.0,0.0,0.0,0.0,0.0,0.0,0.0,0.0,0.0,0.0,0.0,0.0,0.0,0.0,0.0,0.0,0.0,0.0,0.0,0.0,0.0,0.0,0.0,0.0,0.0,0.0,0.0,0.0,0.0,0.0,0.0,0.0,0.0,0.0,0.0,0.0,0.0,0.0,0.0,0.0,0.0,0.0,0.0,0.0,0.0,0.0,0.0,0.0,0.0,0.0,0.0,0.0,0.0,0.0,0.0,0.0,0.0,0.0,0.0,0.0,0.0,0.0,0.0,0.0,0.0,0.0,0.0,0.0,0.0,0.0,0.0,0.0,0.0,0.0,0.0,0.0,0.0,0.0,0.0,0.0,0.0,0.0,0.0,0.0,0.0,0.0,0.0,0.0,4.8246,4.8229,4.8258,4.8383,4.8693,4.9015,4.9064,4.8729,0.0,0.0,0.0,0.0,0.0,0.0,0.0,0.0,0.0,0.0,0.0,0.0,0.0,0.0,0.0,0.0,0.0,0.0,0.0,0.0,0.0,0.0,0.0,0.0,0.0,0.0,0.0,0.0,0.0,0.0,0.0,0.0,0.0,0.0,0.0,0.0,0.0,0.0,0.0,0.0,0.0,0.0,0.0,0.0,0.0,0.0,0.0,0.0,0.0,0.0,0.0,0.0,0.0,0.0,0.0,0.0,0.0,0.0,0.0,0.0,0.0,0.0,0.0,0.0,0.0,0.0,0.0,0.0,0.0,0.0,0.0,0.0,0.0,0.0,0.0,0.0,0.0,0.0,0.0,0.0,0.0,0.0,0.0,0.0,0.0,0.0,0.0,0.0,0.0,0.0,0.0,0.0,0.0,0.0,0.0,0.0,0.0,0.0,0.0,0.0,0.0,0.0,0.0,4.8429,4.8363,4.8816,4.8676,4.8702,4.904,4.9386,4.9356,4.8842,4.9064,0.0,0.0,0.0,0.0,0.0,0.0,0.0,0.0,0.0,0.0,0.0,0.0,0.0,0.0,0.0,0.0,0.0,0.0,0.0,0.0,0.0,0.0,0.0,0.0,0.0,0.0,0.0,0.0,0.0,0.0,0.0,0.0,0.0,0.0,0.0,0.0,0.0,0.0,0.0,0.0,0.0,0.0,0.0,0.0,0.0,0.0,0.0,0.0,0.0,0.0,0.0,0.0,0.0,0.0,0.0,0.0,0.0,0.0,0.0,0.0,0.0,0.0,0.0,0.0,0.0,0.0,0.0,0.0,0.0,0.0,0.0,0.0,0.0,0.0,0.0,0.0,0.0,0.0,0.0,0.0,0.0,0.0,0.0,0.0,0.0,0.0,0.0,0.0,0.0,0.0,0.0,0.0,0.0,0.0,0.0,0.0,0.0,0.0,0.0,0.0,0.0,0.0,4.8668,4.8596,4.924,4.899,4.8957,4.9394,4.9641,4.957,4.9056,4.9512,0.0,0.0,0.0,0.0,0.0,0.0,0.0,0.0,0.0,0.0,0.0,0.0,0.0,0.0,0.0,0.0,0.0,0.0,0.0,0.0,0.0,0.0,0.0,0.0,0.0,0.0,0.0,0.0,0.0,0.0,0.0,0.0,0.0,0.0,0.0,0.0,0.0,0.0,0.0,0.0,0.0,0.0,0.0,0.0,0.0,0.0,0.0,0.0,0.0,0.0,0.0,0.0,0.0,0.0,0.0,0.0,0.0,0.0,0.0,0.0,0.0,0.0,0.0,0.0,0.0,0.0,0.0,0.0,0.0,0.0,0.0,0.0,0.0,0.0,0.0,0.0,0.0,0.0,0.0,0.0,0.0,0.0,0.0,0.0,0.0,0.0,0.0,0.0,0.0,0.0,0.0,0.0,0.0,0.0,0.0,0.0,0.0,0.0,0.0,0.0,0.0,0.0,4.879,4.8919,4.9271,4.899,4.9056,4.9728,4.9797,4.979,4.9749,4.9783,0.0,0.0,0.0,0.0,0.0,0.0,0.0,0.0,0.0,0.0,0.0,0.0,0.0,0.0,0.0,0.0,0.0,0.0,0.0,0.0,0.0,0.0,0.0,0.0,0.0,0.0,0.0,0.0,0.0,0.0,0.0,0.0,0.0,0.0,0.0,0.0,0.0,0.0,0.0,0.0,0.0,0.0,0.0,0.0,0.0,0.0,0.0,0.0,0.0,0.0,0.0,0.0,0.0,0.0,0.0,0.0,0.0,0.0,0.0,0.0,0.0,0.0,0.0,0.0,0.0,0.0,0.0,0.0,0.0,0.0,0.0,0.0,0.0,0.0,0.0,0.0,0.0,0.0,0.0,0.0,0.0,0.0,0.0,0.0,0.0,0.0,0.0,0.0,0.0,0.0,0.0,0.0,0.0,0.0,0.0,0.0,0.0,0.0,0.0,0.0,0.0,0.0,4.924,4.9325,4.9864,4.9613,4.9599,5.0069,5.01,5.0032,4.9817,0.0,0.0,0.0,0.0,0.0,0.0,0.0,0.0,0.0,0.0,0.0,0.0,0.0,0.0,0.0,0.0,0.0,0.0,0.0,0.0,0.0,0.0,0.0,0.0,0.0,0.0,0.0,0.0,0.0,0.0,0.0,0.0,0.0,0.0,0.0,0.0,0.0,0.0,0.0,0.0,0.0,0.0,0.0,0.0,0.0,0.0,0.0,0.0,0.0,0.0,0.0,0.0,0.0,0.0,0.0,0.0,0.0,0.0,0.0,0.0,0.0,0.0,0.0,0.0,0.0,0.0,0.0,0.0,0.0,0.0,0.0,0.0,0.0,0.0,0.0,0.0,0.0,0.0,0.0,0.0,0.0,0.0,0.0,0.0,0.0,0.0,0.0,0.0,0.0,0.0,0.0,0.0,0.0,0.0,0.0,0.0,0.0,0.0,0.0,0.0,0.0,0.0,4.9783,4.9592,4.9662,5.0236,5.0012,4.9923,5.0259,5.0283,5.0206,4.9949,0.0,0.0,0.0,0.0,0.0,0.0,0.0,0.0,0.0,0.0,0.0,0.0,0.0,0.0,0.0,0.0,0.0,0.0,0.0,0.0,0.0,0.0,0.0,0.0,0.0,0.0,0.0,0.0,0.0,0.0,0.0,0.0,0.0,0.0,0.0,0.0,0.0,0.0,0.0,0.0,0.0,0.0,0.0,0.0,0.0,0.0,0.0,0.0,0.0,0.0,0.0,0.0,0.0,0.0,0.0,0.0,0.0,0.0,0.0,0.0,0.0,0.0,0.0,0.0,0.0,0.0,0.0,0.0,0.0,0.0,0.0,0.0,0.0,0.0,0.0,0.0,0.0,0.0,0.0,0.0,0.0,0.0,0.0,0.0,0.0,0.0,0.0,0.0,0.0,0.0,0.0,0.0,0.0,0.0,0.0,0.0,0.0,0.0,0.0,0.0,0.0,0.0,4.981,4.981,4.9916,5.0253,5.0012,4.9923,5.0259,5.0283,5.0283,0.0,0.0,0.0,0.0,0.0,0.0,0.0,0.0,0.0,0.0,0.0,0.0,0.0,0.0,0.0,0.0,0.0,0.0,0.0,0.0,0.0,0.0,0.0,0.0,0.0,0.0,0.0,0.0,0.0,0.0,0.0,0.0,0.0,0.0,0.0,0.0,0.0,0.0,0.0,0.0,0.0,0.0,0.0,0.0,0.0,0.0,0.0,0.0,0.0,0.0,0.0,0.0,0.0,0.0,0.0,0.0,0.0,0.0,0.0,0.0,0.0,0.0,0.0,0.0,0.0,0.0,0.0,0.0,0.0,0.0,0.0,0.0,0.0,0.0,0.0,0.0,0.0,0.0,0.0,0.0,0.0,0.0,0.0,0.0,0.0,0.0,0.0,0.0,0.0,0.0,0.0,0.0,0.0,0.0,0.0,0.0,0.0,0.0,0.0,0.0,0.0,0.0,0.0,5.0131,5.0131,5.02,5.0271,5.0218,5.02,5.0277,5.0283,5.0283,5.0283,0.0,0.0,0.0,0.0,0.0,0.0,0.0,0.0,0.0,0.0,0.0,0.0,0.0,0.0,0.0,0.0,0.0,0.0,0.0,0.0,0.0,0.0,0.0,0.0,0.0,0.0,0.0,0.0,0.0,0.0,0.0,0.0,0.0,0.0,0.0,0.0,0.0,0.0,0.0,0.0,0.0,0.0,0.0,0.0,0.0,0.0,0.0,0.0,0.0,0.0,0.0,0.0,0.0,0.0,0.0,0.0,0.0,0.0,0.0,0.0,0.0,0.0,0.0,0.0,0.0,0.0,0.0,0.0,0.0,0.0,0.0,0.0,0.0,0.0,0.0,0.0,0.0,0.0,0.0,0.0,0.0,0.0,0.0,0.0,0.0,0.0,0.0,0.0,0.0,0.0,0.0,0.0,0.0,0.0,0.0,0.0,0.0,0.0,0.0,0.0,0.0,0.0,5.0283,5.0283,5.0283,5.0283,5.0283,5.0283,5.0283,5.0283,5.0283,5.0283,0.0,0.0,0.0,0.0,0.0,0.0,0.0,0.0,0.0,0.0,0.0,0.0,0.0,0.0,0.0,0.0,0.0,0.0,0.0,0.0,0.0,0.0,0.0,0.0,0.0,0.0,0.0,0.0,0.0,0.0,0.0,0.0,0.0,0.0,0.0,0.0,0.0,0.0,0.0,0.0,0.0,0.0,0.0,0.0,0.0,0.0,0.0,0.0,0.0,0.0,0.0,0.0,0.0,0.0,0.0,0.0,0.0,0.0,0.0,0.0,0.0,0.0,0.0,0.0,0.0,0.0,0.0,0.0,0.0,0.0,0.0,0.0,0.0,0.0,0.0,0.0,0.0,0.0,0.0,0.0,0.0,0.0,0.0,0.0,0.0,0.0,0.0,0.0,0.0,0.0,0.0,0.0,0.0,0.0,0.0,0.0,0.0,0.0,0.0,0.0,0.0,0.0,5.055,5.055,5.055,5.055,5.055,5.055,5.055,5.055,5.055,5.055,0.0,0.0,0.0,0.0,0.0,0.0,0.0,0.0,0.0,0.0,0.0,0.0,0.0,0.0,0.0,0.0,0.0,0.0,0.0,0.0,0.0,0.0,0.0,0.0,0.0,0.0,0.0,0.0,0.0,0.0,0.0,0.0,0.0,0.0,0.0,0.0,0.0,0.0,0.0,0.0,0.0,0.0,0.0,0.0,0.0,0.0,0.0,0.0,0.0,0.0,0.0,0.0,0.0,0.0,0.0,0.0,0.0,0.0,0.0,0.0,6.0949,6.0862,0.0,0.0,0.0,0.0,0.0,0.0,0.0,0.0,0.0,0.0,0.0,0.0,0.0,0.0,0.0,0.0,0.0,0.0,0.0,0.0,0.0,0.0,0.0,0.0,0.0,0.0,0.0,0.0,0.0,0.0,0.0,0.0,0.0,0.0,0.0,0.0,0.0,0.0,0.0,0.0,5.2276,5.2276,5.2276,5.2276,5.2276,5.2276,5.2276,5.2276,5.2276,5.2276,5.2276,0.0,0.0,0.0,0.0,0.0,0.0,0.0,0.0,0.0,0.0,0.0,0.0,0.0,0.0,0.0,0.0,0.0,0.0,0.0,0.0,0.0,0.0,0.0,0.0,0.0,0.0,0.0,0.0,0.0,0.0,0.0,0.0,0.0,0.0,0.0,0.0,0.0,0.0,0.0,0.0,0.0,0.0,0.0,0.0,0.0,0.0,0.0,0.0,0.0,0.0,0.0,0.0,0.0,0.0,0.0,0.0,0.0,0.0,0.0,6.11,6.1057,0.0,0.0,0.0,0.0,0.0,0.0,0.0,0.0,0.0,0.0,0.0,0.0,0.0,0.0,0.0,0.0,0.0,0.0,0.0,0.0,0.0,0.0,0.0,0.0,0.0,0.0,0.0,0.0,0.0,0.0,0.0,0.0,0.0,0.0,0.0,0.0,0.0,0.0,0.0,0.0,5.2811,5.2811,5.2811,5.2811,5.2811,5.2811,5.2811,5.2811,5.2827,5.2948,5.2954,0.0,0.0,0.0,0.0,0.0,0.0,0.0,0.0,0.0,0.0,0.0,0.0,0.0,0.0,0.0,0.0,0.0,0.0,0.0,0.0,0.0,0.0,0.0,0.0,0.0,0.0,0.0,0.0,0.0,0.0,0.0,0.0,0.0,0.0,0.0,0.0,0.0,0.0,0.0,0.0,0.0,0.0,0.0,0.0,0.0,0.0,0.0,0.0,0.0,0.0,0.0,0.0,0.0,6.1352,6.1344,6.1344,6.1344,6.1306,6.1199,6.1199,6.1165,6.1107,6.1174,0.0,0.0,0.0,0.0,0.0,0.0,0.0,0.0,0.0,0.0,0.0,0.0,0.0,0.0,0.0,0.0,0.0,0.0,0.0,0.0,0.0,0.0,5.7733,5.7588,5.7536,5.7104,5.5699,0.0,0.0,0.0,0.0,0.0,0.0,0.0,0.0,0.0,0.0,0.0,5.3269,5.3269,5.3269,5.3269,5.3269,5.3269,5.3269,5.3274,5.3347,5.3544,5.3556,5.358,0.0,0.0,0.0,0.0,0.0,0.0,0.0,0.0,0.0,0.0,0.0,0.0,0.0,0.0,0.0,0.0,0.0,0.0,0.0,0.0,0.0,0.0,0.0,0.0,0.0,0.0,0.0,0.0,0.0,0.0,0.0,0.0,6.1607,6.1607,0.0,0.0,0.0,0.0,0.0,0.0,0.0,0.0,0.0,0.0,0.0,0.0,0.0,6.1394,6.1388,6.1275,6.124,6.124,6.1156,6.1155,6.1155,6.1155,6.115,6.1098,6.1098,0.0,6.1199,6.113,0.0,0.0,0.0,0.0,0.0,0.0,0.0,0.0,0.0,0.0,0.0,0.0,0.0,0.0,0.0,0.0,0.0,0.0,0.0,0.0,0.0,0.0,5.8371,5.7612,5.7415,5.7361,5.7134,5.6648,5.5995,5.5241,5.5095,5.5154,0.0,0.0,0.0,0.0,0.0,0.0,5.5052,5.5052,5.5052,5.5052,5.5052,5.5052,5.5052,5.5151,5.5248,5.528,5.5417,5.5213,5.4477,5.4438,0.0,0.0,0.0,0.0,0.0,0.0,0.0,0.0,0.0,0.0,0.0,0.0,0.0,0.0,0.0,0.0,0.0,0.0,0.0,0.0,0.0,0.0,0.0,0.0,0.0,0.0,0.0,0.0,0.0,6.1583,6.1573,6.1605,6.158,6.1575,0.0,0.0,0.0,0.0,0.0,0.0,0.0,0.0,0.0,6.1283,6.1279,6.1256,6.1246,6.1165,6.1143,6.1143,6.1098,6.1118,6.1118,6.1118,6.1118,6.1118,6.1118,6.1102,6.1143,6.1156,6.1152,6.1143,0.0,0.0,0.0,0.0,6.1036,6.0972,6.0972,6.0925,6.0823,6.0823,0.0,0.0,0.0,0.0,0.0,0.0,0.0,6.0121,5.9558,5.9435,5.9305,5.8916,5.8794,5.868,5.8226,5.7901,5.743,5.6601,5.6492,5.639,5.6002,5.5939,0.0,0.0,0.0,5.5396,5.5396,5.5396,5.5396,5.5396,5.5396,5.5422,5.5497,5.5566,5.5696,5.5917,5.6037,5.5962,5.5662,5.5665,5.5513,0.0,0.0,0.0,0.0,0.0,0.0,0.0,0.0,0.0,0.0,0.0,0.0,0.0,0.0,0.0,0.0,0.0,0.0,0.0,0.0,0.0,0.0,0.0,0.0,0.0,0.0,0.0,0.0,6.1512,6.1507,6.1602,6.1546,6.1484,0.0,0.0,0.0,0.0,0.0,0.0,6.1666,6.1895,6.1974,6.1849,6.1845,6.181,6.1776,6.1776,6.1776,6.1776,6.1776,6.1776,6.1776,6.1776,6.1776,6.1776,6.1776,6.1776,6.1742,6.135,6.1143,6.1084,6.1161,6.1143,6.1118,6.1118,6.1118,6.1118,6.1118,6.1118,6.1118,6.1118,6.0972,6.079,6.079,0.0,0.0,0.0,0.0,6.0292,6.0045,5.9982,5.9966,5.991,5.9893,5.9742,5.9135,5.9038,5.872,5.7696,5.7521,5.7398,5.6854,5.6768,0.0,5.6083,5.6039,5.6046,5.6046,5.6078,5.6122,5.6122,5.6151,5.623,5.6326,5.6387,5.6502,5.6825,5.687,5.697,5.7126,5.7117,5.7108,5.7108,0.0,0.0,0.0,0.0,0.0,0.0,0.0,0.0,0.0,0.0,0.0,0.0,0.0,0.0,0.0,0.0,0.0,0.0,0.0,0.0,0.0,0.0,0.0,0.0,0.0,0.0,0.0,0.0,0.0,6.1602,6.1472,0.0,0.0,0.0,0.0,6.1391,6.2122,6.2513,6.2469,6.3236,6.3662,6.3574,6.3569,6.3565,6.356,6.356,6.356,6.356,6.356,6.356,6.356,6.356,6.356,6.356,6.356,6.356,6.3444,6.178,6.1084,6.1118,6.1084,6.1084,6.1118,6.1118,6.1118,6.1118,6.1118,6.1118,6.1118,6.1118,6.0972,6.079,6.079,6.054,0.0,0.0,6.0068,5.9918,5.9902,5.9902,5.9902,5.9893,5.9893,5.9893,5.9856,5.9882,5.942,5.771,5.7399,5.7423,5.7468,0.0,5.7539,5.7579,5.7686,5.7772,5.7772,5.7931,5.8044,5.8044,5.8211,5.8337,5.8346,5.8451,5.8538,5.8551,5.8743,5.8877,5.8882,5.8792,5.876,5.876,5.8694,0.0,0.0,0.0,0.0,0.0,0.0,0.0,0.0,0.0,0.0,0.0,0.0,0.0,0.0,0.0,0.0,0.0,0.0,0.0,0.0,0.0,0.0,0.0,0.0,0.0,0.0,0.0,0.0,6.3074,6.2998,0.0,6.3037,6.2979,6.2928,6.2928,6.315,6.33,6.3264,6.3573,6.3714,6.3719,6.3715,6.3715,6.3715,6.3715,6.3715,6.3715,6.3715,6.3715,6.3715,6.3715,6.3715,6.3715,6.3715,6.3715,6.3637,6.3018,6.2786,6.2786,6.2786,6.2433,6.1926,6.1926,6.1577,6.1118,6.1118,6.1118,6.1118,6.1118,6.1041,6.0992,6.0992,6.0876,6.0756,6.0633,6.0443,6.0244,6.0136,5.9983,5.9893,5.9893,5.9893,5.9893,5.9893,5.9918,5.9736,5.9143,5.9023,5.8919,5.8418,5.8372,5.8182,5.7715,5.7801,5.7914,5.7914,5.8082,5.8215,5.8215,5.8325,5.8442,5.8497,5.8568,5.8686,5.8771,5.8817,5.8883,5.8883,5.8859,5.8846,5.8846,5.8771,5.8731,0.0,0.0,0.0,0.0,0.0,0.0,0.0,0.0,0.0,0.0,0.0,0.0,0.0,0.0,0.0,0.0,0.0,0.0,0.0,0.0,0.0,0.0,0.0,0.0,0.0,6.3847,6.3804,6.3887,6.38,6.38,6.3849,6.3817,6.3765,6.3765,6.3985,6.414,6.414,6.4411,6.4527,6.4527,6.4527,6.4527,6.4527,6.4527,6.4527,6.4527,6.4527,6.4527,6.4527,6.4527,6.4527,6.4527,6.4527,6.4527,6.4527,6.4527,6.4527,6.4488,6.3908,6.3366,6.2859,6.2859,6.2472,6.1969,6.1969,6.1969,6.1969,6.1969,6.1969,6.1969,6.1969,6.1664,6.1323,6.1162,6.0744,6.0251,6.0144,5.9983,5.9893,5.9893,5.9893,5.9893,5.9893,5.9893,5.9893,5.9893,5.9934,5.9784,5.9253,5.92,5.9003,5.8479,5.8634,5.8795,5.8795,5.9015,5.9176,5.9176,5.9317,5.9422,5.9473,5.953,5.9579,5.9661,5.9664,5.9664,5.9664,5.964,5.9625,5.9625,5.9545,5.9499,5.9499,0.0,0.0,0.0,0.0,0.0,0.0,0.0,0.0,0.0,0.0,0.0,0.0,0.0,0.0,0.0,0.0,0.0,0.0,0.0,0.0,0.0,0.0,0.0,6.3985,6.3882,6.3916,6.3957,6.3865,6.3792,6.3873,6.3806,6.3792,6.3792,6.4566,6.503,6.503,6.576,6.6185,6.6185,6.6185,6.6185,6.6185,6.6185,6.6185,6.6185,6.6185,6.6185,6.6185,6.6185,6.6185,6.6185,6.6185,6.6185,6.6185,6.6185,6.6185,6.6031,6.4411,6.3753,6.3753,6.3753,6.3715,6.3715,6.3715,6.3715,6.3715,6.3715,6.3715,6.3715,6.3715,6.2838,6.1851,6.1844,6.0948,5.9994,5.9985,5.9977,5.9969,5.9969,5.9969,5.9969,5.9969,5.9969,5.9969,5.9931,5.9931,5.9931,5.9893,5.9966,6.0021,6.0021,6.0299,0.0,6.0493,6.0845,6.1079,6.1079,6.1248,6.1342,6.1303,6.1303,6.1303,6.1303,6.1303,6.1303,6.1303,6.1186,6.1138,6.1177,6.1125,6.1118,6.1118,0.0,0.0,0.0,0.0,0.0,0.0,0.0,0.0,0.0,0.0,0.0,0.0,0.0,0.0,0.0,0.0,0.0,0.0,0.0,0.0,0.0,6.5876,6.577,6.5562,6.5529,6.5538,6.5567,6.5524,6.5499,6.5529,6.5504,6.5489,6.5489,6.5721,6.5876,6.5876,6.6069,6.6185,6.6185,6.6185,6.6185,6.6185,6.6185,6.6185,6.6185,6.6185,6.6185,6.6185,6.6185,6.6185,6.6185,6.6185,6.6185,6.6185,6.6185,6.6185,6.6147,6.5682,6.5146,6.4643,6.4643,6.4256,6.3715,6.3715,6.3715,6.3715,6.3715,6.3715,6.3715,6.3715,6.3467,6.3136,6.295,6.2535,6.2128,6.1987,6.1807,6.1696,6.1696,6.1696,6.1696,6.1696,6.1696,6.1515,6.0879,6.0765,6.0576,6.0007,6.003,6.0159,6.0159,6.0463,6.0731,6.0731,6.0941,6.0886,6.0306,6.0303,6.0115,5.943,5.9402,5.9409,5.9387,5.9383,5.9383,5.9383,5.9319,5.9615,6.023,6.0822,6.1118,0.0,0.0,0.0,0.0,0.0,0.0,0.0,0.0,0.0,0.0,0.0,0.0,0.0,0.0,0.0,0.0,0.0,0.0,0.0,0.0,0.0,0.0,6.6185,6.6185,6.6185,6.6185,6.6185,6.6185,6.6185,6.6185,6.6185,6.5915,6.5682,6.5682,6.5992,6.6185,6.6185,6.6882,6.7307,6.7307,6.692,6.6727,6.6727,6.6379,6.6185,6.6185,6.6185,6.6185,6.6185,6.6185,6.6185,6.6185,6.6185,6.6185,6.6185,6.6185,6.5992,6.5721,0.0,0.0,0.0,0.0,6.5185,6.4759,6.4759,6.4759,6.4759,6.4759,6.4675,6.4618,6.4618,6.3979,6.3249,6.3086,6.24,6.1658,6.1545,6.1432,6.1363,6.1363,6.1363,6.1363,6.1363,6.1363,6.1245,6.0789,6.0737,0.0,6.022,6.0196,6.0187,6.0187,6.0552,6.079,6.079,6.0982,6.0925,6.046,6.0437,6.0252,5.9696,5.9697,0.0,0.0,0.0,5.9648,5.9648,5.9648,0.0,0.0,0.0,6.0615,6.0615,6.0228,0.0,0.0,6.0925,6.1118,0.0,0.0,0.0,0.0,0.0,0.0,0.0,0.0,0.0,0.0,0.0,0.0,0.0,0.0,0.0,0.0,6.6417,6.6495,6.6495,6.6495,6.6456,6.6379,6.6417,6.6495,6.6495,6.5837,6.5417,6.5417,6.6069,6.6495,6.6495,6.796,0.0,0.0,0.0,6.7655,6.7655,6.6882,6.6495,6.6495,6.6495,6.6495,6.6495,6.6495,6.6495,6.6495,6.6495,6.6495,6.6495,6.6495,6.6069,6.5455,6.5799,6.5915,6.5915,6.5915,6.5915,6.5915,6.5915,0.0,0.0,6.5915,6.5815,6.5641,6.5623,6.4301,6.2786,6.2696,6.1491,6.0199,6.0205,6.0197,6.0197,6.0197,6.0197,6.0197,6.0197,6.0197,6.0224,6.0296,6.0303,6.033,6.043,6.0356,6.0265,6.0265,6.0602,6.0861,6.0977,6.1147,6.1234,6.1234,6.1234,0.0,6.1118,6.1118,6.1118,6.1118,6.1118,6.1118,6.1118,6.1195,6.1234,6.1234,6.0654,6.0349,6.0349,5.9537,5.9575,6.0349,6.077,6.1002,0.0,0.0,0.0,0.0,0.0,0.0,0.0,0.0,0.0,0.0,0.0,0.0,0.0,0.0,0.0,6.7268,6.7849,6.8308,6.8308,6.8308,6.8037,6.7346,6.7887,6.8308,6.8308,6.8153,6.8081,6.8081,6.8192,6.8308,6.8308,6.8617,6.881,6.881,6.8656,6.854,6.854,6.8385,6.8308,6.8308,6.8308,0.0,6.8308,6.8308,6.8308,6.8308,6.8308,6.8308,6.8308,6.8308,6.8192,6.781,6.5185,6.4179,6.4179,6.4179,6.4179,6.4179,6.4179,6.4179,6.4179,6.4179,6.4159,6.4108,6.3935,6.3572,0.0,6.2823,6.2452,6.2139,6.1953,6.1924,6.1924,6.1924,6.1924,6.1924,6.1924,6.1924,6.1713,6.1058,6.0915,6.0767,6.033,6.0502,6.0686,6.0686,6.091,6.1302,6.1998,6.21,6.2158,6.2158,6.2158,6.1848,6.1157,6.1118,6.1118,6.1118,6.1118,6.1118,6.1118,6.1771,6.2158,6.2158,6.2709,6.298,6.2941,6.2786,6.2786,6.2902,6.1007,6.046,0.0,0.0,0.0,0.0,0.0,0.0,0.0,0.0,0.0,0.0,0.0,6.6843,6.6843,0.0,6.8153,6.8153,6.8501,6.881,6.881,6.9164,6.9087,6.823,6.854,6.881,6.881,6.8424,6.8153,6.8153,6.854,6.881,6.881,6.9589,7.0054,7.0054,6.9628,6.9396,6.9396,6.9004,6.881,6.881,6.881,6.881,6.881,6.881,6.881,6.881,6.881,6.881,6.8772,6.8346,6.8153,6.7926,6.5799,6.5223,6.5533,6.5107,6.4952,6.4952,6.4952,6.4952,6.4938,6.4816,6.4729,6.4618,6.4371,6.3922,6.3441,6.3236,6.2859,6.2523,6.2412,6.2416,6.2416,6.2416,6.2075,6.1743,6.1743,6.15,6.121,6.0874,6.0876,6.0876,6.0665,6.0812,6.0931,6.0806,6.0977,6.1273,6.1693,6.1732,6.1732,6.1732,6.1732,6.1577,6.1157,6.15,6.1732,6.1732,6.2162,6.2399,6.2399,6.282,6.3052,6.3052,6.3052,6.3052,6.3052,6.2627,6.2627,6.3013,6.1737,6.1582,0.0,0.0,0.0,0.0,0.0,0.0,0.0,6.6456,6.6495,6.6688,6.7268,6.7771,6.7771,6.8468,6.9087,6.9275,6.9429,6.9584,6.9777,7.0363,7.0518,6.9855,6.9507,6.9275,6.9275,6.8661,6.8236,6.8236,6.8893,6.9275,6.9275,7.0556,7.1297,7.1297,7.0639,7.0252,7.0252,6.9628,6.9275,6.9275,6.9275,6.9275,6.9275,6.9275,6.9275,6.9275,6.9275,6.9275,6.9236,6.8545,6.8236,6.8158,6.7268,6.7384,6.7849,6.665,6.6185,6.6185,6.6185,6.6185,6.6165,6.6024,6.5838,6.5665,6.5388,6.4725,6.4055,6.4005,6.3499,6.2964,6.2964,6.2914,6.2909,6.2909,6.2349,6.1827,6.1827,6.1459,6.1156,6.1329,6.1544,6.1745,6.196,6.2017,6.1775,6.0976,6.0997,6.1157,6.135,6.135,6.1427,6.1582,6.1621,6.1621,6.1621,6.224,6.2704,6.2893,6.356,6.4024,6.4179,6.4179,6.4179,6.4179,6.3516,6.3125,6.3125,6.2433,6.2433,6.3125,6.3125,6.3323,6.622,6.6215,6.62,6.619,6.6185,6.6417,0.0,6.7346,6.7578,6.8346,6.8578,6.8656,6.8656,6.9319,7.0136,7.0905,7.1678,7.2452,7.3226,7.3419,7.3419,7.3342,7.1949,7.1021,7.1021,7.0943,7.0866,7.0866,7.0982,7.1021,7.1021,7.1214,7.1297,7.1297,7.1219,7.1142,7.1142,7.1059,7.1021,7.1021,7.1021,7.1021,7.1021,7.1021,7.1021,7.1021,7.1021,7.1021,7.1021,7.0905,7.0866,7.0789,6.9904,6.9633,6.944,6.7075,6.6185,6.6185,6.6185,6.6185,6.6185,6.6165,6.6144,6.6102,6.5887,6.5743,6.5615,6.5437,6.5191,6.4977,6.4977,6.4782,6.4623,6.4623,6.4547,6.4471,6.4471,6.4413,6.4372,6.4398,6.4638,6.4862,6.5074,6.523,6.4387,6.15,6.1104,6.1389,6.2158,6.2235,6.2549,6.3328,6.3405,6.3405,6.3405,6.3482,6.3869,6.4643,6.4798,6.5185,6.5876,6.5915,6.5915,6.5915,6.5837,6.576,6.576,6.5682,6.5682,6.576,6.576,6.503,6.6959,6.7346,6.7578,6.7075,6.7346,6.781,6.8153,6.8269,6.8346,6.8733,6.9589,7.0247,7.0247,7.1369,7.2375,7.2761,7.3109,7.3496,7.3844,7.3883,7.3883,7.3883,7.3264,7.28,7.28,7.28,7.28,7.28,7.28,7.28,7.28,7.28,7.28,7.28,7.28,7.28,7.28,7.28,7.28,7.28,7.28,7.28,7.28,7.28,7.28,7.28,7.28,7.28,7.28,7.28,7.28,7.2761,7.2413,7.2258,7.191,6.8854,6.7694,6.7694,6.7694,6.7625,6.7479,6.7332,6.7205,6.7055,6.6827,6.6758,6.678,6.6676,6.6607,6.6522,6.6522,6.6427,6.6374,6.6501,6.6163,6.5871,6.6031,6.5749,6.5492,6.5492,6.5678,6.5844,6.5916,6.6036,6.561,6.428,6.4058,6.4213,6.4561,6.4599,6.4754,6.5107,6.5146,6.5146,6.5146,6.561,6.6069,6.6417,6.6456,6.6611,6.6959,6.6456,6.6185,6.6185,6.6185,6.6185,6.6185,6.6185,6.6185,6.6185,6.6185,6.5837,6.7849,6.8308,6.8656,6.7998,6.8346,6.8849,6.9087,6.9319,6.9551,6.9816,7.0982,7.2026,7.2026,7.3032,7.396,7.4187,7.4226,7.4309,7.4541,7.4579,7.4579,7.4579,7.4579,7.4579,7.4579,7.4154,7.3883,7.3883,7.3883,7.3883,7.3883,7.3883,7.3883,7.3883,7.3883,7.3883,7.3883,7.3883,7.3883,7.3883,7.3883,7.3883,7.3883,7.3883,7.3883,7.3883,7.3883,7.3883,7.3883,7.3883,7.3883,7.3883,7.3883,7.3883,7.3612,7.1131,7.017,7.0087,7.0087,6.9924,6.9686,6.9532,6.9352,6.9169,6.9022,6.8961,6.8961,6.8961,6.8908,6.8845,6.8845,6.8819,6.881,6.8979,6.8545,6.821,6.8472,6.815,6.7813,6.7879,6.8046,6.8199,6.8199,6.8088,6.7965,6.7965,6.7771,6.7268,6.6301,6.6185,6.6185,6.6185,6.6185,6.6185,6.6185,6.6766,6.723,6.7501,6.7501,6.7617,6.7849,6.7268,6.692,6.692,6.692,6.692,6.692,6.692,6.692,6.692,6.6905,6.6824,6.8772,6.8772,6.8772,6.8772,6.8772,6.9004,6.9788,7.0639,7.1446,7.2297,7.3187,7.3806,7.3806,7.3844,7.4154,7.4922,7.5076,7.5347,7.621,7.6326,7.6326,7.6326,7.6326,7.6326,7.6326,7.485,7.3883,7.3883,7.3883,7.3883,7.3883,7.3883,7.3883,7.3883,7.3883,7.3883,7.3883,7.3883,7.3883,7.3883,7.3883,7.3883,7.3883,7.3883,7.3883,7.3883,7.3883,7.3883,7.3883,7.3883,7.3883,7.3883,7.3883,7.3883,7.3883,7.3767,7.3566,7.3348,7.3348,7.3164,7.2962,7.2954,7.2947,7.2939,7.2931,7.2931,7.2931,7.2931,7.2753,7.2547,7.2547,7.2386,7.2261,7.2261,7.2233,7.2272,7.2577,7.26,7.2648,7.2839,7.3115,7.3266,7.3266,7.28,7.2413,7.2413,7.1678,6.9938,6.6611,6.6185,6.6185,6.6185,6.6185,6.6185,6.6185,6.6224,6.6611,6.7462,6.7501,6.7887,6.8733,6.8733,6.8733,6.8733,6.8733,6.8733,6.8733,6.8733,6.8733,6.8733,6.8635,6.8402,6.9744,7.0015,7.044,7.044,7.0905,7.1523,7.2375,7.28,7.3109,7.3419,7.411,7.469,7.469,7.516,7.5856,7.6707,7.6823,7.7132,7.7983,7.8138,7.8138,7.8138,7.8138,7.8138,7.8138,7.6552,7.5546,7.5546,7.5546,7.5546,7.5546,7.5546,7.5546,7.5546,7.5546,7.5546,7.5546,7.5546,7.5546,7.5546,7.5546,7.5546,7.5546,7.5546,7.5546,7.5546,7.5546,7.5546,7.5546,7.5546,7.5437,7.5272,7.5272,7.5186,7.5014,7.5014,7.4896,7.4569,7.3776,7.331,7.3054,7.2868,7.2856,7.2902,7.2902,7.2773,7.2666,7.2851,7.2702,7.2557,7.272,7.274,7.2729,7.3053,7.3139,7.32,7.3461,7.3547,7.3567,7.3601,7.3708,7.3751,7.3751,7.3611,7.3458,7.3458,7.222,7.0866,6.9744,6.9589,6.9589,6.9589,6.9589,6.9589,6.9589,6.9589,6.9705,7.0015,6.9473,6.928,6.9589,6.9087,6.881,6.881,6.881,6.881,6.881,6.881,6.881,6.881,6.8712,6.8473,7.1065,7.1562,7.222,7.222,7.2645,7.3226,7.3767,7.411,7.4342,7.4342,7.5005,7.5662,7.5966,7.6475,7.7138,7.8022,7.8177,7.837,7.8912,7.8989,7.8989,7.8989,7.8989,7.8989,7.8989,7.7983,7.7332,7.7332,7.7332,7.7332,7.7332,7.7332,7.7332,7.7332,7.7332,7.7332,7.7332,7.7332,7.7332,7.7332,7.7332,7.7332,7.7332,7.7332,7.7332,7.7332,7.7332,7.7332,7.7332,7.7332,7.7214,7.706,7.706,7.6973,7.6806,7.6806,7.6592,7.6118,7.4665,7.3972,7.3721,7.3533,7.3516,7.3563,7.3563,7.3431,7.3314,7.3507,7.3421,7.3314,7.3516,7.3563,7.3644,7.4059,7.4151,7.424,7.4571,7.4666,7.469,7.4761,7.4773,7.4773,7.4773,7.4541,7.4226,7.396,7.2955,7.222,7.222,7.222,7.222,7.222,7.222,7.222,7.222,7.222,7.222,7.222,7.1407,7.0949,7.0949,7.0131,6.9695,6.9673,6.9673,6.9662,6.9634,6.9634,6.955,6.9423,6.9361,6.8999,7.2684,7.3264,7.3922,7.396,7.396,7.396,7.4038,7.4612,7.5154,7.5154,7.5817,7.6674,7.7519,7.7713,7.7983,7.8912,7.9067,7.9067,7.9105,7.9144,7.9144,7.9144,7.9144,7.9144,7.9144,7.9144,7.9144,7.9144,7.9067,7.8989,7.8989,7.8989,7.8989,7.8989,7.8989,7.8989,7.8989,7.8989,7.8989,7.8989,7.8989,7.8989,7.8989,7.8989,7.8989,7.8989,7.8989,7.8983,7.8971,7.8971,7.8971,7.8959,7.8946,7.8946,7.8946,7.8934,7.8594,7.7918,7.6041,7.5266,7.5067,7.5046,7.5056,7.5067,7.5067,7.5056,7.5046,7.5018,7.5056,7.5046,7.5018,7.5067,7.5109,7.5379,7.5414,7.5489,7.5945,7.6006,7.6081,7.6311,7.6397,7.6403,7.6403,7.5701,7.4922,7.4148,7.4032,7.3999,7.3922,7.3883,7.3883,7.3883,7.3883,7.3883,7.3883,7.3883,7.3916,7.3916,7.3104,7.2678,7.2673,7.1866,7.1374,7.1317,7.1317,7.1282,7.1215,7.1203,7.0984,7.0554,7.0455,6.9995,7.3574,7.3728,7.4038,7.4651,7.4806,7.496,7.5624,7.5933,7.6049,7.6049,7.6249,7.6674,7.7519,7.7713,7.8177,7.9647,7.9879,8.0111,8.0762,8.084,8.084,8.084,8.084,8.084,8.084,8.084,8.084,8.084,7.9724,7.8989,7.8989,7.8989,7.8989,7.8989,7.8989,7.8989,7.8989,7.8989,7.8989,7.8989,7.8989,7.8989,7.8989,7.8989,7.8989,7.8989,7.8989,7.8902,7.8717,7.8717,7.858,7.8362,7.816,7.8131,7.8075,7.7891,7.7713,7.7518,7.7058,7.6938,7.7026,7.6834,7.6916,7.7065,7.7065,7.6908,7.6804,7.6997,7.6936,7.6804,7.7007,7.7065,7.7103,7.7308,7.6926,7.65,7.6639,7.6315,7.6034,7.6088,7.6262,7.6403,7.6403,7.621,7.5999,7.5713,7.5711,7.5314,7.4077,7.3883,7.3883,7.3883,7.3883,7.3883,7.3883,7.3883,7.386,7.3819,7.3626,7.3487,7.3432,7.32,7.3072,7.306,7.306,7.3047,7.3028,7.2692,7.2156,7.1475,7.1036,7.0252,7.4419,7.4695,7.5121,7.5546,7.5662,7.5817,7.6287,7.6403,7.6403,7.6403,7.6713,7.7254,7.8099,7.8564,7.9221,8.0569,8.0762,8.0956,8.142,8.1497,8.1497,8.1497,8.1497,8.1497,8.1497,8.1497,8.1497,8.1497,8.0646,8.0105,8.0105,8.0105,8.0105,8.0105,8.0105,8.0105,8.0105,8.008,8.0067,8.0061,8.0036,8.0023,8.0016,7.9811,7.9818,8.0003,7.9591,7.9423,7.9453,7.927,7.9079,7.8919,7.879,7.8723,7.8713,7.8562,7.8435,7.8333,7.8333,7.8328,7.8274,7.7613,7.7483,7.7624,7.7624,7.7503,7.7438,7.7574,7.7541,7.7469,7.7722,7.7798,7.79,7.822,7.797,7.7685,7.7753,7.7523,7.7259,7.7186,7.7318,7.7395,7.7395,7.7395,7.7383,7.7344,7.7409,7.7086,7.6114,7.5404,7.4952,7.4922,7.4916,7.4916,7.4916,7.4916,7.4904,7.4867,7.4481,7.4269,7.4224,7.3877,7.3574,7.3332,7.3332,7.3245,7.3053,7.2779,7.233,7.1711,7.1415,7.0798,7.527,7.5817,7.6442,7.6558,7.6481,7.6442,7.6674,7.6674,7.6597,7.6713,7.7365,7.8138,7.8989,7.9724,8.0492,8.1343,8.1497,8.1497,8.1497,8.1491,8.1485,8.1485,8.1478,8.1472,8.1472,8.1472,8.1472,8.1472,8.1472,8.1472,8.1485,8.1478,8.1472,8.1472,8.1472,8.1472,8.1472,8.1414,8.138,8.138,8.1319,8.1284,8.1277,8.0884,8.0907,8.1256,8.044,8.0314,8.063,8.0182,8.0038,8.0038,7.9929,7.9919,7.9949,7.9847,7.9654,7.9453,7.9453,7.9281,7.8927,7.7964,7.7641,7.7641,7.7641,7.7641,7.7641,7.7641,7.7641,7.7678,7.789,7.7969,7.8104,7.8549,7.8615,7.8646,7.8816,7.8822,7.8824,7.8706,7.8699,7.8699,7.8699,7.8699,7.8699,7.8686,7.8693,7.8693,7.8672,7.7473,7.6611,7.6546,7.6539,7.65,7.6385,7.6385,7.6308,7.6179,7.5484,7.506,7.5047,7.4391,7.378,7.3313,7.3256,7.3037,7.2632,7.2513,7.2191,7.1745,7.1715,7.141,7.6171,7.6287,7.6558,7.7293,7.6945,7.679,7.8216,7.7983,7.7674,7.8409,7.868,7.9028,7.984,8.0111,8.0492,8.1343,8.1497,8.1497,8.1497,8.1453,8.1414,8.1414,8.136,8.1326,8.1326,8.1326,8.1326,8.1326,8.1326,8.1353,8.1407,8.136,8.1326,8.1326,8.1326,8.1326,8.1326,8.1312,8.1305,8.1305,8.1291,8.1284,8.1284,8.1234,8.1234,8.1284,8.1137,8.0969,8.0855,8.0758,8.0733,8.0681,8.0061,7.9941,8.0065,7.9467,7.92,7.9177,7.9177,7.9128,7.9053,7.8876,7.8799,7.8799,7.8799,7.8799,7.8799,7.8799,7.8799,7.8812,7.8871,7.8857,7.8881,7.8972,7.8739,7.8527,7.8567,7.8538,7.8538,7.8672,7.8699,7.8699,7.8699,7.8699,7.8679,7.8616,7.8658,7.8658,7.8536,7.8374,7.8289,7.8275,7.8275,7.8005,7.7311,7.7272,7.6943,7.6156,7.5995,7.5852,7.5827,7.5666,7.556,7.5456,7.5067,7.4834,7.4745,7.4054,7.3301,7.2583,7.2235,7.1677,7.6945,7.71,7.7293,7.8177,7.8061,7.7983,7.8796,7.868,7.8486,7.8912,7.9337,7.9724,8.0143,8.0569,8.0994,8.142,8.1466,8.1446,8.1446,8.1387,8.134,8.134,8.1312,8.1477,8.194,8.1986,8.214,8.2564,8.2567,8.2189,8.1371,8.1305,8.1284,8.1284,8.1284,8.1284,8.1284,8.1287,8.1266,8.1266,8.1229,8.1207,8.1199,8.0953,8.0968,8.1192,8.0677,8.0537,8.062,8.0382,8.0123,7.9889,7.9524,7.9317,7.9161,7.8789,7.8695,7.8695,7.8695,7.8695,7.8695,7.8695,7.889,7.9116,7.9116,7.9116,7.9116,7.9116,7.9116,7.9116,7.9284,7.9293,7.9352,7.9471,7.9334,7.925,7.9474,7.9314,7.9271,7.9846,7.9754,7.9652,7.9906,7.9936,7.9921,7.9922,7.9945,7.9945,7.9877,7.993,7.9589,7.8703,7.8587,7.8433,7.8048,7.8009,7.7841,7.7389,7.7101,7.6982,7.6941,7.6297,7.5834,7.5627,7.4975,7.4533,7.4298,7.3895,7.3478,7.3093,7.2919,7.2605,7.7525,7.7829,7.8177,7.9028,7.9144,7.9105,7.9453,7.9376,7.9299,7.9492,8.0034,8.0492,8.0492,8.1033,8.1497,8.1497,8.144,8.1394,8.1394,8.1319,8.134,8.1533,8.1519,8.1858,8.2745,8.2822,8.3092,8.3709,8.3688,8.3141,8.1851,8.1781,8.1781,8.1781,8.1781,8.1781,8.1781,8.1761,8.1724,8.1724,8.1662,8.1631,8.1623,8.1265,8.1291,8.16,8.086,8.0725,8.1028,8.0475,7.9968,7.9529,7.9248,7.8841,7.8417,7.8332,7.829,7.829,7.829,7.829,7.829,7.829,7.8589,7.8941,7.8941,7.8941,7.8941,7.8941,7.8941,7.8979,7.9173,7.9244,7.9323,7.9637,7.9648,7.9777,8.0211,8.0012,7.991,8.0638,8.0512,8.0363,8.0745,8.0796,8.0796,8.0796,8.0796,8.0796,8.0796,8.0796,8.0298,7.8908,7.893,7.8984,7.8792,7.8685,7.8561,7.8377,7.7912,7.7646,7.7646,7.6688,7.5993,7.5712,7.492,7.4383,7.4036,7.3785,7.3645,7.3645,7.3497,7.3385,7.7674,7.8293,7.9067,7.9879,7.9531,7.9415,8.0917,8.0646,8.0298,8.111,8.1343,8.1381,8.1381,8.1459,8.1497,8.1497,8.144,8.1394,8.1394,8.1277,8.1491,8.2223,8.224,8.254,8.3433,8.351,8.3548,8.3625,8.3617,8.354,8.3394,8.3394,8.3394,8.3394,8.3394,8.3394,8.3394,8.3386,8.3378,8.3378,8.337,8.337,8.337,8.3338,8.3338,8.3362,8.3267,8.3259,8.3245,8.2397,8.1793,8.1241,8.007,7.9349,7.8891,7.8444,7.829,7.829,7.829,7.829,7.829,7.829,7.8318,7.8373,7.8373,7.8373,7.8373,7.8373,7.8373,7.8373,7.8414,7.8427,7.8538,7.8966,7.9076,7.9208,7.9686,7.9741,7.973,7.9815,7.9794,7.9783,7.9826,7.9826,7.9826,7.9826,7.9826,7.9826,7.9826,7.9826,7.975,7.9598,8.0355,8.0554,7.9746,7.9293,7.8708,7.7914,7.7406,7.7152,7.7152,7.7034,7.6954,7.696,7.6511,7.6264,7.6216,7.5032,7.45,7.4463,7.372,7.3385,7.832,7.9105,7.9918,8.0762,8.0699,8.0628,8.1279,8.1169,8.1002,8.1303,8.1407,8.1427,8.138,8.1374,8.1374,8.1374,8.1312,8.1263,8.1263,8.1638,8.1986,8.2301,8.2771,8.3401,8.4286,8.4362,8.4593,8.5055,8.5093,8.5093,8.5093,8.414,8.3601,8.3601,8.3601,8.3601,8.3601,8.3601,8.3601,8.3601,8.3601,8.3601,8.3601,8.3601,8.3601,8.3601,8.3601,8.3601,8.3547,8.2936,8.2378,8.1869,8.1039,8.0443,8.002,7.9823,7.9739,7.9739,7.9739,7.9442,7.9033,7.9033,7.8699,7.829,7.829,7.829,7.829,7.829,7.8498,7.866,7.8386,7.8498,7.8853,7.9303,7.943,7.9554,8.0012,7.9899,7.9868,8.0419,8.0316,8.022,8.0503,8.0549,8.0549,8.0549,8.0549,8.0549,8.0549,8.0549,8.0549,8.0549,8.0363,8.0106,7.9763,7.9568,7.9315,7.8973,7.8499,7.8226,7.8226,7.7527,7.7092,7.7092,7.6418,7.6079,7.6079,7.5572,7.5318,7.5318,7.4983,7.4834,7.8792,7.9732,8.0692,8.1311,8.1414,8.1367,8.1367,8.1367,8.1347,8.1298,8.1326,8.1347,8.1298,8.1284,8.1284,8.1284,8.1227,8.1291,8.1522,8.1993,8.2477,8.3016,8.3593,8.4324,8.517,8.5239,8.547,8.6055,8.6094,8.6094,8.6094,8.4978,8.4324,8.4324,8.4324,8.4324,8.4324,8.4324,8.4324,8.4324,8.4324,8.4324,8.4324,8.4324,8.4324,8.4324,8.4324,8.4324,8.4308,8.3736,8.3189,8.2738,8.2089,8.1558,8.1142,8.1004,8.1007,8.1115,8.0796,8.0447,8.0087,7.9907,7.9479,7.8996,7.8996,7.8699,7.829,7.829,7.8552,7.8763,7.8578,7.8633,7.8941,7.9554,7.9599,7.9621,8.0073,7.993,7.9889,8.0558,8.041,8.0297,8.062,8.0702,8.0702,8.0702,8.0702,8.0702,8.0702,8.0702,8.062,8.0474,7.9889,7.9665,8.0063,7.9982,7.9847,7.9708,7.9244,7.8916,7.8802,7.795,7.7435,7.7435,7.6841,7.6544,7.6544,7.6321,7.6172,7.6172,7.5912,7.5801,7.8889,8.0126,8.1394,8.1394,8.134,8.1291,8.1291,8.1291,8.1291,8.1284,8.1284,8.1291,8.1284,8.1284,8.1284,8.1284,8.1227,8.1484,8.2293,8.234,8.2939,8.4662,8.4893,8.5201,8.6017,8.6094,8.6094,8.6094,8.6094,8.6094,8.6094,8.6094,8.6055,8.6055,8.6055,8.6055,8.6055,8.6055,8.6055,8.6055,8.6055,8.6055,8.6055,8.6055,8.6055,8.6055,8.6055,8.6055,8.6017,8.5201,8.4612,8.4088,8.3238,8.2599,8.2138,8.1657,8.1803,8.2021,8.1048,8.1058,8.1405,8.0852,8.0705,8.0705,8.0705,7.9553,7.829,7.829,7.829,7.839,7.8866,7.8647,7.8552,7.9475,7.9338,7.9138,7.961,7.9708,7.9708,7.9719,7.9708,7.9708,7.9719,7.9719,7.9719,7.9719,7.9719,7.9719,7.9719,7.9719,7.9543,7.9064,7.8991,7.955,8.0959,8.0646,8.0172,7.973,7.9244,7.8802,7.8318,7.829,7.829,7.829,7.829,7.8253,7.8253,7.7473,7.7101,7.7064,7.6209,7.5801,7.8765,8.0014,8.1319,8.1319,8.127,8.1251,8.1251,8.1251,8.1236,8.1177,8.1214,8.1229,8.1177,8.1169,8.1169,8.1169,8.1147,8.1401,8.2209,8.284,8.3593,8.4739,8.5401,8.5824,8.6094,8.6094,8.6094,8.6094,8.6094,8.6094,8.6094,8.6094,8.6094,8.6094,8.6094,8.6094,8.6094,8.6094,8.6094,8.6094,8.6094,8.6094,8.6094,8.6094,8.6094,8.6094,8.6094,8.6094,8.6069,8.5479,8.5141,8.4967,8.4354,8.4023,8.3877,8.3753,8.38,8.3854,8.3524,8.3146,8.2775,8.2608,8.2182,8.1729,8.1729,8.09,7.9898,7.9658,7.9372,7.9179,7.9418,7.9112,7.8941,7.9554,7.9587,7.952,7.9665,7.9951,8.0073,7.9762,7.9951,8.0063,7.9751,7.9697,7.9697,7.9697,7.9697,7.9697,7.9697,7.9697,7.9643,7.9498,7.9487,7.9407,7.9196,7.9065,7.8891,7.8763,7.8618,7.8444,7.829,7.829,7.829,7.829,7.829,7.829,7.829,7.803,7.7919,7.7919,7.7658,7.7213,7.8644,7.9938,8.1249,8.1249,8.1229,8.1169,8.1169,8.1169,8.1154,8.11,8.1131,8.1154,8.11,8.1093,8.1093,8.1093,8.1362,8.1823,8.267,8.3555,8.4401,8.5247,8.5786,8.6094,8.6094,8.6094,8.6094,8.6094,8.6094,8.6094,8.6094,8.6094,8.6094,8.6094,8.6094,8.6094,8.6094,8.6094,8.6094,8.6094,8.6094,8.6094,8.6094,8.6094,8.6094,8.6094,8.6094,8.6094,0.0,8.5766,8.5675,8.5647,8.5347,8.5245,8.5225,8.5018,8.5099,8.5194,8.481,8.4468,8.4133,8.3957,8.3559,8.3153,8.3153,8.2256,8.1216,8.0992,8.0743,8.0518,8.0613,8.0304,8.0053,8.0484,8.0462,8.0382,8.0552,8.086,8.086,8.0282,8.0376,8.0403,7.9789,7.9697,7.9697,7.9697,7.9697,7.9697,7.9697,7.9697,7.9632,7.9453,7.9441,7.915,7.8373,7.8607,7.8763,7.8578,7.8578,7.8485,7.8304,7.829,7.829,7.829,7.829,7.829,7.829,7.829,7.829,7.829,7.829,7.803,0.0,7.9897,8.1207,8.1207,8.1147,8.1093,8.1093,8.1093,0.0,8.1093,8.1093,8.1093,8.1093,8.1093,8.1131,8.117,8.1823,8.2631,8.3563,8.4439,8.5239,8.6017,8.6094,8.6094,8.6094,8.6094,8.6094,8.6094,8.6094,8.6094,8.6094,8.6094,8.6094,8.6094,8.6094,8.6094,8.6094,8.6094,8.6094,8.6094,8.6094,8.6094,8.6094,8.6094,8.6094,8.6094,8.6094,8.6094,8.6094,8.6094,8.6094,8.6094,8.6094,8.6094,8.6052,8.5628,8.5721,8.5992,8.512,8.511,8.5387,8.4931,8.4814,8.4814,8.4814,8.3653,8.2368,8.2292,8.2292,8.2281,8.2221,8.1875,8.1633,8.2024,8.1752,8.1583,8.1998,8.2111,8.1944,8.1126,8.1035,8.0791,8.0011,7.9898,7.9898,7.9898,7.9898,7.9887,7.9843,7.9767,7.9551,7.9091,7.9004,7.8752,7.8332,7.9114,7.9407,7.8966,7.8954,7.8739,7.8304,7.829,7.829,7.829,7.829,7.829,7.829,7.829,7.829,7.829,7.829,7.829,7.9346,0.0,8.1124,8.1124,8.1108,8.1093,0.0,8.1093,8.1093,8.1093,8.1093,8.1093,8.1093,8.1093,8.1285,8.19,8.217,8.2824,8.4401,8.5286,8.5901,8.6094,8.6094,8.6094,8.6094,8.6094,8.6094,8.6094,8.6094,8.6094,8.6094,8.6094,8.6094,8.6094,8.6094,8.6094,8.6094,8.6094,8.6094,8.6094,8.6094,8.6094,8.6094,8.6094,8.6094,8.6094,8.6094,8.6094,8.6094,8.6094,8.6094,8.6094,8.6094,8.6094,8.6077,8.6001,8.6018,8.6069,8.5858,8.5849,8.5911,8.5822,8.5757,8.5757,8.5757,8.4981,8.3965,8.3293,8.3104,8.299,8.2357,8.2127,8.207,8.2134,8.2078,8.2021,8.2134,8.2465,8.2561,8.2006,8.2171,8.2256,8.1702,8.1598,8.1598,8.1598,8.1598,8.1502,8.1129,8.0478,7.9905,7.9444,7.883,7.8404,7.8304,7.8498,7.8592,7.8458,7.8458,7.8427,7.829,7.829,7.829,7.829,7.829,7.829,7.829,7.829,7.829,7.829,7.829,7.829,7.9669,8.0439,8.1093,8.1093,8.1093,8.1093,8.1093,8.1093,8.1093,8.1093,8.1093,8.1208,8.1593,8.1631,8.19,8.2747,8.3247,8.3939,8.5277,8.5824,8.6094,8.6094,8.6094,8.6094,8.6094,8.6094,8.6094,8.6094,8.6094,8.6094,8.6094,8.6094,8.6094,8.6094,8.6094,8.6094,8.6094,8.6094,8.6094,8.6094,8.6094,8.6094,8.6094,8.6094,8.6094,8.6094,8.6094,8.6094,8.6094,8.6094,8.6094,8.6094,8.6094,8.6094,8.6094,8.6094,8.6094,8.6094,8.6094,8.6094,8.6094,8.6094,8.6094,8.6094,8.6094,8.573,8.5232,8.4784,8.4631,8.4477,8.3825,8.3669,8.3606,8.3387,8.3331,8.3331,8.3331,8.3568,8.3513,8.2894,8.2971,8.2915,8.2298,8.2216,8.2216,8.2216,8.2216,8.2116,8.1837,8.1424,8.093,8.0467,8.004,7.9671,7.9419,7.9405,7.9108,7.8364,7.829,7.829,7.829,7.829,7.829,7.829,7.829,7.829,7.829,7.829,7.829,7.829,7.829,7.829,7.9977,8.0554,8.1093,8.1093,8.1093,8.1093,8.1093,8.1093,8.1093,8.1093,8.1208,8.1477,8.217,8.2401,8.2785,8.3678,8.4516,8.5316,8.6017,8.6094,8.6094,8.6094,8.6094,8.6094,8.6094,8.6094,8.6094,8.6094,8.6094,8.6094,8.6094,8.6094,8.6094,8.6094,8.6094,8.6094,8.6094,8.6094,8.6094,8.6094,8.6094,8.6094,8.6094,8.6094,8.6094,8.6094,8.6094,8.6094,8.6094,8.6094,8.6094,8.6094,8.6094,8.6094,8.6094,8.6094,8.6094,8.6094,8.6094,8.6094,8.6094,8.6094,8.6094,8.6094,8.6094,8.6094,8.6094,8.6094,8.6094,8.6018,8.5628,8.5504,8.5407,8.4997,8.4899,8.4899,8.4899,8.4899,8.4708,8.3959,8.3807,8.359,8.2916,8.2813,8.2813,8.2813,8.2813,8.2781,8.2706,8.2526,8.2214,8.1746,8.1493,8.1182,8.0748,8.0691,8.0097,7.8736,7.855,7.8439,7.8327,7.829,7.829,7.829,7.829,7.829,7.829,7.829,7.829,7.829,7.829,7.829,8.0708,8.1016,8.1093,8.1093,8.1093,8.1093,8.1093,8.1093,8.1093,8.1093,8.1631,8.2131,8.2285,8.2909,8.3678,8.4555,8.5393,8.5978,8.6094,8.6094,8.6094,8.6094,8.6094,8.6094,8.6094,8.6094,8.6094,8.6094,8.6094,8.6094,8.6094,8.6094,8.6094,8.6094,8.6094,8.6094,8.6094,8.6094,8.6094,8.6094,8.6094,8.6094,8.6094,8.6094,8.6094,8.6094,8.6094,8.6094,8.6094,8.6094,8.6094,8.6094,8.6094,8.6094,8.6094,8.6094,8.6094,8.6094,8.6094,8.6094,8.6094,8.6094,8.6094,8.6094,8.6094,8.6094,8.6094,8.6094,8.6094,8.6077,8.6026,8.6009,8.5954,8.5902,8.5884,8.5884,8.5884,8.5884,8.5846,8.5701,8.5701,8.5663,8.5509,8.5509,8.5509,8.5509,8.5509,8.5355,8.4937,8.3927,8.3023,8.256,8.151,8.0805,8.0705,8.0691,8.0594,8.0371,7.9702,7.8996,7.8327,7.829,7.829,7.829,7.829,7.829,7.829,7.829,7.829,7.829,7.829,7.829,8.0977,8.1093,8.1093,8.1093,8.1093,8.1093,8.1093,8.1439,8.1747,8.1747,8.2401,8.3131,8.3632,8.4016,8.4593,8.5401,8.5863,8.6094,8.6094,8.6094,8.6094,8.6094,8.6094,8.6094,8.6094,8.6094,8.6094,8.6094,8.6094,8.6094,8.6094,8.6094,8.6094,8.6094,8.6094,8.6094,8.6094,8.6094,8.6094,8.6094,8.6094,8.6094,8.6094,8.6094,8.6094,8.6094,8.6094,8.6094,8.6094,8.6094,8.6094,8.6094,8.6094,8.6094,8.6094,8.6094,8.6094,8.6094,8.6094,8.6094,8.6094,8.6094,8.6094,8.6094,8.6094,8.6094,8.6094,8.6094,8.6094,8.6094,8.6094,8.6094,8.6094,8.6094,8.6094,8.6094,8.6094,8.6094,8.6094,8.6094,8.6094,8.6094,8.6094,8.6094,8.6094,8.6094,8.5884,8.5656,8.5426,8.4643,8.3919,8.3411,8.2784,8.2323,8.2072,8.2043,8.1657,8.0765,8.0371,7.9999,7.9628,7.9591,7.9591,7.9591,7.9591,7.9591,7.9591,7.9591,7.9368,7.8959,7.8959,7.8736,8.1093,8.1093,8.1093,8.1093,8.1093,8.1131,8.1323,8.1862,8.2362,8.2554,8.3285,8.4093,8.4786,8.5047,8.5393,8.6017,8.6094,8.6094,8.6094,8.6094,8.6094,8.6094,8.6094,8.6094,8.6094,8.6094,8.6094,8.6094,8.6094,8.6094,8.6094,8.6094,8.6094,8.6094,8.6094,8.6094,8.6094,8.6094,8.6094,8.6094,8.6094,8.6094,8.6094,8.6094,8.6094,8.6094,8.6094,8.6094,8.6094,8.6094,8.6094,8.6094,8.6094,8.6094,8.6094,8.6094,8.6094,8.6094,8.6094,8.6094,8.6094,8.6094,8.6094,8.6094,8.6094,8.6094,8.6094,8.6094,8.6094,8.6094,8.6094,8.6094,8.6094,8.6094,8.6094,8.6094,8.6094,8.6094,8.6094,8.6094,8.6094,8.6094,8.6094,8.6094,8.606,8.5937,8.5647,8.5367,8.5266,8.481,8.4341,8.3962,8.379,8.3583,8.3224,8.3195,8.2637,8.1374,8.11,8.0914,8.0691,8.0691,8.0691,8.0691,8.0691,8.0691,8.0691,8.0691,8.0371,7.9776,7.9776,7.9442,8.1093,8.1093,8.1093,8.1093,8.1093,8.1285,8.2054,8.2247,8.2516,8.3332,8.4209,8.4824,8.4893,8.5517,8.6017,8.6094,8.6094,8.6094,8.6094,8.6094,8.6094,8.6094,8.6094,8.6094,8.6094,8.6094,8.6094,8.6094,8.6094,8.6094,8.6094,8.6094,8.6094,8.6094,8.6094,8.6094,8.6094,8.6094,8.6094,8.6094,8.6094,8.6094,8.6094,8.6094,8.6094,8.6094,8.6094,8.6094,8.6094,8.6094,8.6094,8.6094,8.6094,8.6094,8.6094,8.6094,8.6094,8.6094,8.6094,8.6094,8.6094,8.6094,8.6094,8.6094,8.6094,8.6094,8.6094,8.6094,8.6094,8.6094,8.6094,8.6094,8.6094,8.6094,8.6094,8.6094,8.6094,8.6094,8.6094,8.6094,8.6094,8.6094,8.6094,8.6094,8.5937,8.5504,8.5426,8.5228,8.4825,8.428,8.3962,8.3922,8.3508,8.3239,8.3195,8.3195,8.3158,8.3046,8.234,8.156,8.0728,8.0691,8.0691,8.0691,8.0691,8.0691,8.0691,8.0691,8.0654,8.0617,8.0617,8.058,8.1093,8.1093,8.1208,8.1708,8.1862,8.1939,8.2247,8.3131,8.4016,8.4324,8.5055,8.567,8.567,8.5893,8.6094,8.6094,8.6094,8.6094,8.6094,8.6094,8.6094,8.6094,8.6094,8.6094,8.6094,8.6094,8.6094,8.6094,8.6094,8.6094,8.6094,8.6594,8.6901,8.6901,8.744,8.7709,8.7709,8.7709,8.7709,8.7709,8.6632,8.6094,8.6094,8.6094,8.6094,8.6094,8.6094,8.6094,8.6094,8.6094,8.6094,8.6094,8.6094,8.6094,8.6094,8.6094,8.6094,8.6094,8.6094,8.6094,8.6094,8.6094,8.6094,8.6094,8.6094,8.6094,8.6094,8.6094,8.6094,8.6094,8.6094,8.6094,8.6094,8.6094,8.6094,8.6094,8.6094,8.5876,8.5739,8.6052,8.5867,8.5748,8.6052,8.6094,8.6043,8.5867,8.5347,8.4887,8.4708,8.3962,8.3452,8.3452,8.3289,8.3195,8.3195,8.3195,8.3195,8.3195,8.2898,8.26,8.2266,8.2251,8.2251,8.2251,8.2251,8.2251,8.2251,8.2251,8.2006,8.1523,8.1523,8.1226,8.1093,8.1285,8.1593,8.217,8.2708,8.3131,8.3131,8.4055,8.497,8.5247,8.5701,8.6094,8.6094,8.6094,8.6094,8.6094,8.6094,8.6094,8.6094,8.6094,8.6094,8.6094,8.6094,8.6209,8.6478,8.6517,8.6632,8.6901,8.6901,8.6901,8.6901,8.7478,8.7825,8.7825,8.841,8.8718,8.8718,8.8718,8.8718,8.8679,8.7478,8.6901,8.6901,8.6901,8.6901,8.6901,8.6632,8.6517,8.6478,8.6209,8.6094,8.6094,8.6094,8.6094,8.6094,8.6094,8.6094,8.6094,8.6094,8.6094,8.6094,8.6094,8.6094,8.6094,8.6094,8.6094,8.6094,8.6094,8.6094,8.6094,8.6094,8.6094,8.6094,8.6094,8.6094,8.6094,8.6094,8.573,8.5485,8.5831,8.5637,8.5456,8.5637,8.5766,8.5766,8.5465,8.4865,8.4378,8.4255,8.3634,8.3195,8.3195,8.3195,8.3195,8.3195,8.3195,8.3195,8.3195,8.3195,8.3195,8.3195,8.3195,8.3195,8.3195,8.3195,8.3195,8.3195,8.3195,8.2935,8.2377,8.2377,8.208,8.1093,8.1708,8.2285,8.2324,8.3632,8.4893,8.4893,8.4893,8.5124,8.594,8.6094,8.6094,8.6094,8.6094,8.6094,8.6094,8.6094,8.6094,8.6094,8.6094,8.6094,8.6094,8.6132,8.6478,8.7325,8.7401,8.7786,8.8641,8.8718,8.8718,8.8718,8.8718,8.8718,8.8718,8.8718,8.8718,8.8718,8.8718,8.8718,8.8718,8.8718,8.8718,8.8718,8.8718,8.8718,8.8641,8.7786,8.7401,8.7363,8.6478,8.6132,8.6132,8.6132,8.6132,8.6094,8.6094,8.6094,8.6094,8.6094,8.6094,8.6094,8.6094,8.6094,8.6094,8.6094,8.6094,8.6094,8.6094,8.6094,8.6094,8.6094,8.6094,8.6094,8.6094,8.6094,8.6094,8.6094,8.573,8.5407,8.5416,8.5407,8.5228,8.4803,8.5082,8.5071,8.4053,8.3909,8.3747,8.3268,8.3195,8.3195,8.3195,8.3195,8.3195,8.3195,8.3195,8.3195,8.3195,8.3195,8.3195,8.3195,8.3195,8.3195,8.3195,8.3195,8.3195,8.3195,8.3195,8.3195,8.3195,8.3195,8.3195,8.1785,8.2131,8.2593,8.3824,8.4508,8.5055,8.5632,8.5747,8.5824,8.6055,8.6094,8.6094,8.6094,8.6094,8.6094,8.6094,8.6094,8.6094,8.6094,8.6632,8.7017,8.7017,8.7555,8.8017,8.8295,8.8295,8.841,8.8679,8.8718,8.8718,8.8718,8.9248,8.9556,8.9556,9.0133,9.0441,9.0441,9.0441,9.0441,9.0441,9.0441,8.9825,8.8718,8.8718,8.8718,8.8679,8.8449,8.8295,8.8295,8.8017,8.794,8.794,8.794,8.7555,8.7017,8.7017,8.6632,8.6094,8.6094,8.6094,8.6094,8.6094,8.6094,8.6094,8.6094,8.6094,8.6094,8.6094,8.6094,8.6094,8.6094,8.6094,8.6094,8.6094,8.6094,8.6094,8.6094,8.573,8.5494,8.584,8.5637,8.5367,8.5235,8.5317,8.5176,8.4545,8.413,8.3747,8.3268,8.3195,8.3195,8.3195,8.3195,8.3195,8.3195,8.3195,8.3195,8.3195,8.3195,8.3195,8.3195,8.3195,8.3195,8.3195,8.3195,8.3195,8.3195,8.3195,8.3195,8.3195,8.3195,8.3195,8.2093,8.2554,8.3131,8.4555,8.5124,8.5517,8.5978,8.6094,8.6094,8.6094,8.6094,8.6094,8.6094,8.6094,8.6094,8.6094,8.6094,8.6209,8.6555,8.7055,8.7517,8.7872,8.8372,8.8833,8.9133,8.9171,8.9325,8.9671,8.9671,8.9671,8.9671,9.0171,9.0432,9.0432,9.0932,9.121,9.121,9.121,9.121,9.121,9.121,9.0671,8.9671,8.9671,8.9671,8.9671,8.9325,8.8979,8.8718,8.8718,8.8718,8.8718,8.8718,8.8372,8.7902,8.7902,8.7594,8.7132,8.7132,8.7132,8.7132,8.7132,8.7132,8.7132,8.7132,8.7132,8.7055,8.6709,8.6632,8.6555,8.6209,8.6094,8.6094,8.6094,8.6094,8.6094,8.6094,8.573,8.5485,8.5757,8.5571,8.5357,8.5135,8.5296,8.5217,8.4753,8.4414,8.4052,8.355,8.3466,8.3418,8.321,8.3195,8.3195,8.3195,8.3195,8.3195,8.3195,8.3195,8.3195,8.3195,8.3195,8.3195,8.3195,8.3195,8.3195,8.3195,8.3195,8.3195,8.3195,8.3195,8.3195,8.2208,8.3062,8.3947,8.4786,8.5555,8.6094,8.6094,8.6094,8.6094,8.6094,8.6094,8.6094,8.6094,8.6094,8.6132,8.6209,8.6209,8.6517,8.7401,8.7594,8.7902,8.8718,8.8872,8.921,8.9932,9.0009,9.0355,9.1133,9.121,9.121,9.121,9.121,9.121,9.121,9.121,9.121,9.121,9.121,9.121,9.121,9.121,9.121,9.121,9.121,9.121,9.1171,9.0355,8.9594,8.8949,8.8949,8.8949,8.8949,8.8949,8.8872,8.8795,8.8795,8.8756,8.8718,8.8718,8.8718,8.8718,8.8718,8.8718,8.8718,8.8718,8.8718,8.8526,8.7748,8.7517,8.7325,8.6555,8.6324,8.6324,8.6324,8.6209,8.6094,8.6094,8.5757,8.5465,8.5465,8.5465,8.5327,8.4832,8.5103,8.5217,8.4753,8.4711,8.451,8.4052,8.3988,8.3803,8.3376,8.3312,8.3268,8.3268,8.3224,8.3195,8.3195,8.3195,8.3195,8.3195,8.3195,8.3195,8.3195,8.3195,8.3195,8.3195,8.3253,8.3239,8.3195,8.3312,8.3289,8.3101,8.3939,8.4824,8.5632,8.5978,8.6094,8.6094,8.6094,8.6094,8.6094,8.6094,8.6094,8.6094,8.6094,8.6324,8.7017,8.7132,8.7401,8.8295,8.8979,8.9432,8.9624,9.0248,9.0748,9.0902,9.0932,9.1018,9.121,9.121,9.121,9.121,9.121,9.121,9.121,9.121,9.121,9.121,9.121,9.121,9.121,9.121,9.121,9.121,9.121,9.121,9.121,9.1018,9.0825,9.0671,9.0671,9.0671,9.0671,9.0671,9.0248,8.9624,8.9624,8.9248,8.8718,8.8718,8.8718,8.8718,8.8718,8.8718,8.8718,8.8718,8.8718,8.8679,8.8487,8.841,8.8372,8.8179,8.8141,8.8141,8.8141,8.7094,8.6094,8.6094,8.6035,8.5937,8.5937,8.5937,8.5784,8.5337,8.5347,8.5217,8.4753,8.4711,8.4677,8.4533,8.451,8.4474,8.4403,8.4001,8.3736,8.3736,8.3433,8.3195,8.3195,8.3195,8.3195,8.3195,8.3195,8.3195,8.3195,8.3195,8.3195,8.3195,8.3592,8.3578,8.321,8.3988,8.4167,8.337,8.4247,8.5085,8.5901,8.6094,8.6094,8.6094,8.6094,8.6094,8.6094,8.6094,8.6094,8.6094,8.644,8.6863,8.7325,8.7748,8.8325,8.9171,8.9633,9.0047,9.047,9.0932,9.121,9.121,9.121,9.121,9.121,9.121,9.121,9.121,9.121,9.121,9.121,9.121,9.121,9.121,9.121,9.121,9.121,9.121,9.121,9.121,9.121,9.121,9.121,9.121,9.121,9.121,9.121,9.121,9.121,9.121,9.0932,9.0509,9.0509,9.0248,8.9902,8.9902,8.9902,8.9902,8.9902,8.9902,8.9902,8.9902,8.9902,8.9825,8.9402,8.9286,8.9171,8.8795,8.8718,8.8718,8.8718,8.7671,8.6709,8.6709,8.6401,8.6094,8.6094,8.6094,8.6035,8.5766,8.573,8.5656,8.5407,8.5367,8.5296,8.505,8.5018,8.4931,8.4708,8.4438,8.4267,8.4267,8.4052,8.3934,8.3934,8.3934,8.3934,8.3934,8.3934,8.3801,8.355,8.3787,8.3934,8.3934,8.418,8.4167,8.3947,8.4476,8.4533,8.3601,8.4439,8.5277,8.594,8.6094,8.6094,8.6094,8.6094,8.6094,8.6094,8.6094,8.617,8.6286,8.6901,8.7478,8.7786,8.844,8.9171,9.0009,9.0124,9.0393,9.1133,9.121,9.121,9.121,9.121,9.121,9.121,9.121,9.121,9.121,9.121,9.121,9.121,9.121,9.121,9.121,9.121,9.121,9.121,9.121,9.121,9.121,9.121,9.121,9.121,9.121,9.121,9.121,9.121,9.121,9.121,9.121,9.121,9.121,9.121,9.121,9.121,9.121,9.121,9.121,9.121,9.121,9.121,9.121,9.121,9.1056,9.0316,9.0124,8.997,8.9286,8.9141,8.9141,8.9141,8.8479,8.7786,8.7632,8.694,8.6324,8.6324,8.6209,8.6094,8.6094,8.6094,8.6094,8.6094,8.6094,8.5945,8.5552,8.5514,8.5377,8.4964,8.4854,8.481,8.481,8.4768,8.4711,8.4711,8.4711,8.4711,8.4711,8.4803,8.4615,8.4167,8.451,8.4711,8.4711,8.4765,8.4765,8.4685,8.4881,8.4887,8.4478,8.5324,8.5978,8.6055,8.6094,8.6094,8.6094,8.6094,8.6094,8.6094,8.6094,8.6324,8.7094,8.7325,8.7863,8.9316,8.9663,9.0047,9.0902,9.1018,9.1056,9.121,9.121,9.121,9.121,9.121,9.121,9.121,9.121,9.121,9.121,9.121,9.121,9.121,9.121,9.121,9.121,9.121,9.121,9.121,9.121,9.121,9.121,9.121,9.121,9.121,9.121,9.121,9.121,9.121,9.121,9.121,9.121,9.121,9.121,9.121,9.121,9.121,9.121,9.121,9.121,9.121,9.121,9.121,9.121,9.121,9.1171,9.1056,9.1018,9.1018,9.0902,9.0864,9.0864,9.0864,9.021,8.9393,8.8679,8.7825,8.7209,8.7209,8.6632,8.6094,8.6094,8.6094,8.6094,8.6094,8.6094,8.6077,8.6026,8.6018,8.5962,8.5911,8.5533,8.5317,8.5317,8.492,8.4711,8.4711,8.4711,8.4711,8.4711,8.5071,8.5258,8.5197,8.4865,8.4711,8.4711,8.5093,8.5082,8.4734,8.5514,8.5693,8.5363,8.5816,8.6094,8.6094,8.6094,8.6094,8.6094,8.6094,8.6247,8.6748,8.6824,8.694,8.7325,8.8171,8.9047,8.9778,9.0316,9.074,9.1171,9.121,9.121,9.121,9.121,9.121,9.121,9.121,9.121,9.121,9.121,9.121,9.121,9.121,9.121,9.121,9.121,9.121,9.121,9.121,9.121,9.121,9.121,9.121,9.121,9.121,9.121,9.121,9.121,9.121,9.121,9.121,9.121,9.121,9.121,9.121,9.121,9.121,9.121,9.121,9.121,9.121,9.121,9.121,9.121,9.121,9.121,9.121,9.121,9.121,9.121,9.121,9.121,9.121,9.121,9.121,9.0902,9.0509,9.0171,8.9056,8.8141,8.8141,8.7401,8.6824,8.6824,8.644,8.6094,8.6094,8.6094,8.6094,8.6094,8.6094,8.6094,8.6094,8.5911,8.5775,8.5775,8.5618,8.5475,8.5475,8.5475,8.5475,8.5475,8.5684,8.5775,8.5775,8.5609,8.5475,8.5475,8.5693,8.5684,8.5485,8.5902,8.6009,8.594,8.6094,8.6094,8.6094,8.6094,8.6094,8.6094,8.6286,8.6594,8.7286,8.7748,8.8055,8.8055,8.9047,8.997,9.0201,9.0787,9.121,9.121,9.121,9.121,9.121,9.121,9.121,9.121,9.121,9.121,9.121,9.121,9.121,9.121,9.121,9.121,9.121,9.121,9.121,9.121,9.121,9.121,9.121,9.121,9.121,9.121,9.121,9.121,9.121,9.121,9.121,9.121,9.121,9.121,9.121,9.121,9.121,9.121,9.121,9.121,9.121,9.121,9.121,9.121,9.121,9.121,9.121,9.121,9.121,9.121,9.121,9.121,9.121,9.121,9.121,9.121,9.121,9.121,9.1133,9.0932,8.9902,8.894,8.8756,8.8179,8.7709,8.7709,8.7017,8.644,8.644,8.6247,8.6094,8.6094,8.6094,8.6094,8.6094,8.6094,8.6094,8.6094,8.6094,8.6094,8.6094,8.6094,8.6094,8.6094,8.6094,8.6094,8.6094,8.6094,8.6094,8.6094,8.6094,8.6094,8.6094,8.6094,8.6094,8.6094,8.6094,8.6094,8.6094,8.6094,8.6094,8.6094,8.6748,8.7363,8.7401,8.8671,8.9778,8.9778,8.9855,9.0163,9.1018,9.1171,9.121,9.121,9.121,9.121,9.121,9.121,9.121,9.121,9.121,9.121,9.121,9.121,9.121,9.121,9.121,9.121,9.121,9.121,9.121,9.121,9.121,9.121,9.121,9.121,9.121,9.121,9.121,9.121,9.121,9.121,9.121,9.121,9.121,9.121,9.121,9.121,9.121,9.121,9.121,9.121,9.121,9.121,9.121,9.121,9.121,9.121,9.121,9.121,9.121,9.121,9.121,9.121,9.121,9.121,9.121,9.121,9.121,9.121,9.097,9.0163,8.9893,8.9624,8.8872,8.8679,8.8641,8.8641,8.7902,8.7325,8.7325,8.6632,8.6094,8.6094,8.6094,8.6094,8.6094,8.6094,8.6094,8.6094,8.6094,8.6094,8.6094,8.6094,8.6094,8.6094,8.6094,8.6094,8.6094,8.6094,8.6094,8.6094,8.6094,8.6094,8.6094,8.6094,8.6094,8.6094,8.6094,8.6094,8.6094,8.6094,8.6094,8.6094,8.6786,8.7555,8.8141,8.9133,9.0086,9.0624,9.074,9.0825,9.1171,9.121,9.121,9.121,9.121,9.121,9.121,9.121,9.121,9.121,9.121,9.121,9.121,9.121,9.121,9.121,9.121,9.121,9.121,9.121,9.121,9.121,9.121,9.121,9.121,9.121,9.121,9.121,9.121,9.121,9.121,9.121,9.121,9.121,9.121,9.121,9.121,9.121,9.121,9.121,9.121,9.121,9.121,9.121,9.121,9.121,9.121,9.121,9.121,9.121,9.121,9.121,9.121,9.121,9.121,9.121,9.121,9.121,9.121,9.121,9.1133,9.0778,9.074,9.0663,9.0364,8.9863,8.9479,8.9479,8.8786,8.8017,8.7478,8.7132,8.6748,8.617,8.6094,8.6094,8.6094,8.6094,8.6094,8.6094,8.6094,8.6094,8.6094,8.6094,8.6094,8.6094,8.6094,8.6094,8.6094,8.6094,8.6094,8.6094,8.6094,8.6094,8.6094,8.6094,8.6094,8.6094,8.6094,8.6094,8.6094,8.6094,8.617,8.6478,8.7209,8.8094,8.894,8.9748,9.0509,9.1095,9.121,9.121,9.121,9.121,9.121,9.121,9.121,9.121,9.121,9.121,9.121,9.121,9.121,9.121,9.121,9.121,9.121,9.121,9.121,9.121,9.121,9.121,9.121,9.121,9.121,9.121,9.121,9.121,9.121,9.121,9.121,9.121,9.121,9.121,9.121,9.121,9.121,9.121,9.121,9.121,9.121,9.121,9.121,9.121,9.121,9.121,9.121,9.121,9.121,9.121,9.121,9.121,9.121,9.121,9.121,9.121,9.121,9.121,9.121,9.121,9.121,9.121,9.121,9.121,9.121,9.121,9.121,9.074,9.0355,9.0355,8.9633,8.8902,8.8325,8.8017,8.7517,8.6632,8.6555,8.644,8.6132,8.6094,8.6094,8.6094,8.6094,8.6094,8.6094,8.6094,8.6094,8.6094,8.6094,8.6094,8.6094,8.6094,8.6094,8.6094,8.6094,8.6094,8.6094,8.6094,8.6094,0.0,0.0,0.0,8.6094,8.6094,8.6324,8.7209,8.8064,8.894,8.9739,9.0586,9.121,9.121,9.121,9.121,9.121,9.121,9.121,9.121,9.121,9.121,9.121,9.121,9.121,9.121,9.121,9.121,9.121,9.121,9.121,9.121,9.121,9.121,9.121,9.121,9.121,9.121,9.121,9.121,9.121,9.121,9.121,9.121,9.121,9.121,9.121,9.121,9.121,9.121,9.121,9.121,9.121,9.121,9.121,9.121,9.121,9.121,9.121,9.121,9.121,9.121,9.121,9.121,9.121,9.121,9.121,9.121,9.121,9.121,9.121,9.121,9.121,9.121,9.121,9.121,9.121,9.121,9.121,9.121,9.121,9.121,9.121,9.121,9.0509,8.9932,8.9893,8.9248,8.841,8.7555,8.744,8.7094,8.6247,8.6132,8.6132,8.6094,8.6094,8.6094,8.6094,8.6094,8.6094,8.6094,8.6094,8.6094,8.6094,8.6094,8.6094,8.6094,8.6094,8.6094,8.6094,8.6094,8.6094,8.594,0.0,0.0,0.0,0.0,0.0,8.7209,8.8064,8.894,8.9739,9.0586,9.121,9.121,9.121,9.121,9.121,9.121,9.121,9.121,9.121,9.121,9.121,9.121,9.121,9.121,9.121,9.121,9.121,9.121,9.121,9.121,9.121,9.121,9.121,9.121,9.121,9.121,9.121,9.121,9.121,9.121,9.121,9.121,9.121,9.121,9.121,9.121,9.121,9.121,9.121,9.121,9.121,9.121,9.121,9.121,9.121,9.121,9.121,9.121,9.121,9.121,9.121,9.121,9.121,9.121,9.121,9.121,9.121,9.121,9.121,9.121,9.121,9.121,9.121,9.121,9.121,9.121,9.121,9.121,9.121,9.121,9.121,9.121,9.1018,9.0624,8.997,8.9701,8.9286,8.8449,8.8333,8.8025,8.7132,8.7055,8.6786,8.617,8.6094,8.6094,8.6094,8.6094,8.6094,8.6094,8.6094,8.6094,8.6094,8.6094,8.6094,8.6094,8.6094,8.6094,8.6094,8.6094,8.6094,0.0,0.0,8.6094,8.6094,0.0,0.0,8.7671,8.8333,8.9026,9.021,9.0855,9.121,9.121,9.121,9.121,9.121,9.121,9.121,9.121,9.121,9.121,9.121,9.121,9.121,9.121,9.121,9.121,9.121,9.121,9.121,9.121,9.121,9.121,9.121,9.121,9.121,9.121,9.121,9.121,9.121,9.121,9.121,9.121,9.121,9.121,9.121,9.121,9.121,9.121,9.121,9.121,9.121,9.121,9.121,9.121,9.121,9.121,9.121,9.121,9.121,9.121,9.121,9.121,9.121,9.121,9.121,9.121,9.121,9.121,9.121,9.121,9.121,9.121,9.121,9.121,9.121,9.121,9.121,9.121,9.121,9.121,9.121,9.121,9.121,9.1018,9.0509,9.0432,9.0124,8.9325,8.921,8.8863,8.8017,8.7632,8.7171,8.6709,8.6324,8.6094,8.6094,8.6094,8.6094,8.6094,8.6094,8.6094,8.6094,8.6094,8.6094,8.6094,8.6094,8.6094,8.6094,8.6094,8.6094,0.0,0.0,0.0,8.6094,8.6094,0.0,8.8179,8.8641,8.9141,9.0748,9.1133,9.121,9.121,9.121,9.121,9.121,9.121,9.121,9.121,9.121,9.121,9.121,9.121,9.121,9.121,9.121,9.121,9.121,9.121,9.121,9.121,9.121,9.121,9.121,9.121,9.121,9.121,9.121,9.121,9.121,9.121,9.121,9.121,9.121,9.121,9.121,9.121,9.121,9.121,9.121,9.121,9.121,9.121,9.121,9.121,9.121,9.121,9.121,9.121,9.121,9.121,9.121,9.121,9.121,9.121,9.121,9.121,9.121,9.121,9.121,9.121,9.121,9.121,9.121,9.121,9.121,9.121,9.121,9.121,9.121,9.121,9.121,9.121,9.121,9.121,9.121,9.121,9.0932,9.0124,9.0047,8.9739,8.891,8.8132,8.7632,8.7555,8.6748,8.6247,8.6247,8.617,8.6094,8.6094,8.6094,8.6094,8.6094,8.6094,8.6094,8.6094,8.6094,8.6094,8.6094,8.6094,8.6094,8.594,8.6094,8.6094,8.6094,8.6094,0.0,8.7401,8.8218,8.8987,8.9932,9.071,9.121,9.121,9.121,9.121,9.121,9.121,9.121,9.121,9.121,9.121,9.121,9.121,9.121,9.121,9.121,9.121,9.121,9.121,9.121,9.121,9.121,9.121,9.121,9.121,9.121,9.121,9.121,9.121,9.121,9.121,9.121,9.121,9.121,9.121,9.121,9.121,9.121,9.121,9.121,9.121,9.121,9.121,9.121,9.121,9.121,9.121,9.121,9.121,9.121,9.121,9.121,9.121,9.121,9.121,9.121,9.121,9.121,9.121,9.121,9.121,9.121,9.121,9.121,9.121,9.121,9.121,9.121,9.121,9.121,9.121,9.121,9.121,9.121,9.121,9.121,9.121,9.1133,9.0979,9.0941,9.0633,8.9739,8.9509,8.9171,8.8487,8.7632,8.7132,8.7132,8.6478,8.6094,8.6094,8.6094,8.6094,8.6094,8.6094,8.6094,8.6094,8.6094,8.6094,8.6094,8.6094,8.6094,8.5978,8.6094,8.6094,8.6094,8.6094,0.0,0.0,8.841,8.9056,9.0287,9.0902,9.121,9.121,9.121,9.121,9.121,9.121,9.121,9.121,9.121,9.121,9.121,9.121,9.121,9.121,9.121,9.121,9.121,9.121,9.121,9.121,9.121,9.121,9.121,9.121,9.121,9.121,9.121,9.121,9.121,9.121,9.121,9.121,9.121,9.121,9.121,9.121,9.121,9.121,9.121,9.121,9.121,9.121,9.121,9.121,9.121,9.121,9.121,9.121,9.121,9.121,9.121,9.121,9.121,9.121,9.121,9.121,9.121,9.121,9.121,9.121,9.121,9.121,9.121,9.121,9.121,9.121,9.121,9.121,9.121,9.121,9.121,9.121,9.121,9.121,9.121,9.121,9.121,9.121,9.121,9.1018,9.0586,9.0163,8.9739,8.9325,8.8517,8.7863,8.744,8.6978,8.6555,8.6132,8.6094,8.6094,8.6094,8.6094,8.6094,8.6094,8.6094,8.6094,8.6094,8.6094,8.6094,8.6094,8.6094,8.6094,8.6094,8.6247,8.6709,0.0,0.0,0.0,9.0671,9.1095,9.121,9.121,9.121,9.1171,9.097,9.1095,9.1133,9.097,9.1095,9.121,9.121,9.121,9.121,9.121,9.121,9.121,9.121,9.121,9.121,9.121,9.121,9.121,9.121,9.121,9.121,9.121,9.121,9.121,9.121,9.121,9.1287,9.1441,9.1441,9.1518,9.1672,9.1672,9.1672,9.1672,9.1518,9.1441,9.1441,9.1287,9.121,9.121,9.121,9.121,9.121,9.121,9.121,9.121,9.121,9.121,9.121,9.121,9.121,9.121,9.121,9.121,9.121,9.121,9.121,9.121,9.121,9.121,9.121,9.121,9.121,9.121,9.121,9.121,9.121,9.121,9.121,9.121,9.121,9.121,9.121,9.121,9.121,9.121,9.121,9.0547,9.0163,9.0163,8.9402,8.8632,8.794,8.7594,8.7094,8.6363,8.6209,8.6094,8.6094,8.6094,8.6094,8.6094,8.6094,8.6094,8.6094,8.6094,8.6094,8.6094,8.6094,8.6094,8.6094,8.6671,8.7286,8.7517,0.0,8.9816,9.0009,0.0,9.121,9.121,0.0,0.0,9.0163,9.0701,9.0932,9.0163,9.0701,9.121,9.121,9.121,9.121,9.121,9.121,9.121,9.121,9.121,9.121,9.121,9.121,9.121,9.121,9.121,9.121,9.121,9.121,9.121,9.121,9.121,9.1595,9.2364,9.2364,9.2749,9.3403,9.3403,9.3403,9.3364,9.2633,9.2364,9.2287,9.1518,9.121,9.121,9.121,9.121,9.121,9.121,9.121,9.121,9.121,9.121,9.121,9.121,9.121,9.121,9.121,9.121,9.121,9.121,9.121,9.121,9.121,9.121,9.121,9.121,9.121,9.121,9.121,9.121,9.121,9.121,9.121,9.121,9.121,9.121,9.121,9.121,9.121,9.121,9.121,9.1133,9.1056,9.1056,9.0239,8.9701,8.9624,8.8209,8.7363,8.7248,8.6517,8.6094,8.6094,8.6094,8.6094,8.6094,8.6094,8.6094,8.6094,8.6094,8.6094,8.7594,8.7594,8.7594,8.7594,8.7872,8.8286,8.8748,8.9393,9.0047,9.0547,0.0,0.0,0.0,0.0,0.0,0.0,9.0979,9.1056,9.071,9.0979,9.121,9.121,9.121,9.121,9.121,9.121,9.121,9.121,9.121,9.121,9.121,9.121,9.121,9.121,9.121,9.121,9.121,9.121,9.121,9.121,9.171,9.2133,9.2518,9.2979,9.3364,9.371,9.371,9.371,9.3672,9.3326,9.321,9.3095,9.2287,9.1633,9.121,9.121,9.121,9.121,9.121,9.121,9.121,9.121,9.121,9.121,9.121,9.121,9.121,9.121,9.121,9.121,9.121,9.121,9.121,9.121,9.121,9.121,9.121,9.121,9.121,9.121,9.121,9.121,9.121,9.121,9.121,9.121,9.121,9.121,9.121,9.121,9.121,9.121,9.121,9.121,9.121,9.0855,9.0432,8.9932,8.8325,8.7171,8.6671,8.6286,8.6094,8.6094,8.6094,8.6094,8.6094,8.6094,8.6094,8.6094,8.6094,8.6094,8.8718,8.8718,8.8718,8.8718,8.8872,8.9171,8.9778,9.0086,9.0432,9.1056,9.121,0.0,0.0,0.0,9.1133,9.0902,0.0,9.1133,9.0902,9.1056,9.121,9.121,9.121,9.121,9.121,9.121,9.121,9.121,9.121,9.121,9.121,9.121,9.121,9.121,9.121,9.121,9.121,9.121,9.1325,9.1556,9.221,9.2749,9.321,9.3796,9.4181,9.4403,9.4403,9.4403,9.4403,9.4134,9.4066,9.3989,9.3133,9.2441,9.1825,9.1364,9.121,9.121,9.121,9.121,9.121,9.121,9.121,9.121,9.121,9.121,9.121,9.121,9.121,9.121,9.121,9.121,9.121,9.121,9.121,9.121,9.121,9.121,9.121,9.121,9.121,9.121,9.121,9.121,9.121,9.121,9.121,9.121,9.121,9.121,9.121,9.121,9.121,9.121,9.121,9.121,9.0825,8.997,8.8748,8.7594,8.6517,8.6478,8.6324,8.6094,8.6094,8.6094,8.6094,8.6094,8.6094,8.6094,8.6094,8.6094,8.8718,8.8718,8.8718,8.8718,8.9286,8.9855,8.9893,9.0547,9.1171,9.121,9.121,9.121,9.121,9.121,0.0,0.0,9.0663,0.0,0.0,9.0663,9.121,9.121,9.121,9.121,9.121,9.121,9.121,9.121,9.121,9.121,9.121,9.121,9.121,9.121,9.121,9.121,9.121,9.121,9.1633,9.2441,9.2479,9.3364,9.4912,9.4951,9.5403,9.6211,9.6211,9.6211,9.6134,9.5297,9.4951,9.4874,9.398,9.3633,9.3403,9.1787,9.121,9.121,9.121,9.121,9.121,9.121,9.121,9.121,9.121,9.121,9.121,9.121,9.121,9.121,9.121,9.121,9.121,9.121,9.121,9.121,9.121,9.121,9.121,9.121,9.121,9.121,9.121,9.121,9.121,9.121,9.121,9.121,9.121,9.121,9.121,9.121,9.121,9.121,9.121,9.121,9.0825,8.997,8.9855,8.9086,8.744,8.7363,8.6978,8.6132,8.6094,8.6094,8.6094,8.6094,8.6094,8.6094,8.6094,8.6094,9.0364,9.0364,9.0364,9.0364,9.0556,9.074,9.074,9.097,9.121,9.121,9.121,9.121,9.121,9.121,0.0,0.0,0.0,9.1095,0.0,9.1018,9.121,9.121,9.121,9.121,9.121,9.121,9.121,9.121,9.121,9.121,9.121,9.121,9.121,9.121,9.121,9.121,9.121,9.121,9.1633,9.2518,9.3018,9.3903,9.5027,9.5595,9.6019,9.6288,9.6288,9.6288,9.6288,9.598,9.5865,9.5788,9.4912,9.4566,9.4412,9.3287,9.2518,9.1979,9.1402,9.121,9.121,9.121,9.121,9.121,9.121,9.121,9.121,9.121,9.121,9.121,9.121,9.121,9.121,9.121,9.121,9.121,9.121,9.121,9.121,9.121,9.121,9.121,9.121,9.121,9.121,9.121,9.121,9.121,9.121,9.121,9.121,9.121,9.121,9.121,9.121,9.121,9.0825,8.997,8.9893,8.9162,8.7478,8.7401,8.6978,8.6132,8.6094,8.6094,8.6094,8.6094,8.6094,8.6094,8.6094,8.6094,9.121,9.121,9.121,9.121,9.121,9.121,9.121,9.121,9.121,9.121,9.121,9.121,9.121,9.121,9.121,0.0,0.0,0.0,0.0,9.121,9.121,9.121,9.121,9.121,9.121,9.121,9.121,9.121,9.121,9.121,9.121,9.121,9.121,9.121,9.121,9.121,9.121,9.121,9.1787,9.2941,9.3441,9.4326,9.548,9.6057,9.6288,9.6288,9.6288,9.6288,9.6288,9.6288,9.6288,9.6249,9.5672,9.5441,9.5335,9.4134,9.3172,9.2402,9.1864,9.1479,9.121,9.121,9.121,9.121,9.121,9.121,9.1325,9.1941,9.1672,9.1325,9.1941,9.1633,9.121,9.121,9.121,9.121,9.121,9.121,9.121,9.121,9.121,9.121,9.121,9.121,9.121,9.121,9.121,9.121,9.121,9.121,9.121,9.121,9.121,9.121,9.121,9.121,9.0979,9.0393,9.0355,8.9739,8.8363,8.8017,8.7709,8.747,8.6547,8.6401,8.7017,8.6401,8.6094,8.6094,8.6094,8.6094]}]]